GFSSGP_2pvu_pres_000.txt.gz
Presure
183 148 115 141 160 108 137 82 87 120 121 109 94 129 97 92 97 94 93 89 145 135 103 89 90 99 116 140 146 160 166 151 145 154 149 137 124 96 147 99 100 161 145 143 144 165 170 152 155
228 145 192 125 108 137 94 134 88 140 152 99 145 137 98 103 126 131 91 146 128 147 160 96 149 103 151 124 141 162 135 170 153 148 154 159 119 148 149 152 146 150 149 154 165 164 166 151 160
204 198 210 226 163 123 140 87 97 88 151 91 163 138 102 128 98 93 114 104 134 158 144 96 156 152 132 103 134 142 143 146 155 177 164 163 165 138 137 142 151 150 144 155 165 162 151 159 170
116 85 212 228 187 121 140 100 89 83 115 162 82 159 109 87 96 96 95 130 102 146 134 146 121 129 123 139 122 129 136 91 136 149 134 92 96 109 145 149 160 154 157 170 167 178 146 146 143
194 131 196 136 225 248 210 210 113 86 91 103 90 87 94 97 87 140 95 91 139 126 124 141 139 158 150 160 172 180 171 133 168 144 122 107 146 150 96 107 138 149 129 178 178 141 148 148 144
89 201 190 162 88 208 200 231 101 133 144 90 89 90 92 100 96 94 91 96 101 96 98 160 99 112 104 137 170 173 177 172 167 179 132 168 182 93 89 186 125 164 127 165 183 133 145 145 151
200 200 71 187 85 208 211 194 192 152 183 89 86 97 87 89 130 84 89 98 86 95 97 165 104 108 117 144 124 165 132 183 170 167 130 145 202 180 161 155 187 124 109 172 173 144 198 101 102
243 227 197 122 100 194 203 85 210 107 83 94 90 117 89 103 159 84 90 86 91 71 156 102 94 125 95 150 166 137 117 141 189 137 173 142 159 145 183 201 151 104 108 134 172 246 244 188 104
221 194 224 192 203 87 170 157 200 113 172 89 84 90 119 95 93 95 86 92 86 102 99 122 95 83 92 98 170 164 128 130 168 174 181 135 187 159 182 208 164 146 132 262 195 247 156 210 216
243 225 201 162 162 190 89 177 204 206 170 215 90 89 133 94 79 88 80 89 92 96 118 84 84 93 91 90 91 96 92 92 96 126 112 181 172 185 169 200 211 178 221 234 239 236 150 169 152
242 205 137 219 205 100 193 188 91 95 201 240 224 176 120 186 130 197 142 130 88 115 173 84 92 87 88 100 83 91 90 93 91 86 86 185 152 84 84 84 168 264 214 238 144 219 145 141 167
272 242 249 232 266 201 208 128 182 100 100 92 103 223 93 97 198 173 84 110 79 93 187 180 87 93 89 125 90 78 87 85 82 151 174 94 140 102 100 215 160 232 239 142 183 140 139 158 167
234 230 233 242 231 261 234 191 184 186 93 129 90 95 103 208 192 114 121 129 118 90 110 128 86 91 88 89 77 90 94 119 80 119 95 98 94 119 94 107 105 110 129 127 135 203 155 160 177
249 246 273 269 237 228 260 228 175 186 79 123 107 90 149 137 74 119 119 120 81 108 136 114 87 90 90 89 94 81 87 93 85 98 91 192 112 106 225 170 124 118 118 119 120 126 151 178 185
240 281 279 278 280 236 224 221 235 110 183 127 94 96 92 100 109 111 121 85 94 105 193 194 192 112 87 91 91 84 104 96 119 93 109 94 90 101 211 235 222 214 206 152 197 200 128 131 136
278 276 274 268 276 267 242 231 250 211 107 190 194 132 201 96 107 96 93 102 98 97 103 108 107 164 86 125 115 112 100 181 117 149 201 96 97 140 234 196 215 207 193 204 205 195 200 189 161
216 266 265 262 258 262 260 211 234 177 214 147 84 157 188 104 102 99 107 115 96 107 143 102 190 147 138 149 175 164 141 100 93 84 118 214 85 222 226 197 196 206 201 144 172 196 186 174 181
264 265 253 248 246 253 264 238 208 243 145 83 184 189 116 175 111 111 115 139 108 109 119 125 125 183 124 189 174 95 79 115 97 216 104 203 224 223 214 208 197 180 196 165 193 193 192 185 185
267 267 258 251 250 249 249 261 221 220 252 229 178 190 108 109 121 105 113 101 109 109 105 113 116 123 108 93 90 79 97 104 215 193 183 225 222 217 207 202 204 209 208 205 204 204 203 202 205
242 250 241 239 236 241 249 250 123 211 224 248 224 205 183 139 83 120 101 102 99 91 104 93 123 82 121 83 96 85 109 210 183 183 194 201 197 207 211 199 196 194 193 194 194 193 192 191 192
247 255 237 236 237 247 245 251 254 261 212 243 232 178 182 142 108 112 114 103 85 88 105 234 123 110 171 169 207 156 196 197 183 193 188 189 191 182 185 185 185 186 186 186 184 181 181 188 188
209 252 238 233 241 242 248 217 257 260 167 214 245 222 147 175 183 147 115 115 132 217 192 126 114 125 120 129 105 106 134 178 148 187 186 180 182 185 184 183 131 180 178 175 171 182 183 190 179
253 245 235 237 238 242 245 257 265 262 277 216 245 225 201 178 170 170 123 188 122 213 220 204 106 105 104 202 101 198 165 191 189 184 176 178 180 179 180 177 170 163 182 167 181 177 176 180 179
252 238 232 237 236 241 238 250 253 264 271 287 222 230 208 176 172 176 179 181 192 211 193 110 115 115 141 191 192 183 192 190 184 182 177 177 139 179 177 172 166 172 171 182 175 185 177 190 172
234 230 234 242 247 271 256 159 152 148 263 289 217 233 207 177 170 174 176 134 152 217 183 140 208 196 191 198 182 194 190 188 182 182 180 175 179 174 179 160 179 187 183 175 180 188 188 176 182
280 95 269 215 276 280 257 280 261 138 266 306 218 237 212 182 170 175 173 169 173 211 211 200 199 187 193 192 194 185 190 181 176 178 179 167 181 186 173 183 177 179 179 181 160 183 178 165 165
345 354 351 195 351 342 342 348 334 257 97 326 214 238 199 178 172 175 174 181 184 219 213 173 196 195 188 193 181 189 175 183 177 170 189 175 174 181 161 176 173 178 182 177 183 177 176 193 195
335 189 342 349 240 353 285 342 296 284 291 305 207 235 204 181 185 180 171 181 192 213 207 208 197 191 192 186 182 183 172 180 174 189 170 180 170 177 175 180 182 179 177 178 203 204 192 228 248
401 362 396 356 352 300 288 270 264 99 261 242 207 231 199 179 187 178 179 187 210 207 203 212 197 201 187 162 171 174 181 184 186 178 176 179 177 168 177 188 200 198 197 184 199 245 264 250 235
376 384 277 261 260 254 259 247 250 265 257 233 228 228 184 186 178 169 181 188 199 209 201 170 200 189 164 164 182 179 187 182 184 179 177 177 181 179 190 185 172 191 201 218 276 264 155 228 217

GFSSGP_2pvu_pres_003.txt.gz
Presure
121 157 139 140 114 143 99 126 131 146 128 105 130 87 89 101 128 132 92 118 101 126 134 97 88 90 166 167 161 147 154 145 139 145 164 154 151 153 160 154 150 162 149 163 154 168 110 124 154
181 145 151 122 106 133 155 122 134 126 147 137 89 91 96 112 102 94 95 85 89 145 124 111 112 125 147 141 162 167 156 154 141 161 148 170 168 154 154 131 157 156 140 153 144 146 143 150 155
145 166 153 176 164 111 153 109 107 165 153 96 144 130 142 96 107 93 89 99 144 148 147 147 127 134 144 144 171 144 158 134 154 120 106 148 143 167 151 172 90 155 162 153 144 162 155 153 177
170 228 86 223 224 203 232 111 228 98 138 94 106 156 118 97 133 102 84 94 124 105 148 142 137 152 142 142 143 139 143 119 155 134 165 137 170 84 87 104 161 155 100 167 163 178 196 116 81
205 212 203 96 206 211 223 122 201 91 86 123 131 81 160 111 112 96 92 93 96 99 122 137 143 115 146 96 136 131 128 150 137 150 173 139 146 183 136 174 95 95 157 153 134 140 148 136 181
197 199 189 199 200 194 140 213 213 186 85 188 100 170 123 155 115 90 93 95 103 88 95 185 133 101 111 133 139 134 153 130 157 166 154 161 156 158 178 132 189 131 136 141 163 124 117 142 145
207 205 204 201 190 195 160 203 206 113 140 86 90 148 96 97 90 95 93 94 95 80 94 132 116 103 157 132 103 104 156 149 168 184 185 122 178 167 152 134 160 132 174 185 130 108 114 137 155
170 193 189 194 201 103 115 199 191 221 221 90 91 213 90 90 92 99 95 85 96 81 86 99 104 98 97 93 143 113 103 127 108 150 106 102 138 156 148 147 140 186 193 146 157 119 136 164 229
188 191 201 214 209 99 137 108 104 196 217 223 97 208 96 97 85 92 106 88 81 88 73 77 178 143 94 92 90 118 90 88 147 90 91 91 95 150 165 131 82 79 82 155 207 196 161 231 224
197 204 194 216 210 239 226 118 195 204 116 154 168 159 197 97 103 125 182 92 90 86 97 93 127 84 88 89 88 92 89 88 88 90 90 87 84 94 98 85 86 90 89 147 97 236 226 234 235
222 204 223 212 230 230 194 119 101 195 191 204 210 89 111 90 110 93 89 82 83 80 87 95 122 121 85 83 89 85 86 83 84 83 87 82 97 187 94 82 94 85 190 114 115 253 125 214 146
214 213 212 219 246 240 250 205 234 113 193 197 205 112 136 110 82 81 117 109 99 96 98 93 93 107 93 82 84 89 88 77 87 86 94 78 101 91 92 190 90 98 192 208 224 247 125 210 119
214 199 213 220 224 272 235 245 197 202 83 143 197 196 138 209 101 99 82 118 125 122 144 198 90 131 84 150 88 110 84 110 86 82 83 192 133 87 138 95 135 94 99 213 237 227 218 212 161
231 202 211 222 219 242 259 234 249 229 183 160 162 99 188 200 160 167 121 108 151 190 80 127 90 143 110 151 113 89 90 85 92 93 101 85 84 85 184 173 90 214 227 216 229 224 142 189 176
241 227 203 216 218 248 242 246 247 226 246 223 229 124 89 103 97 102 208 120 131 122 113 76 122 111 169 181 182 117 110 87 100 113 111 91 100 80 101 101 90 224 230 223 226 217 214 140 201
237 223 220 206 223 246 236 298 113 237 231 253 95 194 87 101 119 97 108 122 225 99 126 117 98 103 109 188 131 185 107 111 187 183 153 89 93 102 172 188 133 203 193 222 217 217 141 195 197
226 240 227 218 213 235 289 280 271 277 242 236 251 94 157 89 91 134 106 94 159 179 111 113 94 95 102 106 107 161 147 146 190 122 86 96 90 143 192 211 228 223 220 215 206 204 206 210 206
200 238 233 226 220 208 284 283 270 278 278 235 238 264 129 125 183 103 106 120 115 158 96 92 90 112 114 143 139 129 120 124 108 76 100 97 105 177 206 194 200 217 218 206 204 204 198 196 196
217 231 234 228 219 222 251 280 270 268 279 263 231 241 264 111 88 148 99 103 101 104 104 116 88 118 114 116 104 116 82 83 160 163 220 113 110 182 187 198 192 189 194 190 185 190 183 182 194
233 216 225 231 211 218 227 243 264 265 267 271 231 227 242 263 216 182 165 108 191 121 113 110 114 105 108 88 110 111 124 93 118 208 180 96 111 174 191 173 193 192 183 182 181 178 180 183 180
227 236 232 220 218 219 235 264 264 260 257 167 263 228 221 249 205 172 173 135 179 113 125 115 91 93 78 108 111 116 121 211 115 103 95 111 130 188 176 187 186 133 184 144 146 185 179 181 181
224 227 228 237 222 221 233 250 262 241 255 249 257 253 212 224 251 210 193 178 181 162 114 88 91 113 109 114 90 111 183 123 103 95 111 163 194 162 183 189 180 179 180 147 173 183 172 167 167
258 245 248 238 220 225 234 251 93 256 240 242 243 255 241 209 241 223 208 174 179 179 116 113 157 116 114 114 151 110 205 120 112 113 190 195 179 191 193 180 182 177 179 171 180 178 169 177 183
244 241 240 231 227 218 237 257 273 238 243 241 197 252 212 212 95 235 208 195 179 124 174 135 114 107 109 110 134 150 197 199 115 116 193 179 199 185 188 181 175 182 170 178 187 184 175 186 173
250 250 236 233 233 252 240 182 288 240 197 220 242 179 232 261 208 236 222 201 177 168 175 193 182 175 203 152 154 207 208 170 169 188 180 183 188 192 181 179 182 183 170 173 180 173 177 173 180
272 265 249 240 246 237 241 266 290 119 82 108 233 244 156 270 211 221 227 204 182 169 170 176 178 182 216 206 205 211 199 196 186 196 186 189 190 186 174 189 177 116 181 179 174 179 180 188 190
247 242 244 236 249 240 186 209 229 226 161 221 230 241 169 262 221 204 230 211 188 178 175 179 173 173 210 101 209 193 198 189 183 190 195 192 191 174 175 173 182 183 171 179 177 176 179 182 188
77 381 394 393 395 334 270 284 236 226 229 238 89 198 185 270 265 133 233 212 190 180 170 168 172 169 213 214 213 201 191 185 191 191 187 182 184 180 188 188 185 179 174 172 177 177 190 192 204
371 82 354 380 384 396 354 373 373 235 234 245 253 250 252 273 147 211 233 209 190 179 169 164 178 175 219 213 209 200 190 189 186 179 171 183 179 185 186 182 172 171 173 177 189 189 193 203 235
372 363 374 194 362 361 355 336 362 358 251 251 253 254 259 285 244 218 234 195 194 179 171 167 176 180 218 218 205 207 188 191 184 174 179 191 189 178 179 171 174 173 180 186 188 193 204 231 258

GFSSGP_2pvu_pres_006.txt.gz
Presure
129 165 97 166 162 102 148 140 144 153 147 117 133 119 128 140 86 135 90 119 109 92 124 124 93 131 119 119 141 148 146 164 152 177 150 152 148 142 162 160 148 152 94 105 157 161 159 158 157
125 129 167 119 158 149 107 153 112 159 143 150 165 130 131 87 141 87 98 95 109 123 108 119 142 136 121 110 131 145 134 143 158 132 170 150 145 144 83 133 158 122 167 90 157 155 159 147 162
168 151 168 155 85 173 150 165 94 124 118 144 125 142 102 136 102 132 133 96 87 131 97 133 108 138 119 131 136 135 153 138 138 124 120 83 121 129 162 143 89 91 149 172 142 150 154 139 146
78 160 177 126 165 170 133 169 141 75 148 116 126 139 110 142 94 106 91 96 132 94 105 146 137 143 125 146 127 127 159 163 135 135 135 141 147 153 157 169 169 151 191 156 95 189 167 145 158
165 139 187 137 169 157 119 193 165 79 101 120 146 100 146 98 211 166 84 88 91 97 102 136 102 150 151 132 140 143 135 165 145 136 143 109 125 128 171 185 180 151 184 162 104 129 143 106 124
216 176 171 175 222 224 222 234 223 218 101 114 104 111 137 143 171 110 143 88 90 96 95 95 104 114 103 94 114 153 157 167 160 108 153 128 146 178 154 119 179 159 141 158 174 173 135 188 193
187 215 205 200 197 194 199 213 214 212 215 93 189 93 120 211 92 123 150 98 94 96 89 88 126 116 97 147 174 102 134 167 99 149 129 167 172 152 176 132 159 172 161 106 98 134 144 159 202
204 197 191 186 200 201 204 96 206 200 191 202 222 178 95 108 116 132 128 144 99 98 84 92 95 126 144 163 89 95 129 97 96 163 90 90 89 181 85 92 87 82 83 142 145 91 128 90 165
170 195 193 194 194 184 210 208 205 198 212 194 89 88 88 100 109 142 97 209 95 97 80 121 119 119 109 176 93 88 89 100 87 85 89 89 87 87 86 94 108 89 87 90 84 203 83 217 192
181 184 185 185 188 186 195 165 191 198 206 198 190 188 115 95 101 91 93 169 86 97 88 81 85 126 89 98 124 81 85 97 87 84 84 86 83 84 87 95 110 88 173 144 86 97 191 186 202
193 174 130 182 181 183 189 182 88 120 201 203 199 194 141 108 97 102 92 87 90 90 92 115 78 92 91 92 86 87 91 83 89 76 86 80 98 92 78 95 180 172 184 93 90 96 165 207 226
200 173 189 213 185 209 225 223 220 188 212 216 190 143 127 195 201 149 221 101 100 199 93 84 85 86 94 80 79 84 85 91 89 80 83 88 88 86 169 123 78 84 195 186 83 112 111 218 220
223 194 214 224 202 197 225 218 219 220 225 136 88 209 194 143 197 97 201 106 97 89 85 77 99 94 101 89 138 123 150 85 104 135 81 83 85 89 99 85 89 79 93 97 122 182 191 238 231
221 217 227 220 220 229 227 224 165 213 224 232 83 224 210 186 163 87 149 98 96 114 112 101 103 79 88 199 118 96 102 108 107 86 86 86 85 95 110 87 105 107 84 184 97 189 235 217 233
219 234 230 225 241 220 237 225 211 209 220 252 239 80 182 243 186 197 107 110 108 200 104 110 135 83 168 186 167 82 119 133 181 182 88 158 141 183 78 109 94 85 105 187 193 205 237 231 222
226 234 221 229 234 241 238 222 210 220 235 221 254 243 116 79 221 184 198 177 133 193 73 122 129 127 88 194 169 121 122 126 187 131 109 182 107 168 170 83 92 99 109 144 196 197 222 222 206
226 225 233 218 230 229 241 97 221 195 224 231 252 251 213 254 253 153 193 145 196 143 94 76 75 128 129 125 117 99 102 105 103 103 148 104 113 107 99 111 119 108 109 142 205 203 180 207 197
222 214 228 242 234 230 229 242 232 221 211 222 277 297 243 211 250 238 205 92 100 100 102 109 103 122 197 97 119 97 101 109 205 109 144 105 82 117 197 181 117 108 110 109 194 194 113 191 192
223 229 241 236 215 237 218 235 238 231 227 214 286 280 283 241 233 251 253 75 93 96 165 185 115 98 197 89 96 110 120 122 114 111 110 117 140 93 115 103 186 106 110 111 190 186 187 192 191
222 227 230 242 234 228 209 209 242 239 227 225 203 275 271 275 251 226 252 99 172 193 129 124 109 110 99 106 90 120 119 110 97 86 91 111 113 108 98 102 109 111 140 192 200 176 193 173 185
239 231 233 236 233 240 227 218 229 234 232 224 214 273 269 268 269 251 236 252 211 94 141 99 104 78 115 117 113 110 106 81 89 112 96 111 109 110 221 110 109 111 193 187 161 179 190 176 181
222 224 229 221 230 235 241 243 234 224 228 212 208 267 267 120 262 265 228 241 254 201 197 135 117 170 171 108 108 104 84 114 114 109 112 104 171 126 111 194 112 164 194 180 182 190 182 182 181
250 249 247 246 245 248 243 243 227 228 225 210 220 198 208 261 259 260 228 222 94 163 202 196 191 92 182 179 125 114 114 108 108 109 108 108 123 210 213 199 192 193 180 190 188 188 186 181 188
242 246 257 258 266 271 249 253 226 249 225 205 224 247 251 245 240 256 259 223 225 247 224 204 194 190 186 183 172 178 110 114 110 111 109 162 209 204 198 196 182 184 180 191 185 192 180 182 184
272 278 287 296 298 300 273 242 279 245 208 174 225 242 249 247 239 242 257 224 214 230 238 209 207 191 172 178 178 175 175 200 210 220 104 206 208 197 196 184 191 183 190 185 193 187 191 175 182
315 314 311 301 303 292 273 285 276 246 208 219 228 242 235 214 238 235 248 264 214 108 109 226 200 194 167 180 171 172 184 197 213 213 212 210 202 195 191 186 192 193 200 197 191 177 189 193 191
285 265 275 297 299 302 206 261 280 226 210 195 221 240 238 233 218 240 246 257 221 203 229 230 211 202 184 181 164 166 189 180 210 199 210 195 201 188 182 184 196 192 182 187 175 190 188 183 172
390 389 289 273 153 270 74 300 101 268 141 199 137 230 250 234 235 220 247 251 264 215 209 228 217 205 193 181 170 167 166 144 182 208 209 209 203 192 190 192 192 180 165 186 191 183 177 176 185
185 95 255 352 309 284 214 270 261 216 227 206 211 225 214 83 198 236 241 248 264 217 205 228 220 208 193 181 173 168 170 171 176 210 209 206 201 197 192 193 185 188 192 192 184 176 179 189 185
335 351 345 278 377 395 408 453 273 239 237 108 224 228 243 228 231 92 238 248 230 159 209 225 222 207 196 188 178 181 163 171 179 206 212 208 206 199 197 180 186 189 180 178 172 189 189 158 202

GFSSGP_2pvu_pres_009.txt.gz
Presure
91 167 140 167 165 141 161 160 179 171 125 128 127 127 160 98 125 135 110 145 142 131 132 122 95 119 132 138 128 130 136 139 135 148 117 143 147 160 167 119 143 135 104 156 162 160 170 167 163
133 161 117 160 165 169 155 131 136 128 159 166 116 137 128 121 100 110 142 93 95 119 99 97 108 104 136 102 135 131 124 129 133 148 151 144 140 84 161 132 170 166 130 131 142 149 122 124 157
81 164 163 152 153 155 164 154 161 171 168 152 173 163 140 138 117 122 100 110 104 90 83 125 138 118 145 131 158 136 124 133 119 142 122 145 144 140 125 138 132 150 140 144 155 133 150 152 190
168 164 172 175 146 164 112 169 141 162 165 152 97 141 165 157 116 92 132 137 141 107 96 145 137 147 143 105 138 142 131 136 120 136 137 120 149 134 141 142 140 124 119 152 121 137 191 192 132
155 172 169 142 166 127 135 107 152 172 149 146 106 128 145 168 145 127 123 97 122 89 96 137 119 136 148 132 141 136 101 158 158 137 152 161 153 144 144 142 135 145 161 171 159 170 129 182 152
167 160 138 104 172 169 168 174 172 166 178 178 132 148 137 131 120 113 122 103 92 95 102 100 128 120 106 123 141 118 133 138 143 147 131 110 161 141 168 139 130 153 183 148 83 82 141 161 163
177 161 167 170 155 168 177 169 179 168 179 95 178 132 195 116 231 136 93 132 99 88 94 133 89 96 111 121 87 100 103 154 111 97 128 173 91 153 144 133 142 167 82 87 90 164 105 143 167
232 195 151 218 228 192 190 239 231 235 237 224 224 229 100 232 91 229 142 118 227 88 96 90 97 79 143 89 101 146 151 96 148 154 151 91 91 90 88 90 92 93 93 100 123 92 162 89 94
201 214 214 228 228 138 235 223 176 215 210 209 202 210 128 216 105 101 125 97 116 166 98 89 86 96 104 137 167 112 87 94 90 89 89 88 87 87 85 85 142 95 172 85 87 94 85 83 83
175 204 198 210 191 171 204 172 189 86 197 198 202 202 174 142 115 105 159 114 135 108 96 91 82 89 120 95 121 93 81 82 92 141 88 83 86 82 92 173 137 94 92 126 157 170 181 143 149
166 178 197 180 213 179 191 177 179 194 182 78 191 183 197 101 171 158 104 109 107 214 90 94 90 87 90 190 107 89 90 101 91 88 90 81 86 147 89 87 94 115 99 103 91 109 112 96 93
170 178 177 206 216 217 60 172 182 175 174 180 182 182 185 192 180 138 126 103 94 93 123 97 90 78 79 93 90 92 78 84 87 149 180 83 82 89 80 85 89 89 97 79 87 100 83 132 194
182 185 192 204 191 202 190 214 122 178 178 191 81 234 206 183 186 200 155 135 94 89 99 234 81 90 109 92 95 78 109 76 113 192 85 85 112 81 84 85 92 97 137 154 94 82 86 105 189
197 188 208 190 197 210 230 230 210 211 227 223 225 81 87 225 192 212 183 127 99 147 81 96 100 82 85 95 100 88 96 91 85 125 189 142 87 88 103 84 107 115 124 83 102 91 106 105 111
205 196 184 177 183 218 237 215 217 233 227 219 209 228 230 229 231 212 232 198 191 108 94 205 91 82 95 100 99 91 201 201 90 84 204 131 133 191 80 83 192 183 106 84 100 169 106 105 182
207 209 203 209 216 226 202 235 204 245 227 225 232 225 219 219 211 232 189 229 212 199 194 110 192 130 97 109 105 115 215 135 130 177 125 123 124 103 105 111 155 116 85 114 174 181 110 133 110
202 212 211 210 212 226 215 208 241 231 241 245 219 229 228 202 164 115 93 218 197 226 145 132 175 172 203 152 151 115 142 128 130 204 123 95 89 107 123 132 107 79 115 106 117 102 103 109 110
203 197 206 209 216 208 212 226 225 237 229 233 243 234 225 215 222 223 258 97 241 237 232 200 189 115 188 192 125 184 125 132 132 82 100 104 110 116 110 109 108 83 116 104 103 161 104 109 111
197 204 208 211 216 220 226 230 216 236 243 233 228 240 233 227 209 226 226 249 225 237 243 238 194 192 170 121 123 157 126 127 155 128 123 117 123 96 99 78 112 111 100 104 124 109 209 112 114
217 220 214 212 213 220 215 218 228 222 242 226 229 226 235 233 224 208 222 248 221 236 235 88 97 85 103 105 180 105 101 114 193 133 114 124 104 95 88 110 110 107 113 105 131 156 217 178 204
217 219 220 225 226 228 223 225 225 220 229 228 222 217 223 172 228 224 214 243 278 237 233 91 258 156 143 146 103 109 147 103 111 152 93 114 93 98 114 100 103 106 112 110 170 175 207 204 187
217 218 220 223 229 228 231 243 230 243 228 232 225 217 206 231 234 82 221 209 269 268 234 226 238 232 127 112 190 176 161 108 151 108 112 88 121 114 112 109 109 111 108 111 214 204 201 193 191
228 232 239 245 251 252 249 119 253 223 232 217 225 180 190 219 234 232 106 218 268 265 272 232 224 247 228 133 195 189 195 168 128 184 192 169 187 104 109 118 209 112 210 209 206 195 194 183 189
246 245 252 267 272 289 306 305 203 235 229 230 221 229 225 221 221 232 226 265 265 263 262 270 226 230 240 147 204 148 143 178 119 167 178 186 182 186 198 169 211 212 201 204 196 197 192 187 193
248 245 242 238 228 219 239 248 98 171 260 253 244 240 223 224 223 229 221 256 204 259 260 258 228 174 226 233 220 199 202 191 185 180 182 181 179 174 201 217 208 203 204 202 198 195 187 186 193
229 245 259 266 268 273 269 272 248 165 82 239 247 251 223 227 229 223 215 257 251 251 261 251 243 219 222 238 231 207 195 197 186 172 178 174 174 171 186 187 208 203 207 201 198 191 191 191 199
320 337 413 354 385 400 417 86 263 123 270 263 252 242 237 212 244 232 213 248 253 245 250 255 249 222 213 239 235 226 199 201 189 163 176 162 167 178 170 184 188 205 212 199 202 200 193 196 188
339 347 348 353 394 380 402 120 160 165 99 289 262 244 243 251 235 222 224 186 228 245 242 252 248 225 213 216 236 147 213 204 194 187 177 171 164 177 173 183 181 210 209 200 198 199 198 183 180
332 327 326 336 355 349 386 171 418 283 312 299 274 250 240 237 140 131 238 248 243 245 244 242 253 230 216 211 236 232 213 202 201 189 186 178 172 168 170 171 191 208 212 209 199 178 196 191 186
333 130 222 86 338 160 374 410 96 272 309 300 276 255 231 228 113 219 225 244 235 233 239 248 255 240 221 213 219 233 217 202 205 192 183 178 173 177 168 172 205 205 203 196 178 189 184 184 173

GFSSGP_2pvu_pres_012.txt.gz
Presure
135 159 163 126 124 155 135 168 173 151 144 156 166 121 130 135 170 139 140 137 129 149 139 137 128 134 142 129 132 92 142 131 128 116 140 136 140 145 153 142 124 160 90 167 125 170 172 156 161
165 166 150 161 162 156 132 102 140 145 163 154 145 133 124 155 163 164 152 139 151 112 156 136 104 90 88 91 102 113 142 141 134 133 141 143 140 127 104 118 100 145 136 154 117 131 160 140 120
166 168 147 170 115 161 161 169 169 169 151 155 133 166 128 161 149 124 104 118 90 139 149 106 87 109 110 142 104 128 118 142 140 139 156 132 107 136 139 165 148 142 134 139 138 138 137 143 149
157 159 156 159 151 102 144 168 130 160 174 155 160 178 116 172 140 129 122 161 100 117 134 156 149 106 111 135 126 128 134 134 139 144 143 141 120 136 141 129 152 162 161 124 168 139 168 143 172
161 171 172 160 168 169 166 155 141 155 167 151 159 170 154 134 169 138 126 109 92 117 93 106 138 119 123 154 145 102 148 150 125 107 143 135 152 131 136 148 161 153 150 144 179 146 116 168 170
161 136 161 163 169 178 177 170 163 164 158 85 137 153 165 171 128 146 137 156 109 140 157 109 110 159 135 163 160 129 107 136 150 138 148 151 127 152 158 112 140 151 111 115 84 88 90 135 89
183 183 158 167 167 176 165 173 175 174 161 170 122 170 150 156 149 158 122 145 100 149 129 99 97 136 124 154 124 153 157 150 111 117 128 130 144 99 137 141 153 104 95 89 94 100 93 128 88
142 182 156 165 175 153 173 167 162 128 160 136 172 175 138 115 161 181 188 126 97 166 94 91 99 176 88 150 114 128 129 130 99 97 136 110 141 133 91 89 92 94 94 116 95 140 92 130 94
163 166 171 182 74 179 193 124 147 80 241 182 208 211 212 133 215 169 227 196 185 133 89 92 159 96 95 81 107 156 99 123 119 97 99 92 129 90 89 88 88 95 84 172 156 86 84 92 144
178 176 208 178 186 179 190 234 227 227 230 228 230 203 151 233 95 234 235 230 142 94 91 91 236 93 113 133 101 156 166 162 120 89 89 88 87 83 86 82 92 93 178 166 164 105 99 88 90
198 220 217 209 226 233 142 207 185 205 229 222 184 197 223 220 201 148 126 209 208 207 214 112 100 94 92 141 158 85 122 96 90 87 93 94 87 87 82 105 91 84 87 90 95 93 90 97 88
215 176 168 188 218 181 132 185 185 188 149 208 170 178 184 188 198 197 89 183 130 205 205 97 185 99 196 78 98 91 92 89 95 88 92 95 93 88 87 112 92 82 84 85 95 83 120 186 87
221 212 215 212 208 209 203 184 176 167 149 176 189 177 177 172 179 179 179 128 105 191 198 206 169 102 97 84 89 99 92 178 84 106 106 88 162 87 85 84 83 150 79 81 94 188 184 150 150
215 213 210 203 212 205 199 203 218 194 200 159 202 183 202 149 179 183 167 214 96 130 184 192 149 97 97 89 93 92 88 94 86 88 103 132 90 97 125 195 193 101 84 132 172 196 99 121 92
208 203 214 208 213 213 218 198 194 159 207 179 209 213 212 207 85 196 209 232 223 161 100 188 89 104 98 88 86 95 84 93 90 89 92 223 159 83 101 129 134 134 121 110 111 180 119 94 108
215 208 205 208 214 207 206 186 216 223 225 217 200 215 231 198 221 111 157 197 225 227 221 116 114 97 82 90 96 86 85 90 100 98 92 109 207 163 132 108 120 110 77 101 123 118 83 110 109
217 222 207 203 207 210 206 207 207 201 216 215 206 190 241 239 236 223 222 83 220 188 227 230 242 146 111 100 194 82 100 98 84 102 114 125 224 244 130 128 115 105 113 122 114 104 110 112 106
199 209 218 205 206 206 209 211 201 207 205 203 189 203 212 233 234 235 221 225 187 213 221 226 246 239 236 201 95 102 151 185 110 121 113 123 211 99 84 125 110 113 117 100 88 106 108 100 107
198 204 213 216 200 205 205 198 207 210 214 206 208 206 224 234 221 233 239 237 113 150 90 222 228 241 217 90 78 207 191 175 121 198 186 194 125 127 130 147 160 115 124 95 87 94 112 106 107
206 206 210 217 221 221 205 210 208 178 209 214 215 217 212 219 237 228 234 241 238 209 201 121 80 175 241 83 124 222 97 196 81 184 191 96 176 124 126 177 147 117 115 84 87 192 104 108 108
206 213 215 219 222 222 225 203 198 207 204 208 211 213 206 220 228 235 232 233 242 237 224 209 226 238 90 168 243 236 96 109 146 173 125 111 109 102 110 117 146 118 90 90 194 114 110 114 131
219 221 223 224 94 118 217 230 214 213 219 215 216 213 215 221 219 231 229 231 231 235 237 201 211 212 245 250 173 194 241 206 103 131 107 104 103 107 101 195 114 95 113 106 112 107 228 213 193
225 226 227 219 229 228 226 234 227 213 209 208 215 218 221 222 228 230 242 224 229 227 243 236 232 214 249 246 241 228 217 246 225 220 204 108 174 178 178 185 122 190 172 193 196 214 212 211 211
237 235 230 221 227 235 233 244 76 205 215 213 220 230 230 233 233 244 241 229 224 175 232 236 243 222 272 255 237 236 132 242 235 221 220 175 180 139 182 186 143 180 177 178 195 205 204 194 204
233 231 236 241 244 238 224 264 233 259 248 245 234 232 240 239 228 241 243 231 232 216 221 236 141 264 275 274 264 233 72 225 237 173 139 211 199 188 197 178 182 180 173 177 190 173 188 210 181
238 242 243 229 238 217 246 214 102 217 233 223 256 256 267 268 251 235 238 223 186 184 213 222 242 226 227 265 270 237 229 225 234 228 225 216 194 201 195 189 172 174 175 163 169 173 172 197 211
222 223 226 231 264 348 338 328 86 262 121 214 247 179 239 280 269 244 235 225 225 228 224 226 242 242 264 263 260 248 226 223 223 232 232 223 209 195 195 198 178 163 174 171 169 173 173 171 183
223 271 326 332 270 343 343 370 256 93 144 370 246 243 238 240 273 258 244 248 246 245 219 235 233 232 253 256 250 254 231 220 215 235 234 227 214 199 194 203 191 179 175 181 170 172 181 171 210
248 299 368 382 355 351 343 350 283 349 187 389 388 264 219 238 243 258 242 246 244 233 224 237 226 234 250 245 249 242 235 219 215 212 231 227 215 210 199 200 197 183 184 180 168 175 181 174 198
282 299 310 264 363 367 355 391 359 280 366 359 393 354 279 242 243 240 243 239 244 230 226 231 230 252 242 240 248 242 240 227 214 209 230 228 222 213 210 196 200 189 182 180 174 176 179 196 197

GFSSGP_2pvu_pres_015.txt.gz
Presure
98 147 116 111 153 142 150 82 100 165 150 111 123 168 127 136 172 145 150 144 134 124 112 138 139 139 130 135 136 125 136 140 130 122 129 135 136 112 150 121 142 135 126 144 146 139 99 162 88
74 168 121 149 109 169 122 148 153 111 107 129 155 104 157 166 162 161 117 125 168 143 135 127 126 141 133 139 135 139 138 138 136 141 141 129 120 122 135 141 140 126 88 123 147 121 90 144 134
161 135 131 116 169 142 155 134 166 151 147 137 156 156 139 139 157 153 126 149 104 137 169 131 133 135 141 138 84 104 113 105 114 137 147 147 132 133 135 92 122 150 127 136 143 148 117 134 147
174 169 158 166 113 157 132 167 151 161 148 139 96 162 149 133 117 159 142 158 110 119 98 137 124 137 89 88 90 125 149 124 127 132 155 142 147 92 140 144 135 138 145 135 148 165 145 152 140
172 120 122 160 157 164 169 150 135 159 174 162 144 159 160 162 154 129 171 118 123 160 112 101 108 130 106 167 108 141 135 145 128 135 127 141 143 141 139 147 145 150 132 138 154 153 152 110 90
169 169 142 149 174 178 173 158 156 144 170 178 168 167 161 141 164 161 140 109 108 131 104 97 98 147 137 96 125 125 145 122 119 145 148 138 152 141 139 150 154 157 156 149 142 102 83 88 101
152 155 136 167 168 166 181 185 160 177 159 165 157 167 129 164 163 173 159 134 168 165 92 103 127 99 168 161 138 132 134 134 141 129 169 162 145 123 128 119 124 143 149 151 88 92 100 110 91
170 168 163 171 168 168 178 165 176 163 175 177 172 119 172 93 172 162 170 172 168 134 156 98 122 123 102 129 147 147 160 105 148 155 120 133 101 122 113 95 98 94 92 97 99 112 102 83 83
168 168 163 139 173 164 166 168 179 164 174 174 172 165 120 175 77 158 163 146 162 141 137 94 104 132 102 104 106 128 138 95 155 108 117 156 104 118 103 116 89 86 90 93 87 115 85 94 130
158 159 170 175 168 163 149 161 169 165 165 155 171 161 174 178 179 121 175 160 206 154 161 138 102 141 153 107 93 177 89 154 105 103 101 108 114 96 92 88 87 80 88 91 85 113 116 98 84
191 164 177 173 172 168 164 170 160 166 175 177 153 178 181 179 140 111 110 141 253 243 211 96 103 89 101 101 93 83 107 95 100 135 147 111 98 92 90 90 84 80 92 80 85 103 90 89 91
193 196 173 177 175 173 177 180 189 179 169 176 213 191 227 210 144 158 232 233 213 225 226 223 218 219 93 103 96 102 92 178 106 147 100 126 94 96 89 92 90 90 87 80 84 82 80 85 92
207 192 200 201 179 175 196 204 180 212 237 113 237 167 212 179 200 189 225 226 222 215 195 97 200 101 101 102 104 123 106 199 101 132 99 92 83 93 89 87 94 96 159 175 197 160 116 92 142
206 201 198 199 200 196 201 211 228 224 196 201 194 217 183 175 186 151 195 176 184 191 198 193 192 189 158 139 163 94 103 97 82 97 101 90 94 87 84 88 106 94 110 134 122 201 175 133 114
200 204 206 215 215 221 221 217 223 222 217 177 212 216 195 210 178 189 108 171 184 188 185 103 183 184 210 186 187 188 94 91 99 96 96 93 90 92 99 99 99 122 197 170 175 228 128 116 99
208 207 206 207 209 208 215 220 217 217 213 212 213 185 202 218 182 170 199 201 177 189 213 181 192 202 211 226 190 212 107 89 87 90 94 88 101 84 104 84 87 210 210 145 203 119 118 109 114
215 211 187 214 196 212 218 213 208 214 211 204 210 208 214 208 180 195 195 214 223 222 238 233 235 115 191 225 185 207 101 88 96 83 87 82 97 92 95 95 109 126 227 230 131 121 106 110 148
209 214 213 214 210 214 212 212 210 212 209 208 208 210 207 216 220 196 204 191 197 200 244 241 232 235 221 96 131 143 102 123 154 98 88 94 81 96 108 125 93 119 133 96 87 126 111 107 93
206 207 211 199 209 214 203 213 218 204 208 202 206 211 204 207 190 209 224 222 221 226 230 241 247 230 237 226 224 224 102 104 102 103 110 90 94 194 195 127 158 143 126 125 127 132 196 169 121
205 209 210 210 212 207 185 200 210 207 220 206 205 207 204 208 212 190 190 221 208 229 237 256 199 247 230 234 229 215 217 207 82 155 88 215 166 197 195 184 198 186 189 191 124 125 123 117 116
210 219 207 213 212 213 213 209 213 206 208 219 209 203 206 208 209 213 203 213 212 222 201 255 239 120 250 240 142 211 220 219 197 237 245 221 151 207 151 113 174 193 114 92 109 106 106 128 107
207 206 207 209 210 209 209 175 214 206 208 212 218 219 203 208 211 211 211 164 223 221 215 229 239 232 241 251 235 230 197 227 250 159 204 238 223 129 124 202 123 108 104 104 142 104 189 194 191
206 206 208 212 213 210 209 213 208 201 211 217 218 219 224 213 206 211 210 214 219 220 221 223 236 239 234 235 252 236 98 214 227 245 102 231 234 223 227 228 207 92 94 99 183 107 181 185 181
208 208 210 214 213 213 208 220 125 175 221 225 229 234 233 232 233 227 224 225 226 224 224 224 220 237 246 233 242 243 228 213 213 236 237 229 225 183 176 86 97 206 212 178 165 152 107 182 183
209 210 211 214 217 219 226 238 191 224 182 250 139 241 240 236 232 226 224 218 219 220 220 220 232 237 242 226 230 244 241 232 213 231 229 234 196 229 229 223 224 222 220 199 184 185 187 174 178
215 219 222 228 242 258 210 236 233 87 117 261 166 262 246 232 234 233 229 225 224 220 222 227 230 237 237 232 220 154 125 228 238 266 254 226 228 231 241 233 207 222 219 181 155 205 197 191 184
274 271 265 249 241 241 239 234 87 231 226 150 257 268 200 160 248 228 237 236 229 223 222 238 234 232 232 233 225 216 239 229 241 258 256 241 159 221 231 232 229 223 221 218 212 200 194 199 189
234 230 222 220 225 232 278 329 251 123 177 242 107 119 184 334 251 253 266 261 257 212 243 235 240 232 232 222 180 206 216 235 250 261 258 246 235 218 222 223 225 231 223 222 215 211 193 195 199
212 214 228 269 303 316 340 347 71 353 302 379 386 348 314 300 452 451 250 258 264 255 250 262 247 233 225 220 230 222 236 254 243 254 250 248 240 233 220 227 229 229 227 225 216 210 205 195 198
243 263 256 249 289 284 294 87 317 360 209 108 327 382 368 386 414 249 271 251 242 257 249 263 249 222 217 216 231 222 228 229 251 248 246 243 246 233 224 224 221 236 233 227 218 214 209 208 205

GFSSGP_2pvu_pres_018.txt.gz
Presure
101 138 90 103 103 149 159 89 123 83 89 106 144 114 158 166 122 143 155 139 132 135 137 134 140 129 136 133 135 140 118 133 135 135 134 136 137 136 134 132 142 139 138 130 145 104 99 147 123
126 157 157 139 91 126 136 141 147 111 125 90 108 163 112 158 143 140 131 147 145 126 134 129 132 131 112 132 134 134 116 136 139 139 134 130 134 142 133 137 136 127 144 144 141 140 142 137 146
132 151 148 147 152 137 158 104 145 135 172 138 127 166 158 109 154 156 139 158 131 139 168 90 120 130 156 136 149 115 126 136 135 137 143 137 136 133 140 133 138 139 81 126 87 142 134 139 120
161 88 148 96 91 157 114 134 122 112 161 81 175 97 146 167 150 155 169 160 165 106 161 96 123 126 142 146 141 139 142 89 149 141 143 141 141 140 142 144 149 141 84 145 128 131 144 138 142
172 164 133 129 144 90 98 98 100 117 162 137 132 175 165 125 97 155 155 121 164 102 153 121 130 145 154 125 111 104 90 94 145 138 145 156 130 131 128 132 99 155 144 136 132 148 149 144 100
169 177 169 135 174 107 151 177 148 147 158 177 160 145 139 141 159 141 159 166 154 147 156 147 174 161 119 149 144 84 138 149 121 170 142 142 145 124 127 153 129 147 144 141 146 152 155 128 83
178 154 161 172 171 111 167 100 162 150 170 170 152 161 163 159 167 172 139 159 112 159 149 110 99 123 97 134 99 115 142 104 150 113 94 173 122 160 145 155 148 123 135 128 118 154 134 85 89
146 178 167 145 163 174 130 177 172 171 149 160 154 90 173 132 155 162 168 160 176 153 159 112 163 158 97 97 106 96 101 111 139 131 106 171 118 139 140 136 165 154 108 96 124 101 98 99 96
179 173 166 165 166 165 170 168 169 149 142 167 161 173 167 152 154 168 167 156 167 160 162 152 172 165 104 138 114 100 160 144 119 140 155 101 168 149 107 100 148 107 116 92 85 87 82 87 124
175 174 166 168 165 175 165 146 152 135 170 172 170 170 178 165 174 169 118 174 142 173 138 167 170 140 104 122 168 106 173 146 115 106 112 192 162 112 103 137 132 93 88 89 86 86 86 91 91
168 170 169 176 170 177 176 177 174 169 177 172 164 177 169 171 170 169 131 90 181 167 174 172 171 165 186 202 106 125 114 105 105 118 91 136 142 136 168 154 97 86 88 86 86 88 84 90 83
189 179 170 168 175 159 184 170 170 173 124 167 176 173 175 173 178 170 179 174 185 121 181 187 179 205 236 100 247 145 168 103 101 95 97 118 104 108 215 229 88 86 91 91 90 88 84 90 87
184 184 182 177 187 188 175 171 169 147 172 164 166 99 173 166 177 171 175 173 150 168 194 97 239 230 178 230 148 90 221 95 93 91 90 107 100 109 108 91 94 95 89 92 90 160 88 107 107
186 189 181 182 190 184 174 183 166 185 198 170 169 170 168 122 175 182 179 154 223 207 193 127 153 211 231 227 219 209 100 101 96 102 94 108 106 106 98 84 87 87 87 87 116 129 86 94 110
196 196 190 182 182 194 191 179 195 200 207 195 178 143 136 176 232 203 192 232 232 193 224 189 185 90 200 207 195 111 105 116 196 193 87 180 159 199 92 91 98 90 92 98 101 93 116 177 220
200 197 204 205 207 206 214 209 203 210 208 204 208 222 227 211 223 229 238 222 239 232 158 185 197 201 193 191 119 196 95 107 134 138 102 119 95 94 100 98 93 87 87 100 93 99 126 232 235
197 196 201 202 205 204 207 211 205 199 202 209 219 219 217 221 218 226 216 216 220 214 205 127 218 199 183 174 188 192 182 181 140 148 173 100 96 99 87 80 88 100 93 97 96 154 95 124 214
204 207 203 200 197 196 202 208 210 212 211 207 207 209 209 209 210 213 215 217 182 219 222 212 188 205 187 199 186 94 213 187 228 217 206 99 92 97 97 89 88 87 92 95 98 104 116 113 117
224 210 201 203 205 204 207 214 216 220 213 213 76 121 212 213 211 210 210 212 215 223 125 225 226 196 224 93 205 232 260 243 235 223 207 217 106 77 100 174 92 81 95 100 196 200 195 123 200
223 219 221 221 220 220 208 207 209 214 216 216 214 210 210 208 210 212 211 205 209 217 218 210 215 218 230 226 224 266 251 245 137 102 171 222 102 102 243 204 90 108 101 135 191 193 129 163 197
225 236 227 221 217 214 211 205 206 209 208 206 205 213 215 199 216 224 216 204 205 210 211 220 184 185 199 208 212 138 148 161 238 228 232 181 155 146 99 154 134 102 178 228 215 193 198 161 180
249 237 240 227 230 215 219 210 205 206 205 208 211 208 212 190 198 211 213 221 220 207 212 214 214 210 228 198 225 213 234 232 235 134 241 227 220 205 216 173 172 245 245 235 232 139 215 199 109
257 260 242 227 223 219 214 209 203 206 209 200 210 212 218 220 220 219 214 213 220 229 213 210 213 217 225 165 221 220 227 226 242 231 261 234 226 208 223 247 238 231 240 96 226 219 97 224 170
257 258 245 235 222 219 213 212 116 102 139 202 214 220 220 220 222 227 224 219 220 219 227 221 208 206 212 213 222 226 232 225 236 240 232 250 91 92 208 226 238 238 134 231 234 219 95 188 228
252 252 249 234 219 218 148 214 201 118 92 176 223 225 227 226 217 224 223 225 228 230 226 222 222 216 209 214 224 222 226 222 231 244 229 235 238 238 218 207 216 180 97 237 224 235 225 226 227
244 234 240 234 221 209 209 214 136 179 96 138 233 233 177 234 230 242 236 234 232 236 236 234 227 225 225 224 223 221 216 217 230 239 230 227 242 238 239 222 217 252 234 232 242 241 236 226 226
237 236 227 223 222 214 215 216 98 94 210 102 117 252 131 150 275 284 285 260 251 244 240 239 238 225 225 224 219 215 223 223 231 230 232 235 218 240 239 269 266 263 248 239 226 229 230 243 226
226 222 219 214 210 212 218 233 261 243 259 261 277 202 146 303 330 290 272 274 231 269 258 252 243 228 225 220 215 219 222 221 228 234 221 226 236 180 238 235 266 268 257 242 234 227 226 228 220
213 213 241 245 236 237 236 274 291 330 313 200 310 316 358 125 104 310 365 309 300 263 266 245 234 230 214 224 216 223 223 223 230 233 224 216 196 235 230 251 258 251 259 254 240 230 226 216 229
238 232 226 224 255 257 262 272 267 288 97 300 299 310 341 350 352 366 376 416 404 407 257 255 254 246 235 233 226 226 220 229 234 227 219 222 223 232 259 252 245 245 244 254 244 237 231 228 223

GFSSGP_2pvu_pres_021.txt.gz
Presure
139 104 133 142 134 149 153 140 106 86 98 144 116 96 152 121 117 105 143 141 130 125 141 133 132 118 129 124 133 136 137 139 146 144 141 137 137 138 134 137 137 140 142 138 140 136 140 137 141
157 134 122 96 102 144 146 150 126 150 133 115 131 142 142 108 148 135 166 141 148 153 147 133 132 141 131 122 134 140 132 142 126 139 137 125 135 141 135 138 140 139 119 129 146 124 142 148 145
167 90 159 128 91 94 101 140 155 93 95 95 90 90 104 146 172 122 152 119 133 141 140 158 137 128 98 158 135 144 115 136 127 126 134 138 141 140 143 123 136 142 131 133 144 144 133 90 136
78 141 150 143 100 132 157 134 141 111 154 165 80 147 124 124 127 141 160 137 123 164 135 169 138 144 122 132 98 142 167 151 97 134 142 148 132 135 111 145 131 133 159 148 84 89 143 141 123
177 177 158 150 169 117 142 159 160 146 104 110 165 149 131 139 174 131 131 166 161 129 153 147 172 131 114 140 157 130 141 165 149 145 90 143 137 125 143 141 144 139 132 125 101 146 154 145 144
173 180 133 167 142 166 157 127 116 131 149 149 158 154 158 75 145 166 97 134 144 165 148 160 163 147 130 122 154 125 144 128 142 116 96 147 135 145 144 150 148 123 130 130 132 157 141 144 133
176 174 172 174 169 92 138 95 150 135 91 117 117 94 110 168 133 169 140 164 176 129 159 156 170 131 154 171 171 155 128 137 91 89 147 134 129 114 148 145 153 160 133 149 147 119 157 160 134
188 178 174 170 174 100 89 171 160 151 137 102 156 158 176 130 128 164 163 158 127 169 135 168 135 157 155 165 154 170 164 131 124 125 115 121 107 175 122 129 115 128 176 132 117 140 133 149 128
177 182 175 167 173 167 184 173 179 173 140 180 125 104 178 138 113 169 146 164 134 151 168 164 170 139 151 162 160 117 104 101 102 134 98 106 136 132 167 133 123 157 171 152 157 101 92 98 78
169 168 179 184 179 178 141 141 167 174 174 106 163 177 177 174 163 157 169 162 167 165 157 155 161 164 160 154 107 159 170 127 95 102 117 174 164 123 145 100 151 177 102 106 156 86 87 88 86
176 172 169 188 172 175 164 174 178 150 169 173 172 171 170 173 175 164 166 168 172 173 169 154 156 166 170 160 165 164 168 101 99 97 166 167 138 175 114 134 171 173 102 167 89 83 80 89 87
177 176 180 186 188 186 174 176 174 179 177 98 153 168 172 166 164 144 154 175 175 172 164 163 176 176 167 183 189 177 114 105 143 97 181 256 106 104 100 97 210 171 102 153 115 87 82 86 91
177 182 186 170 187 180 180 176 174 183 171 169 161 172 161 176 161 153 171 182 173 167 178 163 174 177 159 179 172 166 164 189 120 98 238 109 105 110 94 229 112 103 109 167 87 90 95 93 90
200 180 188 179 172 195 182 187 172 174 172 171 175 176 180 180 173 175 177 144 168 180 179 181 172 174 172 174 177 185 199 236 198 239 147 212 107 105 84 191 103 88 210 98 93 92 88 84 89
205 193 190 185 193 174 179 188 71 182 180 163 164 163 168 169 170 161 164 175 187 182 171 179 175 90 174 221 174 228 235 188 222 216 102 198 97 85 98 82 100 101 121 107 90 88 81 85 85
196 204 194 186 187 190 188 180 187 190 185 183 176 173 177 177 191 177 177 188 223 207 171 177 179 186 216 223 224 189 235 182 192 218 204 99 104 98 106 92 111 104 115 95 95 96 89 93 97
203 203 204 207 197 188 188 139 187 190 188 187 195 178 178 193 185 188 209 214 209 208 229 236 228 227 227 223 202 223 212 141 192 209 105 145 145 108 99 98 106 116 102 136 96 92 87 84 97
213 210 203 203 201 203 203 198 199 199 195 204 210 208 203 203 207 209 211 213 217 224 225 227 226 223 225 233 242 212 207 181 202 176 186 118 172 105 109 185 132 107 97 95 80 74 83 95 85
225 199 212 209 207 208 203 209 205 206 204 204 206 211 210 203 205 210 213 218 222 215 221 220 219 214 216 217 210 135 222 200 182 193 185 203 171 248 226 111 175 104 88 91 100 77 92 98 96
238 223 234 224 213 213 207 206 204 204 201 202 205 204 197 202 209 215 218 211 221 215 220 221 219 217 214 215 226 222 185 224 180 220 211 233 227 247 250 234 233 229 137 198 144 103 106 132 100
242 229 228 228 226 213 206 206 205 202 203 204 198 203 206 206 217 212 217 216 214 209 212 214 215 215 215 212 213 212 223 217 219 212 203 213 219 221 237 247 220 237 232 224 102 98 96 100 104
239 237 233 248 243 240 231 218 209 206 205 204 204 207 211 224 202 208 217 214 220 215 216 217 212 212 230 224 206 207 208 213 227 191 196 184 196 230 246 238 243 245 229 229 190 189 214 136 235
230 241 237 254 256 262 239 244 223 223 215 215 219 218 219 218 222 215 215 216 221 209 217 219 217 201 211 217 217 221 213 173 212 175 209 162 215 214 213 255 232 263 245 235 224 212 222 232 234
233 230 236 242 245 258 245 254 230 211 223 183 185 226 217 218 222 215 216 218 222 224 221 215 215 220 221 212 208 214 225 218 214 214 219 218 183 229 217 242 246 237 244 248 234 219 208 222 238
234 244 250 249 253 275 296 287 255 142 144 157 151 219 170 224 222 218 221 225 226 222 220 220 221 217 220 216 219 210 213 220 227 225 201 200 221 229 225 227 244 241 233 249 242 183 168 230 192
247 252 260 264 295 269 262 238 95 215 237 76 221 223 225 226 132 228 224 221 220 220 222 226 232 228 224 223 215 205 207 213 211 223 215 190 219 224 219 227 243 240 227 225 247 232 234 269 271
279 292 274 255 250 246 236 235 235 232 239 237 239 217 150 214 142 234 231 228 229 235 232 231 231 237 233 227 218 217 213 213 215 216 223 217 219 216 220 222 241 231 227 223 221 225 259 265 270
259 249 233 240 237 236 234 232 224 233 122 96 238 186 248 195 253 187 214 253 247 265 267 187 154 243 239 239 233 226 223 222 223 212 222 218 217 215 221 217 236 230 231 226 223 192 259 260 250
244 239 233 231 230 228 227 218 223 221 224 230 222 286 319 333 304 217 208 250 281 129 281 321 367 284 274 261 253 240 235 231 227 181 211 205 213 220 213 221 232 242 221 222 212 226 253 247 246
230 224 219 217 214 218 222 250 248 248 254 311 94 284 281 81 94 101 113 327 125 131 132 378 429 394 247 264 274 264 258 248 241 222 216 216 217 219 216 234 227 232 217 230 220 225 250 244 242

GFSSGP_2pvu_pres_024.txt.gz
Presure
147 140 154 141 133 155 88 145 135 144 136 121 101 151 118 150 134 142 148 150 154 134 126 123 132 127 138 121 137 106 128 148 148 117 120 116 149 132 149 134 140 134 145 144 133 141 136 129 143
154 111 145 152 148 145 135 149 90 109 99 144 128 131 131 153 168 117 136 147 159 145 151 139 136 135 129 146 129 129 125 135 134 136 138 141 138 155 139 142 144 139 141 134 143 120 117 131 143
166 135 89 148 71 142 149 137 133 158 128 74 99 109 144 103 166 114 119 126 123 158 143 139 138 141 133 128 134 129 129 126 111 135 141 137 145 115 151 135 138 136 112 140 137 138 144 136 141
151 169 162 155 136 155 166 146 133 142 163 150 157 81 72 82 124 145 143 144 112 110 125 116 156 140 153 150 134 140 96 140 146 97 126 131 136 102 132 132 132 135 134 125 146 92 133 140 148
172 153 163 162 161 163 158 102 96 100 132 160 104 98 90 90 93 94 125 139 147 142 154 145 153 130 136 159 128 117 137 137 127 131 123 149 131 140 134 147 145 145 146 142 123 149 147 147 131
172 160 169 156 173 115 121 164 92 99 135 150 155 146 128 137 91 79 111 96 150 153 150 133 145 142 158 113 123 143 121 130 140 148 148 149 145 160 161 152 135 141 146 146 150 139 103 122 144
194 188 167 145 162 188 187 90 166 160 158 138 159 158 131 152 148 135 132 137 133 122 134 165 129 136 155 140 165 144 146 140 132 145 125 118 158 144 105 150 153 142 130 145 139 142 145 159 149
178 189 186 162 154 157 187 195 184 185 180 136 144 140 163 165 153 152 149 160 146 98 128 104 168 132 171 146 168 151 158 178 159 159 169 121 134 95 140 163 128 142 184 140 128 138 132 131 129
172 169 185 178 178 182 186 154 184 170 152 145 174 134 132 147 139 101 128 164 168 134 164 133 168 120 126 181 153 117 126 168 152 164 163 168 95 96 175 114 135 153 163 124 115 125 145 185 141
168 160 172 182 181 179 179 175 178 180 175 111 107 94 134 146 160 120 153 154 163 155 169 133 120 152 174 163 130 164 171 152 153 140 168 163 111 157 146 104 137 163 163 134 135 172 166 182 98
170 157 168 175 164 184 186 188 175 154 120 183 177 74 172 170 157 100 148 171 156 156 178 164 92 169 160 166 166 155 169 111 172 160 106 121 102 103 164 186 135 186 180 103 169 186 104 173 104
191 169 162 165 181 170 161 179 189 175 122 178 181 174 177 178 174 177 170 185 178 164 160 176 159 165 175 171 166 174 170 176 160 161 99 174 142 101 101 168 181 182 165 149 183 176 121 180 87
195 198 178 177 178 164 166 165 172 179 183 161 182 178 176 176 164 176 177 177 166 175 164 174 177 179 153 164 178 175 178 172 164 174 179 175 156 95 183 168 168 128 108 198 158 240 103 139 179
205 204 181 175 185 177 178 172 169 168 176 181 186 174 151 171 176 175 167 179 159 164 147 174 179 165 149 182 180 165 173 118 175 178 176 179 133 179 98 221 131 118 230 104 138 231 108 102 90
213 205 200 188 191 177 178 182 176 181 178 175 188 189 189 173 170 180 182 178 175 162 171 159 182 179 163 179 184 175 177 191 183 184 179 164 186 188 231 225 164 106 102 88 108 209 109 111 115
194 208 199 193 201 194 189 176 180 177 176 184 171 185 182 183 174 176 181 183 173 174 174 182 115 170 176 176 168 175 188 100 215 173 182 200 229 238 234 194 105 220 95 99 104 106 102 109 140
217 212 206 206 202 187 195 140 187 181 177 180 185 175 176 184 183 188 181 180 183 180 169 168 170 178 171 171 174 179 213 228 225 230 223 229 224 212 220 202 116 165 103 95 125 98 112 106 196
207 172 215 213 209 214 203 200 201 204 199 193 194 180 191 189 182 183 190 192 191 182 186 192 195 177 220 196 215 216 218 214 219 215 224 223 217 234 225 221 187 107 107 227 103 177 96 107 101
207 203 169 212 211 205 207 204 185 198 199 187 197 196 180 181 182 187 192 189 190 190 212 215 213 213 216 206 208 211 204 203 202 199 213 211 224 227 217 215 228 199 102 104 104 106 217 219 233
206 196 204 168 206 205 204 201 199 202 199 199 194 195 197 197 198 201 206 208 208 208 214 215 213 202 208 224 218 222 215 222 224 225 219 215 216 215 215 215 211 191 231 209 221 218 250 145 111
210 214 234 208 200 190 201 200 207 205 206 205 203 203 202 201 202 204 205 205 205 208 211 217 210 205 210 214 221 219 219 214 209 210 206 214 214 216 217 213 216 220 213 100 198 228 243 247 234
240 237 217 219 239 219 212 196 199 199 198 204 207 207 203 206 210 210 209 209 208 211 208 212 213 211 215 215 216 202 209 211 199 194 201 193 207 207 202 201 202 213 198 201 222 200 251 243 251
241 247 234 237 242 224 218 239 213 222 208 203 206 210 210 208 209 211 209 207 153 206 150 211 212 217 232 203 217 213 211 211 212 197 204 204 204 204 212 210 207 175 224 205 170 230 224 259 235
214 232 234 226 233 236 239 245 210 203 223 225 233 229 218 214 212 211 212 215 218 218 219 221 226 226 225 223 216 216 213 206 219 215 194 202 199 206 210 216 217 215 224 213 217 228 234 249 247
227 227 229 236 225 226 227 236 94 229 224 240 240 257 255 254 255 242 239 238 240 242 238 233 230 231 224 226 217 217 218 217 216 215 210 208 207 203 203 207 218 225 222 202 210 226 221 237 245
231 233 236 238 237 234 151 231 61 230 111 219 100 110 288 262 253 245 249 253 258 247 248 247 235 234 235 230 219 217 218 220 217 212 215 202 209 211 212 204 222 221 210 219 208 219 223 222 241
259 262 233 238 239 237 235 230 62 239 101 269 258 168 181 264 264 209 255 260 244 257 252 247 175 235 236 233 165 228 214 111 214 215 215 212 203 210 206 204 210 213 221 213 219 217 223 213 230
267 261 261 261 253 239 237 237 258 280 269 90 253 250 245 242 242 244 247 251 252 121 111 179 219 157 243 245 245 245 234 209 220 217 213 214 216 210 205 211 205 216 220 219 215 214 221 221 231
249 249 243 249 248 269 273 254 248 238 238 237 239 241 176 116 197 277 231 239 139 264 250 253 120 258 254 253 242 253 247 243 228 220 215 212 206 209 212 213 213 219 213 203 212 220 217 235 222
259 267 273 266 260 250 236 232 228 230 247 249 224 249 252 259 82 180 311 89 95 309 305 290 302 331 138 136 327 321 307 265 257 243 239 220 211 209 215 214 219 217 220 217 207 215 237 226 226

GFSSGP_2pvu_pres_027.txt.gz
Presure
143 144 146 105 142 145 129 136 145 87 104 124 134 139 112 131 100 94 134 140 153 148 127 124 133 126 141 132 145 133 134 150 150 148 145 155 147 146 147 149 130 134 128 133 136 136 136 157 145
133 140 135 145 109 129 108 144 138 143 92 104 139 140 121 136 150 130 149 108 137 145 140 136 139 141 125 133 124 125 143 136 104 141 133 139 147 154 150 148 144 144 147 153 143 147 161 153 150
158 156 78 167 150 106 132 141 84 107 129 143 120 128 134 121 100 144 142 129 147 109 119 149 144 147 138 127 130 130 130 131 138 131 127 133 138 114 125 145 157 150 149 144 149 140 139 138 116
94 157 139 170 76 86 151 147 138 109 129 123 122 101 105 143 140 123 122 142 147 140 124 135 104 152 149 143 153 143 149 138 134 130 136 129 130 128 131 134 105 131 142 143 152 147 125 120 139
169 159 156 149 143 138 96 144 152 140 94 140 139 127 90 138 126 95 91 122 163 102 99 154 120 126 114 117 125 141 146 140 128 125 130 141 118 116 131 141 129 119 140 145 146 150 148 143 142
178 174 160 149 145 159 159 131 140 151 146 145 146 151 159 133 112 108 97 84 87 129 159 130 144 149 138 139 147 141 148 123 138 144 94 145 145 148 149 150 146 144 167 148 153 160 151 149 143
166 164 150 150 165 159 105 158 123 140 136 110 142 136 150 142 143 159 156 159 90 90 122 154 160 134 137 158 142 151 148 154 170 113 143 137 137 148 150 122 142 143 132 147 150 148 135 131 140
189 179 176 157 170 174 183 169 172 166 126 91 131 131 126 102 103 102 98 96 95 155 108 135 149 138 119 123 149 133 146 134 133 157 159 162 165 142 143 115 144 158 154 151 125 122 125 135 136
183 165 171 177 178 185 182 179 176 179 160 161 159 108 115 157 139 131 142 160 145 141 165 146 170 117 153 133 146 132 176 126 150 148 163 167 158 153 127 165 168 104 106 170 168 172 125 153 173
177 171 167 163 180 181 195 184 179 160 143 163 126 110 142 169 161 155 138 131 175 174 167 151 156 160 134 160 112 137 142 114 174 162 177 138 131 168 153 139 139 97 114 129 162 168 176 175 175
187 176 176 164 169 181 189 189 199 183 177 158 151 149 178 190 143 176 185 173 179 148 106 104 119 151 163 102 169 153 166 117 148 170 142 168 174 175 168 159 165 99 108 166 127 165 173 173 127
187 193 182 176 162 171 181 178 178 190 175 172 88 120 184 178 181 73 173 164 165 97 108 93 120 159 152 153 153 168 138 180 159 180 175 161 167 172 167 177 175 170 103 134 181 181 118 190 185
207 190 189 186 181 169 175 158 170 170 180 195 180 177 170 168 176 178 128 145 165 162 116 165 167 161 154 171 185 175 164 167 179 174 167 179 185 169 174 190 166 149 126 102 175 179 189 183 217
218 194 185 185 187 183 175 171 169 166 171 160 179 177 179 82 170 169 173 178 180 177 178 174 177 170 184 172 178 182 172 179 182 182 181 186 171 169 180 191 116 183 188 135 120 182 162 116 104
157 209 193 191 177 180 186 171 164 165 170 171 165 178 155 165 183 186 181 172 174 176 173 176 179 169 166 164 179 174 183 173 175 183 183 168 101 199 187 179 170 194 185 136 135 112 238 214 112
208 152 199 199 199 190 187 178 185 182 172 162 159 158 161 158 158 166 172 175 180 182 176 170 175 172 176 180 184 185 175 166 182 178 191 109 193 186 171 182 252 254 183 177 226 134 242 200 118
148 189 219 199 221 211 203 191 194 193 186 175 172 177 180 180 172 169 171 176 177 182 183 186 185 171 172 178 126 180 178 181 188 189 176 183 173 179 209 229 234 199 225 232 239 114 221 143 194
184 178 160 197 200 214 211 180 206 209 204 193 176 176 181 179 174 177 181 176 178 177 184 180 182 187 193 190 186 177 179 180 182 173 182 210 193 215 221 219 217 220 225 223 223 205 202 202 141
225 158 165 214 182 151 188 209 197 205 200 200 197 194 183 183 187 189 179 181 187 185 193 198 186 197 188 187 189 190 194 194 184 202 214 212 213 206 205 203 204 204 207 206 209 220 218 235 209
202 182 163 199 212 216 208 207 198 192 204 200 194 195 182 182 185 198 201 199 199 199 201 198 201 188 187 191 199 201 199 203 215 206 200 217 218 224 224 224 221 218 218 219 221 128 218 215 218
212 207 196 199 209 181 187 212 209 207 206 206 204 207 208 206 202 195 207 207 195 199 197 198 201 204 205 205 210 211 210 208 210 210 200 205 217 208 205 206 215 212 215 216 207 214 221 207 217
200 197 205 184 205 180 173 178 190 182 182 203 210 207 205 205 210 206 200 199 201 201 201 205 204 205 209 212 211 206 203 201 207 211 200 200 205 212 211 191 195 198 200 198 204 204 202 214 211
213 251 214 236 231 218 208 208 197 193 202 180 201 208 206 206 206 206 209 213 212 211 211 212 212 209 206 212 222 221 214 202 205 205 208 207 215 209 210 205 202 204 198 204 203 213 215 215 224
231 227 238 210 202 201 204 183 216 194 226 200 199 194 199 197 198 202 175 208 212 212 211 211 212 215 217 167 214 221 223 216 214 215 214 216 221 203 199 199 196 210 211 206 202 207 213 211 212
235 232 228 228 239 223 231 236 224 130 211 231 231 225 230 226 163 218 219 207 209 216 217 219 223 222 222 219 214 217 217 215 217 221 201 214 208 201 214 212 212 213 215 203 207 188 209 215 207
229 236 230 229 224 232 213 134 88 216 231 234 219 234 241 244 244 244 243 243 246 250 256 258 260 259 255 253 244 244 241 235 230 228 232 227 222 220 210 202 215 212 213 210 205 212 206 213 206
240 221 233 227 220 232 232 221 227 233 236 229 226 229 232 233 236 241 247 248 261 263 266 298 295 286 267 128 250 247 233 248 253 243 240 242 232 223 227 211 207 210 194 194 199 210 205 208 210
237 234 228 224 227 229 221 227 232 238 244 246 245 244 202 168 241 175 284 273 267 265 264 202 252 270 271 274 275 274 271 267 264 255 244 240 224 225 222 221 205 199 202 203 210 210 213 207 211
255 249 249 242 235 229 232 238 264 251 239 255 258 213 94 267 262 255 254 254 166 250 253 125 265 112 157 121 167 261 261 260 259 255 250 241 233 225 221 225 220 206 206 209 206 210 204 211 211
249 244 247 249 254 251 244 250 261 248 239 263 261 257 249 245 242 98 138 96 226 88 247 107 312 288 246 281 283 269 126 133 266 243 239 243 235 229 233 226 215 213 207 204 210 203 205 207 207

GFSSGP_2pvu_pres_030.txt.gz
Presure
147 152 143 123 123 134 126 137 143 130 145 96 142 128 124 107 111 109 114 133 149 137 157 121 132 126 128 130 135 148 141 142 141 142 141 145 149 150 147 148 148 149 150 152 159 158 156 141 155
136 135 161 133 138 108 144 142 132 82 135 112 120 136 139 127 117 113 117 121 102 142 121 143 155 128 135 128 124 129 126 137 134 145 142 111 136 123 135 138 136 152 136 134 135 147 155 148 155
135 168 151 128 90 95 135 143 140 133 134 102 103 115 130 128 137 125 130 123 142 126 112 126 141 149 151 151 138 135 138 130 130 124 129 122 115 141 152 146 124 133 134 133 131 148 152 149 135
155 161 138 139 145 122 96 89 143 147 139 127 133 141 114 116 133 138 133 123 131 128 148 131 138 105 109 107 124 147 144 145 135 137 142 105 134 149 132 133 137 97 135 130 134 153 122 159 161
177 160 142 136 154 142 146 97 158 149 130 143 141 141 137 142 117 134 134 139 118 137 127 127 150 121 152 135 140 114 141 145 150 149 151 150 143 145 107 131 111 142 125 134 99 138 138 136 134
159 172 156 154 134 146 150 134 129 141 147 149 138 116 142 140 116 130 121 126 125 141 137 142 99 119 108 136 157 145 109 143 127 148 152 146 144 95 114 124 150 136 159 155 148 150 143 103 136
168 159 162 162 143 152 164 137 143 97 76 165 150 144 141 134 159 121 127 131 125 84 94 96 108 95 133 133 128 143 144 119 143 145 141 142 152 150 108 163 154 139 148 147 145 146 155 157 157
185 176 155 172 164 163 149 152 145 141 145 148 126 114 141 145 151 143 140 149 144 155 135 135 160 90 91 156 135 125 149 145 127 133 133 129 140 148 132 123 143 161 167 147 163 163 152 156 158
170 187 172 164 173 174 170 169 160 150 134 165 140 141 145 121 146 141 147 146 156 144 152 141 138 119 147 147 153 152 142 149 161 153 150 150 135 126 135 162 153 160 138 166 158 137 169 157 173
191 168 179 169 170 179 179 161 162 163 163 155 155 155 153 134 95 93 139 107 100 101 101 103 104 102 148 152 153 152 100 163 161 155 154 136 138 152 147 133 172 178 181 166 157 162 173 168 160
181 178 168 178 179 181 170 166 160 167 166 159 160 166 165 169 161 165 163 144 159 158 164 165 155 131 140 150 149 152 155 167 127 164 155 167 166 158 141 155 175 150 174 181 180 167 153 180 111
183 171 177 181 181 193 185 168 161 165 164 169 160 168 169 173 96 168 179 98 168 165 167 173 187 186 181 184 141 176 174 171 171 129 147 166 167 172 172 155 181 169 181 185 179 173 179 180 129
163 191 177 176 178 181 181 126 141 170 176 181 180 177 183 180 169 166 160 123 154 139 148 169 184 187 186 184 152 151 155 167 155 153 158 171 163 183 172 183 175 171 182 187 178 187 96 97 103
171 157 195 186 180 177 183 179 167 174 171 165 172 180 182 182 185 183 180 180 173 161 165 170 181 168 178 185 184 160 160 174 164 172 176 172 191 181 85 191 184 187 189 186 195 180 152 200 190
153 168 217 203 190 187 186 182 178 70 180 169 166 169 176 178 177 174 182 190 191 186 181 176 179 172 102 177 179 183 189 181 186 180 186 172 175 175 177 183 168 177 179 175 196 194 244 193 174
176 159 168 203 210 197 199 188 186 187 184 182 160 66 167 175 166 132 168 176 184 192 151 177 183 187 190 185 175 174 180 181 177 181 182 184 179 182 189 195 197 188 198 196 185 189 217 237 231
188 157 203 155 222 216 212 205 202 191 189 192 181 172 162 165 167 169 166 174 174 163 175 159 163 169 173 177 178 176 178 180 181 187 190 186 187 185 190 197 184 189 205 198 225 216 220 218 215
194 193 167 179 160 152 162 218 216 213 187 190 187 185 181 183 169 163 161 163 163 163 161 163 173 159 162 168 168 177 178 183 188 183 184 181 189 186 184 191 192 198 195 220 232 225 228 214 222
189 197 182 148 216 183 162 211 209 215 204 189 191 181 179 177 178 178 180 185 172 175 179 181 183 181 182 180 184 184 180 177 173 193 200 184 191 192 187 195 203 222 239 232 223 222 215 213 212
206 199 200 179 158 149 143 140 210 199 210 202 201 200 199 193 191 192 197 199 198 189 190 181 182 191 189 189 196 195 209 204 209 194 195 196 192 201 208 212 211 206 204 206 204 205 209 214 214
232 196 215 206 192 208 207 156 150 191 218 187 191 215 213 212 209 212 213 206 202 203 196 195 200 204 196 189 204 202 195 208 193 199 202 203 207 202 208 210 202 201 214 203 176 207 215 211 208
224 209 204 196 193 198 212 190 205 174 168 217 203 207 204 207 215 206 203 210 208 205 204 203 202 202 209 214 205 204 202 199 201 203 206 206 209 201 204 215 206 199 202 209 206 206 219 214 213
240 218 191 195 192 199 193 201 200 191 160 212 210 210 217 210 212 215 213 213 215 214 211 211 213 211 208 96 215 211 206 211 213 207 202 210 209 208 203 200 211 212 196 203 204 212 214 207 203
248 228 227 219 205 189 208 218 210 192 186 190 208 179 191 114 173 201 209 192 208 213 205 209 211 202 199 201 205 208 210 208 205 208 213 215 213 211 212 214 200 198 202 197 199 195 207 208 212
246 244 227 215 209 187 190 179 137 135 187 206 205 199 207 205 205 204 198 200 202 206 205 206 206 203 203 204 208 216 218 215 215 211 211 214 218 211 208 208 205 203 209 218 219 219 201 195 204
245 244 247 243 215 210 206 200 198 198 224 201 216 212 201 204 206 182 206 219 220 229 230 225 216 215 224 237 243 242 247 252 243 225 250 249 245 249 243 226 217 220 222 217 211 216 220 209 206
251 242 237 238 238 245 238 236 238 239 238 236 209 206 220 209 242 192 247 207 238 238 246 243 245 247 247 247 247 248 253 253 253 251 248 248 246 245 247 246 249 249 242 240 245 231 230 213 220
236 233 234 252 231 227 243 233 236 128 201 231 232 227 238 219 214 242 243 247 169 177 241 244 256 255 211 277 184 291 289 284 287 287 291 289 275 254 181 244 240 235 240 243 227 234 215 212 206
241 230 228 236 232 223 227 232 233 239 229 229 225 229 240 237 245 267 251 263 270 270 281 151 146 206 258 262 228 261 210 111 256 261 265 244 174 267 258 253 252 249 246 243 239 232 224 215 209
245 241 242 238 237 235 245 242 237 232 238 232 231 241 238 265 246 267 222 111 258 244 238 259 90 264 240 282 173 280 279 278 272 271 137 231 240 213 242 243 242 242 240 238 234 230 223 213 206

GFSSGP_2pvu_pres_033.txt.gz
Presure
134 149 142 144 140 149 126 134 132 99 114 120 126 129 129 143 110 110 130 146 149 148 147 138 124 123 118 125 131 138 145 146 139 131 148 146 155 114 148 150 156 95 148 149 151 153 155 157 153
166 142 151 133 127 139 149 131 132 133 107 112 128 140 128 141 133 118 141 106 143 133 81 126 145 145 154 142 125 127 129 130 127 138 131 135 144 135 148 110 139 137 148 142 124 141 135 134 130
144 158 148 148 145 151 129 133 148 84 133 129 129 100 121 101 131 139 133 126 140 145 117 130 118 138 129 131 157 145 143 129 136 134 132 137 138 134 135 132 135 131 133 139 127 127 147 145 145
153 151 141 146 140 156 88 124 147 143 132 134 157 132 87 132 139 132 137 124 100 129 102 128 126 145 134 131 115 153 124 157 139 140 139 143 142 133 139 141 144 146 142 136 132 139 142 129 142
156 148 147 143 146 142 149 90 90 145 139 138 139 146 130 141 127 131 139 130 138 145 101 146 120 124 140 128 130 124 149 128 148 144 122 140 145 123 153 122 124 133 137 149 123 136 136 108 153
170 159 146 144 105 145 141 147 118 149 103 120 141 144 140 138 107 102 96 145 132 138 132 142 109 142 134 141 143 127 150 125 122 152 149 149 142 140 142 147 146 120 161 155 146 139 155 149 159
179 171 158 148 88 145 154 146 125 112 94 147 130 145 147 140 142 140 133 131 105 136 138 134 139 140 119 121 119 114 139 137 132 134 140 133 156 152 152 134 157 121 123 140 123 142 144 142 145
180 169 165 161 169 71 107 137 143 157 108 138 145 132 144 149 147 139 143 137 136 147 88 88 94 138 134 132 122 136 98 142 128 145 176 143 143 159 158 147 139 154 165 160 163 142 132 142 150
153 177 172 165 156 175 161 147 147 144 143 94 150 147 134 153 130 146 145 147 143 153 140 156 147 139 115 110 148 146 144 144 112 157 147 153 153 157 150 145 142 154 149 131 131 148 154 155 131
186 178 167 166 167 165 168 165 170 145 139 140 144 135 148 139 113 140 121 133 106 142 144 145 155 149 140 137 157 145 128 124 140 138 135 118 157 151 133 159 157 162 155 161 131 154 154 156 151
134 164 175 170 174 171 170 156 156 163 161 150 142 138 141 140 109 88 136 150 147 140 104 90 139 160 109 142 130 113 144 143 138 139 142 141 153 149 161 152 102 148 178 178 162 160 175 174 173
200 180 156 178 176 173 179 172 169 151 156 162 162 149 156 144 150 144 142 149 127 145 118 99 95 120 141 151 127 142 167 169 168 149 141 190 176 191 186 160 182 170 179 165 157 162 165 186 194
191 190 180 185 179 177 179 177 175 167 166 155 171 170 167 163 163 158 155 161 160 134 96 138 168 124 170 163 115 150 165 163 163 173 190 89 124 171 185 184 180 182 174 165 192 180 191 198 188
182 196 181 195 190 183 182 176 172 166 183 159 169 171 169 167 163 162 158 161 117 160 162 143 177 90 140 90 163 143 153 149 143 154 157 187 188 185 160 187 171 184 192 188 192 193 186 187 192
211 181 184 195 187 190 185 183 178 166 67 72 175 171 164 161 162 160 162 168 173 180 179 173 184 123 180 181 114 182 171 176 175 169 179 177 172 174 179 181 182 183 182 187 180 181 175 184 201
208 189 203 169 193 170 185 183 180 182 174 171 177 181 183 155 163 89 179 181 176 183 181 184 185 182 186 184 184 187 196 189 180 180 185 196 196 193 186 183 183 191 191 192 194 189 194 195 195
195 204 186 176 193 194 158 175 183 178 182 179 173 172 181 178 173 171 170 180 170 173 172 175 179 175 175 173 173 185 183 184 165 165 170 171 171 172 171 176 185 182 184 200 199 192 194 194 211
214 201 213 186 175 129 174 187 179 167 183 178 178 179 177 176 175 177 176 172 178 173 162 167 171 173 173 173 171 177 174 167 164 163 162 164 174 179 181 181 181 199 205 201 196 197 196 206 223
215 186 194 197 223 211 141 195 164 176 197 196 195 195 190 184 181 182 181 178 186 174 173 174 173 171 172 176 171 178 173 179 179 179 184 183 192 185 193 194 196 208 191 193 201 206 204 204 212
220 214 201 187 195 214 227 165 204 185 165 164 210 210 202 198 198 200 197 191 187 190 189 189 188 185 187 185 186 190 194 197 206 194 189 196 203 195 193 209 196 203 199 196 198 207 206 208 209
210 222 210 210 205 190 207 221 217 189 189 153 153 174 192 192 202 208 216 219 211 188 191 186 189 190 194 193 202 206 214 206 204 206 207 202 200 201 212 203 202 197 204 205 203 201 205 206 204
213 211 215 218 209 197 192 188 182 185 207 178 209 196 164 209 222 221 217 221 216 202 200 199 202 210 213 213 214 212 207 205 202 202 203 202 206 212 206 211 202 195 201 200 203 206 206 204 202
248 220 216 219 227 209 205 206 207 186 148 151 150 151 151 150 156 213 176 176 167 218 221 216 216 211 212 216 209 208 206 208 210 210 211 215 214 205 201 205 205 204 201 209 212 203 202 200 192
226 243 220 214 209 213 207 194 210 194 202 198 187 187 214 219 217 150 210 222 223 169 195 126 215 217 212 216 213 217 220 210 208 202 200 202 205 205 201 202 206 213 203 201 195 192 200 202 205
249 242 244 219 213 204 208 208 200 196 200 220 211 186 195 218 212 217 188 189 216 211 212 219 185 189 200 204 203 201 206 208 209 212 212 214 212 210 214 213 210 208 212 210 210 209 203 196 217
253 251 241 239 234 226 233 220 204 224 198 180 206 183 184 208 208 219 217 201 198 204 211 208 207 206 214 213 216 217 214 218 219 220 214 218 213 214 215 218 234 235 233 230 229 230 232 230 236
244 251 254 250 237 235 230 228 222 201 212 209 201 204 187 188 191 191 205 212 208 206 217 219 218 219 209 262 261 255 252 251 250 250 249 248 245 243 236 236 233 234 235 236 227 225 223 225 226
243 243 253 256 247 237 230 231 236 229 216 214 211 210 187 208 211 212 192 206 209 205 186 245 257 250 234 232 240 261 262 188 244 216 284 123 256 242 239 240 244 232 248 251 245 183 235 233 232
261 264 248 250 245 252 250 240 245 240 224 219 130 121 209 219 220 210 243 244 225 247 240 245 279 286 275 214 176 272 275 275 277 184 281 276 274 271 169 229 172 268 270 272 270 257 247 240 239
247 246 250 250 251 240 241 248 247 244 240 94 99 247 246 243 241 242 246 246 246 253 251 284 270 251 97 267 277 278 280 301 303 334 315 306 299 278 268 260 255 248 240 236 235 241 260 250 241

GFSSGP_2pvu_pres_036.txt.gz
Presure
97 97 118 147 132 84 140 126 136 151 125 129 127 134 131 136 113 148 134 141 131 134 140 143 133 116 131 146 147 141 128 128 153 147 154 150 133 144 118 156 149 158 157 101 152 149 153 153 157
160 146 148 113 154 138 129 149 119 122 139 131 135 146 141 126 152 125 111 139 131 141 145 138 121 117 134 133 123 127 132 136 138 136 125 129 141 141 144 132 138 142 126 139 137 127 136 143 142
155 161 145 152 149 136 138 144 139 133 140 142 135 115 128 144 139 127 145 131 108 117 114 98 137 147 127 118 122 132 131 137 146 133 116 134 116 141 138 138 132 140 134 142 144 142 130 146 145
156 153 143 164 147 140 149 132 120 137 139 93 90 130 148 117 124 131 133 137 128 132 134 109 148 140 121 97 110 151 147 133 118 140 118 152 146 147 151 121 138 131 126 107 114 124 151 144 122
169 155 151 159 146 141 158 148 130 118 140 139 131 128 106 136 137 130 124 129 150 133 107 141 135 127 110 145 124 133 143 145 125 117 137 149 142 158 158 146 145 145 142 136 131 133 145 159 158
170 166 154 143 151 150 148 146 143 143 142 147 146 136 130 131 132 125 129 130 130 109 131 137 145 139 132 131 123 141 140 138 109 141 122 141 136 118 115 134 119 126 133 148 156 136 126 115 144
156 168 157 148 150 154 157 137 135 135 142 142 148 125 139 144 125 80 121 81 133 118 143 141 142 138 115 140 118 136 143 138 120 113 126 133 132 120 140 144 164 152 157 149 149 159 149 141 150
177 156 166 158 153 156 149 157 136 143 137 137 144 144 141 143 133 136 138 143 145 144 142 138 134 118 133 138 143 140 129 131 139 135 143 109 143 140 136 152 141 153 153 170 139 150 139 158 108
188 151 158 159 166 164 152 108 156 140 141 147 141 153 124 131 150 133 133 129 134 141 141 142 129 143 141 134 139 127 143 126 113 138 143 141 140 110 149 146 144 150 157 139 156 157 160 164 155
180 168 167 167 166 168 166 150 153 147 141 147 151 121 89 133 115 145 139 149 133 132 146 150 147 143 149 145 142 147 141 100 159 146 137 133 146 147 163 152 141 138 139 146 149 150 148 137 154
186 147 173 167 168 169 175 173 154 145 144 141 139 143 119 108 137 107 155 81 145 111 135 147 140 118 136 156 149 148 146 142 143 151 156 133 105 137 139 116 148 164 136 133 198 160 180 146 182
192 181 151 135 160 183 173 171 171 160 155 150 143 141 143 140 140 154 159 144 149 147 142 140 132 115 140 140 160 142 137 143 132 98 139 146 164 147 150 154 165 167 109 187 190 188 188 187 184
183 170 180 168 184 143 181 176 171 167 166 161 162 147 143 142 142 159 145 88 141 125 141 143 140 146 148 140 147 146 132 107 146 145 165 135 172 154 172 169 154 174 99 107 127 178 178 179 180
204 182 178 186 172 184 61 175 178 175 170 169 155 166 161 158 151 158 152 148 146 146 137 141 145 149 150 109 96 166 127 152 90 165 102 176 175 175 170 96 154 182 151 180 156 189 190 189 182
210 203 188 98 183 170 186 147 62 165 175 173 165 161 162 156 154 164 166 162 163 169 153 155 161 152 159 168 170 159 72 99 176 175 177 193 93 198 194 196 197 188 178 182 186 186 184 173 172
198 216 182 201 191 183 178 182 176 178 177 171 175 164 168 171 165 167 169 169 157 143 170 173 170 169 163 164 119 170 173 179 187 185 189 188 185 180 177 183 183 183 163 169 169 164 165 171 180
196 194 196 189 207 169 182 184 177 155 168 179 175 175 174 175 177 176 177 173 179 176 170 165 164 164 167 169 175 180 185 169 175 180 180 175 174 171 170 171 172 168 165 170 178 186 188 190 193
222 195 190 185 193 183 201 194 191 154 181 187 179 177 174 171 170 170 161 171 175 182 183 182 182 184 185 184 173 179 177 164 160 166 170 166 170 168 168 168 168 167 172 173 198 183 198 197 200
225 219 189 194 216 179 205 202 197 192 132 196 189 186 179 173 177 179 181 176 172 179 178 172 183 189 182 181 179 180 178 180 174 179 181 177 180 189 188 186 191 214 206 206 203 200 194 198 203
221 222 222 188 194 215 187 191 179 199 197 154 167 167 180 189 188 186 186 182 181 183 184 181 179 180 180 182 184 187 187 185 192 193 195 189 186 195 201 207 217 205 201 199 201 196 196 203 201
261 237 221 225 186 211 189 211 178 187 181 194 194 193 180 173 171 185 187 182 181 183 190 189 189 192 190 194 203 210 209 209 199 192 196 203 202 214 215 215 205 201 203 205 206 205 209 211 202
253 254 220 214 221 209 183 199 189 193 182 178 141 193 196 197 191 189 156 165 190 195 193 199 211 215 212 212 203 217 219 219 216 204 201 218 217 211 213 208 208 208 212 214 214 216 208 203 205
256 252 221 214 213 206 187 226 185 182 201 191 185 205 195 169 170 189 177 154 150 155 159 158 212 190 188 222 155 196 217 213 216 222 214 213 214 217 215 217 208 207 204 205 198 210 209 207 202
300 247 251 221 214 212 216 185 223 191 197 207 205 207 220 220 227 225 214 207 203 176 160 205 152 160 218 205 199 222 225 183 220 197 219 190 201 220 214 211 204 208 204 202 198 194 200 202 201
275 273 229 240 234 215 212 214 225 223 147 186 186 188 191 190 153 219 174 152 153 157 144 184 218 218 222 223 201 192 210 207 216 214 174 206 193 203 209 208 212 208 207 209 205 205 206 209 210
275 284 266 231 240 230 218 208 209 212 216 217 212 184 190 191 191 195 215 191 217 199 181 189 189 223 203 220 222 222 218 213 177 212 208 210 206 213 202 215 223 230 237 234 228 234 239 231 230
284 264 260 244 219 233 231 231 228 209 228 226 226 224 227 217 212 217 219 214 198 216 212 181 189 188 222 192 202 218 208 207 222 225 251 259 249 248 246 236 160 224 241 246 245 240 236 197 229
264 260 258 254 226 210 229 220 214 209 204 209 216 219 208 209 211 214 213 203 229 224 204 210 203 206 217 221 219 219 260 255 252 250 261 271 288 287 281 271 264 256 250 242 220 238 188 226 220
268 260 256 252 252 243 235 219 226 216 214 214 210 185 207 209 205 211 222 229 229 213 209 216 215 197 154 244 259 293 279 291 282 279 286 290 291 293 285 277 266 262 259 259 261 257 253 241 237
262 271 255 256 249 248 251 251 239 232 237 221 219 217 140 214 222 222 228 228 222 221 234 230 255 253 256 252 287 276 274 100 293 176 294 321 304 323 320 318 319 293 272 262 253 247 250 252 257

GFSSGP_2pvu_pres_039.txt.gz
Presure
157 150 150 105 134 134 146 138 149 135 118 135 130 138 131 142 129 134 148 132 105 104 100 115 133 122 131 106 141 138 153 139 148 144 138 134 126 125 124 127 126 129 146 137 142 135 103 134 144
136 140 148 138 138 124 124 82 107 129 132 130 134 134 127 132 144 141 135 136 140 117 122 127 140 131 146 141 137 133 124 126 131 134 132 136 137 138 136 136 136 135 107 137 130 140 139 135 134
160 153 161 110 136 137 147 124 101 148 125 126 132 138 131 135 137 132 137 134 143 150 140 145 127 127 134 135 141 141 140 128 125 116 126 133 121 125 142 129 145 145 145 140 145 141 141 145 137
173 149 158 153 147 142 134 114 146 135 139 146 136 121 117 136 140 135 141 128 124 110 114 118 117 117 117 125 148 143 137 138 118 139 128 142 111 134 111 113 125 154 156 160 159 153 154 146 116
171 171 155 149 142 141 151 150 140 135 141 144 130 140 114 126 142 135 127 144 108 145 143 141 130 136 144 147 136 142 134 138 133 131 122 122 129 135 141 142 143 140 124 124 132 141 128 143 128
130 175 160 155 139 149 149 150 148 134 147 136 133 143 132 130 76 147 136 144 130 139 124 109 133 133 129 130 136 129 110 130 132 117 129 137 125 138 117 114 118 136 120 138 144 144 150 152 152
170 156 171 160 144 152 149 140 148 146 149 138 152 128 140 145 147 136 126 139 152 142 131 91 130 102 139 144 134 135 135 129 126 136 148 132 143 122 113 134 144 141 144 146 153 126 150 148 151
135 166 154 176 155 156 158 150 139 143 155 125 141 128 123 134 136 136 96 139 89 82 136 120 133 132 131 125 128 128 133 110 146 136 96 143 147 149 146 143 138 140 139 158 134 151 152 147 145
175 138 162 152 170 160 149 156 150 143 151 140 141 150 112 139 135 132 129 136 136 142 142 131 151 107 139 89 129 142 106 106 143 121 143 146 148 139 97 145 156 140 84 133 142 140 138 153 150
186 165 176 161 153 170 162 156 157 149 134 151 104 144 143 144 139 145 135 150 143 137 145 137 128 130 128 133 124 135 136 119 144 144 148 148 150 142 130 149 142 142 132 112 150 145 154 141 144
159 178 164 137 181 163 169 168 158 149 161 66 149 149 144 89 91 98 140 143 96 142 143 145 149 141 137 139 141 135 147 146 139 137 141 143 150 156 145 139 145 150 115 124 149 152 126 173 178
196 153 193 167 173 181 160 174 164 158 150 152 158 144 150 143 140 144 97 146 147 152 94 139 85 79 147 142 140 134 149 137 141 94 141 138 145 142 159 158 98 141 148 171 170 102 169 170 174
168 180 196 187 179 175 174 168 165 166 159 145 151 156 159 150 149 144 142 145 149 74 141 140 140 150 153 150 83 144 144 122 129 141 146 147 148 94 128 165 121 155 160 171 163 191 196 196 162
193 181 179 186 189 187 181 163 171 162 148 161 157 150 151 153 159 147 155 144 151 143 145 153 140 118 144 102 142 143 106 141 145 145 152 151 109 87 116 173 167 152 183 183 192 149 184 177 180
208 189 180 179 68 190 164 187 135 172 164 156 160 168 166 150 150 151 151 149 151 146 142 142 144 141 144 153 151 151 150 77 170 149 153 84 156 174 172 171 175 177 175 186 185 178 173 171 167
204 210 185 186 187 195 196 176 178 87 147 169 168 162 162 170 171 158 155 157 150 153 141 145 152 150 150 153 168 152 160 164 173 177 79 176 171 93 168 179 184 176 174 170 176 174 166 171 178
217 212 198 180 187 121 197 192 182 187 145 103 159 165 121 171 170 173 173 170 166 158 165 165 160 162 168 167 165 167 161 166 168 78 171 170 176 181 185 181 180 173 171 161 169 169 170 179 183
230 203 208 166 177 176 193 180 194 185 184 179 181 146 163 177 166 173 173 170 171 166 171 160 164 164 166 169 172 174 175 179 184 185 184 184 188 196 185 182 180 183 186 194 196 198 191 199 213
226 224 209 186 158 175 170 191 176 184 185 180 174 177 180 176 176 178 178 178 172 177 176 79 76 173 178 178 172 172 170 173 175 178 178 181 183 182 183 182 190 196 200 197 199 201 200 216 212
252 219 205 201 185 200 181 166 170 190 180 186 182 176 168 178 182 173 170 176 177 180 178 173 172 180 179 180 182 181 186 185 190 181 183 182 192 193 189 207 215 215 219 206 206 202 219 210 205
270 237 219 209 201 181 189 184 189 196 174 183 188 186 180 173 171 176 173 170 176 181 183 181 178 180 178 177 182 189 192 189 191 195 216 201 224 231 223 219 223 224 215 211 215 211 206 213 212
300 264 225 218 212 211 193 185 189 204 192 175 178 193 176 176 176 162 178 175 177 182 188 191 155 154 188 191 190 189 190 200 183 194 219 236 223 218 153 228 225 225 225 221 220 219 182 219 220
306 275 268 222 219 222 217 207 193 188 187 204 172 189 179 179 188 186 168 186 187 174 179 184 196 197 182 165 167 183 157 151 179 186 191 150 169 210 220 178 181 211 213 208 189 211 208 208 204
310 287 275 263 225 217 218 227 219 192 190 184 190 205 200 174 204 201 198 195 193 167 179 185 198 195 197 191 152 179 161 153 169 156 189 222 223 229 227 219 205 211 219 211 209 211 208 207 204
314 284 274 257 276 234 216 218 224 224 210 194 181 181 195 215 193 191 186 144 164 175 178 178 193 184 204 208 203 151 153 182 205 185 183 195 222 216 209 208 211 216 213 212 215 215 217 217 214
319 294 271 264 243 257 247 220 209 218 223 114 225 196 185 180 198 190 185 208 200 196 193 193 192 142 222 220 217 216 185 189 205 225 219 184 185 205 219 214 220 221 222 256 157 253 248 246 240
310 311 276 264 264 254 228 250 234 219 216 222 226 60 217 210 226 190 210 199 187 185 191 205 188 195 193 192 195 203 218 197 217 220 220 221 215 216 226 226 258 259 254 250 249 101 250 245 240
319 299 298 280 265 258 255 231 221 236 240 232 228 218 215 209 201 202 215 230 203 226 220 193 197 214 200 221 214 225 231 224 221 216 222 235 245 264 260 267 285 199 280 280 273 265 269 269 265
301 313 291 276 271 270 249 247 237 233 228 227 238 239 238 220 216 213 224 217 148 228 224 221 225 216 214 214 220 222 225 232 234 245 260 225 299 284 306 296 264 265 268 255 255 269 273 267 257
279 293 289 275 272 281 250 247 245 232 220 228 227 226 224 219 215 216 211 220 236 237 216 219 232 211 224 212 223 236 264 264 261 255 286 285 282 266 252 250 258 252 256 248 231 284 283 291 292

GFSSGP_2pvu_pres_042.txt.gz
Presure
155 93 95 81 125 137 96 98 92 133 105 140 136 141 143 138 140 136 132 130 121 144 145 151 105 120 140 112 126 135 129 112 141 142 144 143 145 132 130 128 135 138 134 135 143 147 146 147 141
165 170 143 158 83 110 119 109 77 109 148 83 133 139 135 133 134 120 140 139 141 142 152 142 135 93 118 146 143 121 125 140 117 130 125 137 139 136 135 136 125 132 133 130 132 113 152 126 139
166 172 154 142 149 87 125 121 84 87 77 119 134 137 156 105 143 154 134 137 130 132 132 116 97 101 118 134 136 130 140 138 141 152 140 123 119 141 142 123 129 147 135 123 139 147 138 134 130
178 157 152 148 132 139 105 76 108 130 84 88 134 132 147 85 144 136 139 140 131 134 149 141 145 147 151 134 151 117 123 124 130 120 145 141 132 129 124 118 125 132 105 138 134 139 113 118 124
138 172 160 155 147 151 149 143 100 77 126 113 129 124 118 134 85 142 135 132 130 133 128 143 131 134 117 133 138 128 139 150 148 145 129 128 132 130 123 131 122 139 137 125 125 129 142 143 143
166 155 172 165 147 159 155 141 133 148 139 142 143 144 150 133 124 85 134 136 133 135 137 141 140 137 144 130 121 156 136 139 133 136 135 130 140 120 136 129 147 133 123 115 120 150 149 121 130
189 176 167 141 165 152 159 130 147 144 156 140 153 150 146 143 143 138 70 141 142 135 138 138 132 126 120 137 133 132 126 127 133 134 136 139 142 147 148 129 138 139 127 146 144 144 144 149 154
170 183 163 171 167 162 157 151 143 148 139 158 116 133 123 150 145 148 147 124 119 103 129 129 135 142 146 133 130 127 96 132 126 127 114 134 146 133 143 142 139 146 147 101 97 141 152 147 133
192 194 177 157 152 166 152 92 145 149 148 149 144 131 133 141 88 137 152 144 151 145 111 101 90 123 123 120 124 127 120 133 137 139 139 124 118 124 137 150 148 92 108 106 134 147 136 155 139
191 188 184 170 150 152 166 151 155 149 149 146 149 151 147 110 148 128 130 132 132 131 150 144 135 141 134 137 140 141 134 84 133 113 134 116 131 142 95 133 130 140 149 140 136 146 147 150 140
162 162 184 176 159 182 172 163 160 149 155 146 148 154 147 142 144 151 146 141 150 136 141 128 135 138 142 142 136 139 145 137 139 138 142 143 143 142 155 155 143 136 152 137 146 148 151 117 155
197 182 205 187 139 163 178 176 163 147 156 148 150 145 142 139 142 149 148 139 144 144 135 125 99 140 143 142 153 143 142 146 146 141 146 147 136 155 153 155 143 141 152 151 157 148 97 102 175
186 202 185 198 186 176 167 158 178 175 138 159 143 148 130 148 143 142 138 145 145 150 96 151 145 125 117 136 88 114 148 134 86 136 149 151 131 147 84 145 122 152 157 143 112 157 169 171 171
199 208 193 203 186 166 175 169 131 176 158 145 150 155 146 155 152 151 149 146 140 141 142 139 142 119 96 117 133 150 152 155 142 131 143 147 151 154 155 153 140 83 82 118 180 182 169 174 183
218 203 206 201 185 184 167 183 173 166 165 173 162 150 150 156 153 149 157 158 149 144 153 154 149 145 95 144 144 139 142 156 75 148 142 147 149 149 160 167 170 81 164 176 180 181 185 185 190
215 223 205 174 202 61 188 178 182 154 165 159 162 174 162 152 158 154 148 167 153 150 149 150 149 150 146 147 154 149 152 146 145 154 155 166 84 156 171 168 174 178 182 182 181 181 182 183 181
198 226 218 203 192 200 189 191 184 169 182 171 161 158 167 171 166 160 161 156 147 146 155 149 150 148 154 151 149 146 148 150 158 165 166 170 173 169 172 176 179 171 175 181 182 181 183 189 193
228 228 214 215 199 191 151 185 180 187 174 169 179 96 162 159 165 170 167 164 160 158 156 158 159 152 152 152 155 157 164 168 168 167 165 170 171 177 106 183 183 188 191 183 187 199 201 229 221
214 228 231 209 207 199 193 167 191 194 187 180 181 169 181 162 174 135 170 170 172 161 168 169 166 167 172 173 171 168 168 172 175 174 179 182 176 183 186 178 190 194 187 200 191 180 230 193 226
248 245 200 234 215 202 198 188 170 189 191 194 187 186 175 179 174 169 166 165 156 165 164 163 165 170 175 172 171 172 179 180 177 182 186 188 183 170 185 189 187 179 184 158 206 239 229 186 174
372 268 222 230 222 210 100 201 189 190 178 173 191 183 188 176 176 185 177 176 174 172 170 177 174 172 175 177 180 179 175 177 181 177 183 191 201 200 177 177 163 161 164 184 165 197 162 193 232
378 337 323 224 220 218 208 201 202 180 194 174 194 188 190 190 186 179 175 183 181 179 175 171 175 161 183 183 186 184 185 184 171 182 191 175 170 211 155 153 147 190 221 227 175 186 197 225 187
307 379 323 308 224 222 220 206 201 202 195 182 177 174 193 194 188 189 186 182 177 179 179 178 175 178 179 178 179 178 187 190 178 155 190 179 202 166 153 219 243 161 208 198 183 220 225 194 219
372 354 358 326 264 237 218 222 207 202 202 166 166 170 167 165 163 175 188 162 168 171 184 177 182 180 160 167 178 181 190 174 187 187 166 188 175 195 214 161 221 213 193 216 206 224 185 190 207
336 363 348 340 314 242 248 226 219 211 202 202 203 191 189 186 181 177 181 189 184 169 168 171 173 175 172 174 187 187 198 196 189 195 190 191 162 169 168 193 199 238 236 239 234 224 227 229 238
154 326 341 331 316 279 231 249 233 219 221 198 203 206 200 184 188 185 184 185 190 194 190 187 188 194 184 183 179 186 203 199 194 203 184 204 186 239 196 216 223 228 229 228 236 256 263 259 259
327 334 341 328 317 302 283 260 245 228 218 224 216 197 206 194 191 190 188 185 182 174 178 177 178 198 193 201 211 210 190 175 187 181 191 196 208 229 233 220 223 223 240 267 251 261 295 279 276
309 310 330 333 310 301 284 279 260 244 227 219 218 222 215 208 207 201 197 199 196 194 192 187 186 194 177 184 194 234 220 224 224 230 220 227 226 217 216 224 238 268 273 289 277 266 269 281 275
312 312 308 324 308 283 280 274 273 255 249 239 224 218 217 216 217 218 220 221 222 221 222 223 223 220 222 203 222 211 200 202 218 220 129 220 213 226 230 273 294 275 275 265 265 261 265 268 277
289 296 301 314 313 288 273 270 263 264 269 251 241 239 233 222 219 217 216 211 209 213 209 212 227 226 219 217 247 240 226 246 237 221 223 226 227 272 304 277 275 267 268 258 259 260 250 239 259

GFSSGP_2pvu_pres_045.txt.gz
Presure
175 91 86 83 89 80 72 118 80 83 151 137 95 153 149 149 135 138 135 136 102 122 138 125 140 138 161 105 114 104 130 131 142 107 119 144 142 131 122 133 141 137 136 137 137 142 137 130 132
170 160 170 126 81 83 83 84 91 98 110 137 136 147 145 147 136 121 133 131 143 109 111 95 132 107 100 118 113 140 121 106 126 111 142 114 134 145 143 124 134 137 136 127 141 144 123 145 134
171 170 165 144 134 86 83 83 134 118 77 80 124 120 125 140 146 142 149 140 139 136 127 113 140 141 159 132 126 122 112 143 126 124 117 129 132 134 135 141 120 142 142 119 133 128 132 133 126
170 156 157 148 164 151 92 87 85 71 66 146 138 77 109 147 137 132 135 141 136 136 144 144 129 136 137 138 122 117 152 148 140 121 133 146 125 134 142 127 128 136 146 128 139 128 117 113 130
202 165 166 161 169 142 167 136 145 97 107 80 81 93 146 147 142 141 143 139 133 132 150 135 140 140 140 101 102 137 136 127 120 113 134 134 135 147 140 127 121 141 121 135 134 141 139 143 144
194 176 172 154 159 152 156 135 147 81 82 77 111 148 138 125 78 120 141 155 147 152 140 131 139 140 129 117 139 134 126 114 126 135 147 125 115 131 130 135 131 133 106 125 130 137 133 148 146
173 195 144 164 163 174 177 156 132 146 150 83 82 138 140 140 134 128 130 149 147 146 142 145 144 142 137 139 138 142 137 125 135 131 127 117 118 138 129 142 142 139 144 131 136 147 147 146 141
141 189 162 147 166 177 151 154 149 145 146 151 156 154 143 142 141 142 126 124 129 132 79 130 134 136 137 138 143 142 138 146 146 127 138 132 133 126 143 131 114 136 138 131 145 144 142 98 142
185 203 183 181 164 170 155 135 89 156 150 150 143 141 144 151 136 149 142 144 138 116 109 82 128 129 131 112 112 147 131 122 114 118 134 120 122 135 107 103 133 138 141 145 90 143 155 144 122
175 198 191 178 187 166 166 159 147 154 156 149 149 144 145 141 141 150 151 148 126 149 145 141 133 79 83 117 130 142 149 145 138 134 103 106 116 117 121 132 122 146 146 147 137 149 146 135 148
129 203 175 150 197 171 164 165 151 141 155 158 151 143 145 148 142 130 130 130 99 132 128 134 104 144 143 150 151 151 152 131 130 137 139 137 143 146 144 147 145 140 152 158 141 151 151 129 149
185 122 163 199 191 187 169 175 127 150 138 155 158 144 136 140 142 154 147 141 138 139 139 148 137 132 131 133 137 138 139 139 140 140 147 143 141 142 147 156 157 132 137 149 150 148 151 90 163
207 202 171 163 201 183 171 177 175 157 148 149 150 151 149 144 151 145 155 121 143 145 149 139 148 130 143 137 135 135 130 129 138 141 135 127 129 82 151 151 134 93 151 90 145 132 148 134 140
220 206 204 212 188 185 191 189 169 170 145 157 160 150 121 150 147 153 150 154 156 154 148 144 142 152 151 140 143 124 113 124 111 98 134 140 96 140 149 151 129 157 147 138 137 160 144 156 174
177 221 195 199 168 157 180 181 184 161 170 167 165 153 163 141 146 151 150 154 150 142 142 142 138 141 148 149 148 136 95 151 151 146 147 140 146 151 153 154 147 153 160 162 168 163 174 173 179
231 185 214 185 206 170 175 172 186 178 163 168 171 165 158 151 141 154 150 138 155 155 152 151 146 144 144 151 151 145 83 145 148 145 150 151 156 156 149 152 158 158 168 177 175 176 183 180 177
238 236 193 208 176 196 192 201 194 186 171 159 167 169 165 160 148 151 155 159 149 143 142 148 151 150 154 147 153 153 150 111 149 150 150 150 151 151 153 160 169 178 178 184 178 186 182 178 194
143 230 224 208 191 198 183 100 158 193 175 178 171 172 169 169 166 162 159 146 146 148 152 149 152 157 150 147 149 161 159 154 158 151 152 156 164 169 178 178 176 178 185 183 182 188 192 190 175
348 238 240 207 218 195 203 66 184 193 188 185 174 169 178 177 136 172 172 162 153 151 151 149 146 148 152 160 152 158 160 158 160 157 168 171 172 175 181 182 184 181 181 175 176 186 187 184 199
327 330 239 242 235 188 213 205 200 180 161 189 182 165 173 168 166 161 171 178 171 171 167 167 162 161 162 161 162 162 161 165 167 172 167 162 168 170 179 170 184 191 183 181 191 173 196 184 161
313 331 347 249 240 216 228 197 191 201 180 195 194 186 176 173 173 170 165 161 159 162 153 163 162 155 159 162 171 173 171 168 169 165 174 181 182 179 186 182 179 183 153 184 166 190 194 164 161
277 331 327 363 228 234 222 235 94 197 200 174 195 197 184 179 179 170 170 174 175 174 169 169 174 177 173 171 170 167 167 176 178 177 162 172 187 168 185 149 186 175 160 196 204 194 153 220 193
315 279 339 299 387 227 235 207 226 213 197 194 176 187 180 189 179 136 179 178 172 172 169 171 176 171 173 174 176 178 177 174 180 184 179 164 167 192 181 195 160 159 193 203 191 213 164 196 222
295 317 260 332 386 379 234 238 233 219 216 199 189 189 200 158 159 175 180 180 177 178 180 180 181 186 187 184 182 151 181 184 171 158 187 168 166 164 171 197 199 201 183 216 183 209 224 220 221
311 354 314 296 327 370 380 244 215 234 229 219 203 197 192 192 178 152 152 161 181 172 190 190 183 184 189 192 194 163 196 191 190 191 185 194 194 195 197 201 206 210 236 230 247 234 220 232 224
316 279 305 295 389 309 235 376 240 215 220 232 222 209 200 195 194 190 185 168 171 170 168 169 188 167 165 166 177 177 179 188 191 191 173 190 180 181 179 185 226 193 221 242 211 225 228 233 239
331 337 321 355 388 363 362 286 334 275 234 218 223 227 212 203 195 194 194 190 182 179 171 162 163 173 178 172 179 176 181 178 182 184 175 183 204 188 197 206 200 215 234 230 231 225 237 260 280
298 324 332 332 348 360 301 359 346 226 276 257 224 221 223 206 205 203 200 198 176 194 188 186 184 175 177 180 185 182 183 181 188 190 197 202 210 224 181 247 245 236 226 227 233 244 274 216 261
307 311 308 319 332 341 341 342 336 315 257 272 261 246 221 219 222 215 201 197 195 196 193 194 194 191 189 183 184 187 194 197 198 212 223 222 236 251 88 235 228 223 233 237 288 267 260 257 256
286 303 301 300 308 323 332 334 318 301 304 285 264 255 254 247 235 221 219 218 217 204 192 193 191 190 197 198 201 202 206 220 220 213 243 251 244 233 225 217 231 233 262 237 273 268 265 248 276

GFSSGP_2pvu_pres_048.txt.gz
Presure
86 86 128 132 130 82 137 95 132 143 148 142 111 165 163 126 153 144 124 130 135 125 96 109 128 131 129 129 125 144 156 132 125 127 168 139 131 134 144 144 132 127 143 128 140 133 146 131 130
143 180 78 82 76 88 78 76 76 75 101 96 145 150 160 158 122 110 145 96 141 98 95 112 96 146 164 153 112 112 105 109 111 138 114 126 115 147 126 136 132 135 121 150 142 136 124 143 137
199 190 187 169 81 75 77 81 128 78 116 113 134 142 130 132 141 130 148 152 135 129 97 107 129 137 126 130 113 106 130 106 122 109 139 106 115 147 133 117 144 145 143 125 128 144 140 128 143
193 197 164 172 166 85 83 83 84 76 82 90 135 101 83 79 139 115 155 134 131 127 137 135 106 117 103 116 141 108 110 110 127 113 152 119 140 108 135 141 122 146 126 122 136 139 125 138 117
210 152 191 163 164 169 81 84 129 84 94 68 79 79 77 93 139 138 103 146 120 131 148 139 127 128 122 120 135 136 134 133 105 141 104 134 123 134 132 132 130 129 124 126 144 140 141 127 134
191 205 174 159 167 178 160 129 88 110 86 81 78 133 93 129 135 149 118 144 143 142 143 141 143 141 152 144 130 134 145 94 121 132 133 131 145 132 136 130 128 131 128 116 117 132 146 110 129
151 192 185 150 173 176 168 160 154 142 121 144 137 87 155 82 84 154 77 134 141 143 144 140 145 135 158 145 137 139 135 118 115 139 135 130 113 112 120 129 124 123 130 132 121 118 128 132 144
150 139 202 132 177 174 173 163 164 144 152 158 139 78 78 79 150 120 122 150 135 133 135 142 149 149 139 137 137 150 149 140 130 141 140 139 140 146 137 135 129 145 141 124 92 110 139 152 143
192 156 163 193 174 189 171 154 169 146 145 158 139 152 136 86 150 151 142 99 125 146 135 133 127 150 145 134 137 142 142 135 130 133 136 143 111 120 113 125 129 113 124 137 137 142 142 143 158
184 216 183 193 187 155 138 144 175 153 162 148 152 109 147 147 142 152 139 146 146 127 114 78 135 101 113 107 105 104 132 135 133 141 144 126 112 122 94 114 139 144 144 146 142 148 149 154 139
140 156 171 157 190 190 187 172 173 165 118 156 143 150 139 142 149 143 156 149 143 142 136 142 139 127 131 127 82 106 126 132 141 127 124 113 139 143 140 140 141 145 137 136 145 137 153 141 156
188 104 203 163 144 198 198 173 142 151 171 156 143 155 153 147 145 144 153 150 142 146 146 148 140 127 124 122 144 133 138 147 125 131 132 140 137 139 135 138 151 136 136 140 85 151 155 155 115
185 171 183 203 146 164 199 197 178 171 155 164 152 157 148 150 148 149 150 162 145 142 113 140 128 130 141 146 132 137 147 141 137 139 141 140 141 145 149 141 140 83 110 153 156 153 156 152 156
205 190 180 167 118 201 186 156 178 175 167 170 147 162 153 103 149 144 150 149 143 146 142 140 139 99 136 135 134 141 146 115 149 151 148 139 141 136 81 146 151 154 78 151 159 149 151 159 78
211 194 196 197 186 197 207 157 146 175 161 176 127 131 132 147 159 155 150 151 142 145 145 145 146 146 146 140 143 145 143 140 144 144 84 83 148 149 144 148 148 153 146 157 151 158 168 175 179
240 207 165 196 200 172 116 125 197 159 178 172 167 163 155 160 136 145 160 151 150 152 149 146 150 143 142 149 145 142 143 144 147 141 95 88 148 150 152 156 152 152 154 155 161 169 172 176 178
345 207 212 196 182 190 199 209 196 203 159 176 167 168 168 157 153 147 148 149 145 145 149 150 151 151 147 151 152 153 152 152 153 145 148 146 151 149 147 150 153 166 160 156 167 166 181 178 179
298 223 189 206 194 205 179 216 187 164 201 171 172 167 168 167 164 158 155 148 149 153 141 142 143 145 149 143 147 147 149 152 145 150 151 158 157 159 154 156 163 158 159 166 176 181 171 177 168
294 244 210 202 221 192 188 183 222 211 159 166 198 168 107 170 169 158 163 161 159 157 154 156 154 152 150 151 153 155 153 152 153 148 149 150 152 161 164 158 157 168 177 162 182 168 154 165 182
334 291 252 221 207 233 186 145 188 196 181 150 194 187 171 176 174 172 169 160 162 165 155 158 159 153 152 150 149 145 147 153 159 161 161 162 156 160 153 175 173 167 184 170 174 158 176 185 178
327 278 267 227 229 210 216 187 140 121 70 145 168 193 190 178 174 162 169 164 170 165 168 167 161 160 159 160 160 159 159 157 156 160 150 161 154 168 163 146 173 172 144 174 170 168 188 172 153
267 319 283 243 229 234 241 215 170 211 201 176 207 159 180 189 186 172 166 173 164 162 169 160 160 165 166 166 164 169 164 162 161 167 173 172 176 167 176 173 165 135 167 161 162 191 159 186 200
300 313 311 314 239 239 245 252 243 198 194 204 179 199 193 172 178 182 181 175 166 174 172 168 167 165 164 168 175 167 175 162 161 167 173 168 145 180 190 187 164 190 191 156 184 189 185 178 197
294 296 272 325 296 246 251 251 247 250 235 190 206 196 202 193 178 190 180 186 183 179 172 166 166 169 169 166 165 165 168 168 169 175 176 157 179 153 178 181 194 180 179 188 180 188 176 209 218
315 304 304 311 323 267 347 257 224 234 242 246 237 214 200 193 186 185 171 174 187 187 183 181 178 177 177 178 180 179 176 173 171 177 178 184 173 188 173 175 177 179 189 191 181 200 211 230 249
266 306 300 300 314 320 320 354 362 136 230 236 242 239 242 205 195 189 188 181 167 165 189 189 188 186 181 156 170 161 162 177 177 173 159 169 172 163 178 179 174 189 190 190 204 208 230 231 236
295 275 277 293 325 304 316 331 328 379 273 234 234 238 239 236 204 195 196 188 188 187 172 162 179 190 186 156 154 154 159 164 172 170 174 172 173 180 177 189 190 189 187 207 203 251 232 237 235
328 317 316 325 275 329 291 330 349 303 347 273 260 243 237 234 239 240 208 195 185 194 192 184 181 181 184 191 183 187 191 188 185 185 173 186 189 189 192 198 191 210 207 114 255 229 243 233 233
329 324 314 318 330 340 345 380 296 372 340 355 317 272 257 248 237 232 236 229 213 198 191 192 191 188 186 188 187 186 185 186 164 187 192 183 196 197 194 202 203 187 229 254 238 241 228 244 291
298 301 307 310 312 325 336 286 367 342 308 345 338 327 317 259 254 246 240 234 229 229 230 207 203 200 200 197 189 188 190 191 190 193 196 196 193 198 204 214 175 260 249 239 237 232 249 280 267

GFSSGP_2pvu_pres_051.txt.gz
Presure
179 89 77 159 158 156 102 114 129 154 78 81 145 146 84 140 154 126 131 127 105 115 129 92 157 139 122 141 128 122 124 128 129 122 159 158 140 141 168 158 141 155 133 142 138 127 143 137 132
169 169 78 88 82 79 98 88 67 113 159 142 148 152 143 128 131 136 135 127 148 138 116 158 108 124 157 158 125 126 112 129 153 125 134 124 124 133 127 128 121 133 122 123 142 142 118 133 138
201 131 195 82 78 130 71 77 131 86 138 105 142 150 142 149 127 89 123 140 147 141 125 149 104 106 101 122 133 175 165 128 147 110 107 133 142 144 143 114 121 133 106 131 140 134 119 140 147
223 204 158 142 174 72 75 140 72 159 78 154 156 145 111 143 158 167 126 119 148 126 125 139 141 101 111 114 154 139 133 135 141 98 114 107 128 120 148 114 135 105 109 133 125 131 119 139 124
222 200 170 147 188 102 91 81 77 77 83 84 77 148 142 78 81 95 163 154 83 103 139 139 132 144 130 132 121 131 133 136 129 113 111 108 114 128 105 105 109 146 135 131 132 137 130 138 115
186 133 160 191 173 163 164 83 81 82 99 68 85 78 76 75 75 148 153 151 88 152 149 142 135 133 133 141 119 112 104 123 139 117 136 142 143 133 110 139 142 124 141 148 134 124 123 139 142
211 197 210 176 184 179 176 165 168 78 148 148 140 77 97 76 80 77 118 148 140 138 149 136 134 134 138 140 129 126 123 142 124 114 137 143 134 111 130 140 103 117 143 122 146 148 133 99 119
202 194 204 156 180 191 167 143 170 173 155 147 146 129 90 77 76 142 161 84 144 148 150 149 133 128 145 145 142 140 159 146 142 140 131 151 105 101 141 135 142 141 128 148 131 126 139 138 139
225 149 190 208 171 166 139 173 172 169 172 159 138 164 86 114 82 76 142 79 139 143 145 149 148 143 145 142 137 147 158 148 101 138 137 137 137 121 148 139 126 122 111 107 116 139 137 149 140
196 209 188 188 204 171 62 141 180 171 170 161 146 157 149 71 88 150 90 81 150 146 138 116 144 143 137 140 144 150 153 153 132 137 136 129 134 133 140 137 147 153 121 138 142 133 146 143 141
227 182 219 190 186 193 175 170 140 170 156 171 163 160 153 146 149 147 153 134 148 149 139 120 131 86 126 137 135 133 135 86 81 138 139 130 131 133 118 125 126 138 140 135 141 143 145 150 151
240 216 180 188 175 185 144 208 198 180 172 167 123 152 149 144 149 157 146 125 129 143 150 148 143 141 132 76 130 142 137 133 116 136 138 119 136 137 134 134 141 143 133 137 142 141 131 72 153
271 221 217 181 185 190 186 152 198 151 175 173 173 156 152 148 143 151 157 144 153 144 140 151 147 139 141 142 141 143 110 133 125 131 134 149 142 141 149 146 147 152 79 101 150 152 154 159 159
352 231 203 174 186 180 202 164 210 193 185 169 175 134 160 156 148 149 152 153 135 140 154 147 95 147 142 144 101 125 139 132 137 140 140 140 141 141 145 145 144 87 148 148 147 155 151 150 160
367 323 219 141 196 179 196 208 134 192 193 173 170 174 165 162 150 147 141 149 152 144 140 145 147 148 143 137 134 121 132 143 143 140 141 146 149 149 146 145 154 148 147 145 153 159 161 163 158
289 331 208 226 207 188 150 209 203 132 197 192 149 173 168 170 149 157 150 145 144 147 151 135 149 149 146 144 143 142 140 141 144 146 147 146 145 150 152 155 144 152 151 150 152 156 162 151 146
323 367 293 225 207 188 192 166 200 208 177 146 190 165 172 175 159 139 131 154 140 151 153 151 145 142 146 160 142 141 141 140 145 151 152 150 152 157 146 151 154 149 154 151 161 163 145 149 166
321 298 370 217 205 201 145 187 167 141 182 209 149 191 173 172 158 169 157 157 148 125 143 148 150 149 151 152 151 152 151 151 150 149 151 143 152 151 146 149 150 145 162 161 155 146 144 175 164
314 265 346 251 215 204 208 201 192 206 195 169 159 204 180 170 174 162 172 157 149 152 161 158 149 149 144 143 144 143 145 145 147 150 152 149 146 141 137 149 162 151 155 146 150 158 174 166 178
262 312 286 365 217 215 205 191 191 178 197 198 199 185 205 177 160 173 155 167 160 154 162 156 160 151 149 146 147 148 150 150 143 151 150 146 149 160 159 158 149 158 155 167 168 161 165 177 158
258 283 326 393 283 217 211 207 197 188 177 199 194 192 164 201 178 167 168 165 163 168 163 160 159 163 161 146 157 155 152 152 151 151 156 160 160 159 160 148 162 162 162 168 167 168 146 165 177
302 281 325 305 397 236 220 212 209 201 200 171 201 187 201 170 200 182 174 167 168 162 164 168 162 158 155 153 153 159 159 155 155 158 159 153 154 161 163 159 155 168 155 163 168 142 173 159 181
299 258 285 332 277 312 240 236 221 209 81 185 68 72 82 150 154 191 188 177 174 169 167 160 165 167 164 160 158 159 161 160 158 159 162 163 161 157 162 165 164 161 171 176 177 169 178 174 168
290 296 279 321 307 263 266 241 234 228 213 207 202 160 200 179 200 192 153 192 181 186 181 179 167 168 172 168 170 171 163 161 163 164 167 170 169 169 160 158 172 179 171 172 164 167 166 170 175
273 304 299 290 320 284 285 245 225 236 229 214 216 218 196 199 173 177 188 179 172 189 193 152 166 173 171 178 174 165 163 164 160 157 162 162 166 173 176 172 167 164 168 178 184 190 187 192 188
279 294 298 295 265 304 326 322 219 232 235 236 228 208 205 182 189 192 175 173 186 187 164 190 189 184 164 178 177 178 173 170 171 171 175 173 171 169 154 154 169 172 189 190 190 198 193 194 200
305 308 296 303 308 259 323 221 337 233 236 242 240 245 241 238 169 177 197 191 190 162 178 186 185 185 171 167 176 178 178 173 176 178 179 179 178 179 180 157 188 189 196 189 196 197 197 199 201
302 280 272 285 305 313 269 332 327 205 286 242 241 242 245 244 245 242 189 176 199 186 187 183 192 194 184 183 182 182 187 168 169 157 174 162 160 176 180 174 182 191 189 189 194 198 197 201 220
277 282 283 277 277 280 283 300 249 323 276 345 256 245 244 248 259 259 256 256 225 193 191 191 189 187 190 194 186 182 186 185 184 186 188 190 190 187 187 187 177 188 191 196 199 196 204 241 252
289 291 345 316 337 316 318 341 336 291 308 320 348 274 258 251 274 275 265 249 238 237 244 242 202 199 193 191 189 189 190 192 192 187 187 192 192 191 193 199 198 203 205 207 98 266 251 251 242

GFSSGP_2pvu_pres_054.txt.gz
Presure
195 188 107 191 181 154 112 103 88 91 149 151 85 82 139 101 103 101 117 120 99 148 96 134 143 104 125 122 111 120 136 112 132 117 122 126 128 158 100 127 131 133 140 147 125 144 144 128 140
200 199 194 136 183 164 101 83 169 136 126 74 78 120 138 159 106 137 144 110 132 156 132 149 142 117 138 122 114 116 124 114 122 120 113 130 117 132 141 125 146 127 138 122 115 126 103 114 126
204 143 191 193 146 172 113 79 164 168 103 70 125 93 142 154 156 116 119 116 161 127 137 135 127 107 126 108 137 126 115 150 129 113 161 161 128 122 125 135 136 107 108 129 125 132 144 131 130
132 215 194 147 192 180 117 167 161 70 152 89 77 144 126 150 155 83 84 149 92 139 151 86 88 134 132 137 136 127 104 121 127 131 169 158 108 109 116 109 121 123 105 106 120 112 129 122 135
238 177 152 179 185 163 80 168 78 166 73 118 78 94 148 131 149 105 160 144 132 130 95 127 141 135 131 140 104 99 106 107 140 141 105 138 113 109 120 107 106 133 109 131 139 121 126 119 146
163 213 207 188 191 168 163 91 75 77 72 76 79 80 79 120 142 77 82 83 83 91 123 165 157 139 126 123 116 119 109 123 116 117 112 145 139 111 127 126 129 140 140 103 121 131 135 106 110
175 154 188 144 155 192 158 181 155 77 76 167 83 83 83 138 100 75 80 79 151 154 133 139 145 141 128 135 143 146 135 127 144 120 116 114 126 144 102 142 102 127 92 137 146 144 128 127 130
165 160 205 194 143 193 200 157 178 181 86 85 82 87 104 81 73 72 82 85 78 146 159 81 135 127 149 131 142 139 134 130 138 135 125 126 143 124 140 151 137 134 137 94 148 137 153 122 123
166 180 213 197 222 128 209 161 157 181 172 121 82 77 82 74 77 95 80 74 149 87 77 84 131 146 143 150 141 133 128 135 139 134 134 159 154 141 145 133 135 138 132 141 145 126 137 144 139
207 190 174 207 193 191 152 205 185 190 156 175 161 163 139 126 137 132 136 151 78 77 85 82 147 149 144 150 136 108 130 141 145 143 156 156 100 145 138 137 132 111 130 142 134 124 149 151 137
216 141 199 159 203 190 208 211 165 161 187 179 170 161 166 151 142 119 87 77 88 146 128 84 165 152 149 153 147 147 142 146 146 147 144 89 108 131 133 129 136 150 142 135 136 141 133 143 126
204 212 159 220 232 201 192 219 172 195 178 156 183 167 163 161 149 146 150 126 143 84 147 138 150 144 81 147 151 123 140 143 149 143 135 133 138 132 137 139 133 143 152 137 136 151 85 149 93
206 198 217 172 237 215 200 194 183 164 141 193 165 167 166 167 162 152 152 152 150 144 143 149 134 145 154 152 130 141 123 102 146 133 138 143 148 131 127 126 140 133 140 146 148 122 151 158 143
207 202 228 202 245 225 209 193 211 195 185 187 189 161 173 140 170 164 161 146 165 149 140 142 143 136 136 156 151 152 143 144 142 140 142 149 141 146 138 134 140 146 155 148 151 150 147 149 155
212 212 215 199 210 255 191 207 222 172 205 169 164 187 145 168 132 127 162 152 157 151 146 152 146 139 149 148 159 149 150 154 149 144 146 140 128 138 149 144 152 140 142 152 141 152 150 148 154
236 222 217 220 206 213 186 147 205 191 169 158 192 189 162 164 172 170 177 168 156 148 149 140 150 156 136 138 137 140 144 145 149 148 145 143 144 144 147 142 148 149 153 152 153 155 141 162 153
253 238 230 234 211 245 255 210 208 201 184 167 147 149 195 183 166 157 173 127 156 149 153 149 151 145 147 146 144 142 149 143 150 153 153 148 146 146 151 154 146 149 151 146 141 145 158 156 149
258 255 247 239 209 214 230 227 104 216 213 184 185 141 146 194 180 185 175 178 164 157 149 144 142 142 145 143 141 141 140 141 141 149 152 154 156 159 141 145 152 145 152 149 150 161 159 154 152
317 263 260 254 227 208 248 244 216 224 208 197 192 170 141 132 196 148 179 171 177 149 124 64 117 125 146 150 149 144 142 143 143 143 151 145 143 150 151 149 152 146 151 151 161 150 144 159 167
302 287 268 260 243 219 245 244 232 214 212 157 173 186 180 192 163 195 182 174 173 172 159 162 146 129 148 126 156 157 154 154 151 147 148 148 138 140 149 145 147 151 157 156 140 156 162 162 152
268 280 294 258 252 228 219 248 247 220 210 220 189 182 184 200 143 195 167 185 166 166 173 167 163 154 160 159 156 150 150 161 159 157 155 152 152 155 158 156 159 160 161 151 163 161 167 150 161
270 278 281 279 257 248 317 263 245 235 215 215 218 197 178 146 211 160 186 155 186 178 168 163 168 161 157 159 160 160 157 155 160 160 158 159 158 159 156 148 128 159 159 160 164 162 155 146 165
287 277 301 309 261 249 350 339 238 247 226 210 214 205 197 204 184 213 203 167 144 183 144 168 166 170 165 142 168 167 159 161 164 160 159 159 159 158 159 160 159 165 162 160 152 156 160 168 175
279 285 303 298 296 247 260 291 242 240 239 215 220 211 210 205 194 109 211 161 196 169 184 187 172 166 168 167 165 161 162 160 152 150 153 160 161 162 164 167 161 161 159 168 169 171 173 176 181
285 291 283 308 305 254 312 282 412 239 238 233 217 218 161 218 208 177 183 187 164 159 180 190 187 179 173 171 166 160 159 158 161 163 164 163 160 160 165 169 175 172 175 162 178 176 167 179 183
285 275 298 289 298 304 246 344 278 374 242 241 233 221 223 223 212 211 177 178 176 166 187 192 186 194 191 179 174 171 169 167 167 168 170 172 174 175 166 165 156 176 183 182 177 180 176 187 170
297 291 305 291 298 311 277 251 344 294 334 240 240 236 225 222 221 216 181 199 187 180 176 202 188 193 196 152 164 179 178 179 178 179 180 184 182 181 157 172 172 177 176 161 171 188 187 190 191
284 310 283 283 292 286 314 295 251 333 281 347 241 239 242 240 229 226 226 222 208 145 191 187 179 175 167 188 195 178 184 186 183 181 185 178 180 181 183 182 180 178 176 186 184 188 190 179 189
305 283 287 305 304 318 320 311 290 257 320 276 340 240 240 250 253 248 246 248 212 231 155 206 178 182 193 184 172 166 167 171 187 169 170 169 175 175 183 186 189 193 191 189 187 187 190 197 198
253 246 269 271 265 254 274 274 279 287 258 315 275 318 276 169 243 250 257 257 258 254 257 201 193 192 175 182 188 189 190 188 185 184 186 181 179 181 183 182 180 188 190 185 193 200 199 253 257

GFSSGP_2pvu_pres_057.txt.gz
Presure
198 163 185 138 164 174 167 117 177 114 153 100 142 142 104 115 109 151 97 90 93 132 128 142 93 146 147 137 133 133 138 103 108 110 124 119 123 121 121 133 164 141 105 133 133 128 136 120 132
196 203 163 195 191 168 173 105 102 132 163 143 118 142 88 91 113 110 150 90 95 100 114 117 131 106 140 138 127 101 108 109 109 124 114 129 117 136 120 122 137 146 126 129 127 108 114 140 122
192 188 194 183 195 168 166 72 180 163 121 142 130 137 152 153 146 124 138 155 111 142 109 114 130 147 107 88 98 117 117 115 139 121 109 128 129 110 156 143 156 123 117 105 154 146 112 108 114
213 200 190 143 166 164 124 175 177 83 146 90 70 78 77 76 149 160 77 153 153 145 111 109 140 150 94 90 144 107 136 134 116 117 129 128 124 130 129 142 122 108 108 97 106 136 100 131 138
174 202 207 199 172 163 156 136 181 181 79 153 74 130 97 149 152 147 158 139 145 149 147 92 122 141 134 143 146 143 145 112 152 101 99 100 127 160 109 165 159 139 128 117 111 109 142 138 122
203 162 185 201 197 183 183 168 131 178 66 82 145 78 114 124 149 152 150 154 156 148 151 116 126 126 152 122 153 149 134 127 150 101 105 125 101 118 109 132 162 132 116 113 131 129 136 134 135
197 176 182 184 220 182 169 187 71 125 179 168 81 130 67 76 125 146 102 81 135 123 81 142 131 137 119 144 119 131 132 125 137 127 129 126 133 134 133 134 113 133 147 140 149 140 132 140 129
191 138 97 201 181 187 183 183 186 186 152 151 81 75 75 76 129 88 77 80 78 80 107 157 154 131 125 169 157 120 131 127 117 143 124 129 131 147 131 130 125 146 92 151 129 132 135 134 142
195 176 97 210 185 183 192 192 167 186 166 188 108 118 84 112 74 77 143 74 80 77 100 99 140 122 122 157 145 132 149 135 120 142 150 133 135 134 132 132 148 146 143 135 137 133 139 126 128
197 190 187 151 202 189 202 155 185 178 176 191 161 149 128 158 78 85 81 80 82 83 76 145 109 92 114 123 103 138 147 128 106 139 137 124 132 128 134 150 89 120 82 113 134 145 141 146 132
203 187 175 183 164 198 176 184 222 152 176 185 186 171 167 160 142 79 79 81 81 89 146 76 76 75 76 149 158 150 151 144 149 144 140 139 124 146 90 135 147 144 133 130 135 143 131 138 151
218 179 179 188 179 168 175 183 196 137 149 126 151 185 167 169 159 159 142 102 150 123 149 76 99 84 138 85 83 79 141 157 154 89 145 134 134 143 143 144 134 131 130 141 135 139 132 127 143
221 202 184 172 196 142 155 183 225 198 210 183 205 168 182 171 167 160 150 160 159 132 143 145 147 109 112 93 140 146 83 80 125 152 146 145 145 144 146 137 137 150 144 126 133 144 146 142 153
251 216 190 187 196 186 190 167 237 194 196 147 209 193 164 159 177 166 161 166 159 155 155 126 146 143 144 153 156 142 147 154 154 138 131 146 143 131 145 131 145 144 139 145 146 142 147 150 152
237 248 212 193 189 203 178 171 178 211 194 192 174 206 200 184 172 178 167 163 151 164 158 150 148 125 144 141 150 153 136 139 139 152 144 151 150 151 153 154 88 144 145 144 142 152 149 150 146
244 241 241 206 193 192 201 152 199 219 207 189 192 203 178 161 185 188 137 171 167 164 166 163 141 145 159 151 82 148 135 131 148 151 143 138 140 144 144 149 149 146 148 152 149 149 154 146 148
248 243 242 211 144 192 199 195 142 218 197 205 194 184 179 204 190 186 182 179 170 166 169 156 162 156 148 147 152 143 150 154 152 140 138 142 143 142 144 144 145 153 147 139 149 151 143 148 143
251 247 237 241 202 198 192 174 207 167 200 213 221 191 191 207 161 196 191 179 145 180 161 144 168 157 159 147 147 153 144 143 146 149 146 146 147 139 148 150 145 147 142 149 144 150 155 147 158
259 241 238 229 216 200 195 198 196 211 194 201 223 218 188 197 175 199 187 188 180 139 171 176 166 168 161 153 143 135 150 147 143 142 141 153 150 144 148 145 146 151 149 150 148 149 159 151 157
267 251 240 240 227 216 201 202 204 201 216 202 165 219 216 200 187 195 159 189 165 191 180 125 178 163 168 162 153 149 152 153 153 152 146 140 150 152 149 144 153 153 148 157 160 154 161 146 161
275 263 250 239 238 220 209 205 206 208 181 161 193 254 221 195 192 190 190 194 197 178 190 182 179 175 158 168 123 122 143 124 127 149 150 138 145 150 155 149 155 158 156 157 163 157 136 158 158
270 272 268 261 244 245 222 206 205 207 206 215 206 148 216 211 194 189 179 177 143 148 189 190 187 179 184 169 172 163 156 160 162 130 159 157 155 155 151 148 151 150 157 156 159 165 159 159 160
301 274 273 272 262 244 247 228 206 211 208 219 213 205 254 230 211 216 192 180 177 178 148 186 191 194 192 177 181 170 171 170 144 158 161 141 152 150 156 156 159 158 156 158 162 162 166 144 167
263 267 280 271 268 267 255 242 238 222 217 225 247 211 250 252 232 216 169 193 182 181 175 163 193 180 193 146 191 174 156 140 169 163 160 167 166 161 159 158 152 158 158 157 163 166 161 168 172
291 256 275 282 268 286 302 273 254 259 250 230 246 237 210 245 250 240 214 211 183 185 187 185 180 174 202 146 190 191 178 175 166 171 164 154 150 159 165 161 157 159 162 163 168 169 169 171 179
288 281 259 283 266 274 260 277 275 258 253 244 306 240 236 202 251 248 247 218 211 190 167 126 184 182 167 201 198 174 155 157 177 174 175 178 175 169 168 167 169 174 172 172 170 171 178 175 186
291 292 279 264 287 286 266 298 300 286 287 238 243 222 246 246 247 96 242 249 217 214 215 187 174 173 180 191 186 180 193 186 185 180 171 174 179 178 178 178 179 176 179 179 179 183 186 185 181
284 288 281 301 297 278 294 280 297 303 323 276 235 240 302 244 244 247 243 243 246 230 215 231 200 184 162 166 144 146 111 190 186 187 172 165 187 165 166 182 155 180 182 183 185 189 187 188 189
279 289 285 284 263 277 280 282 277 298 307 303 272 228 252 330 248 249 246 246 242 249 251 223 229 200 173 161 170 125 168 157 164 186 181 176 176 170 154 185 187 185 187 183 172 167 192 187 186
284 281 274 279 305 271 282 313 289 259 284 304 287 247 230 252 341 205 249 250 248 244 253 259 244 224 210 198 193 162 172 176 161 168 175 161 171 165 163 171 151 163 177 188 155 186 186 185 190

GFSSGP_2pvu_pres_060.txt.gz
Presure
203 181 174 105 76 180 170 188 83 107 138 122 122 139 91 102 101 99 94 83 100 143 98 136 137 107 138 140 155 95 138 105 110 125 101 113 114 134 125 119 124 142 133 161 151 138 120 132 132
183 203 206 136 167 163 169 189 150 124 116 136 121 139 118 101 96 105 101 95 95 93 96 91 97 114 135 145 105 141 137 129 112 98 130 105 128 113 122 122 113 113 132 128 156 127 101 125 144
122 200 207 198 172 154 159 190 174 99 148 104 137 123 97 103 106 104 117 114 98 102 107 99 122 99 135 115 135 86 141 103 109 132 113 115 113 124 114 124 130 163 137 135 108 92 103 115 108
208 185 201 149 179 163 151 178 172 102 158 98 155 122 147 73 151 137 112 98 121 139 115 110 111 122 133 105 110 148 139 136 130 123 104 114 137 100 116 126 115 128 173 103 110 118 108 109 121
231 214 167 197 195 169 198 136 73 182 123 151 100 71 87 96 77 81 153 160 115 114 143 125 114 136 131 116 128 145 159 134 141 112 112 114 97 101 103 110 110 124 138 142 104 132 119 126 120
198 221 197 170 193 173 170 168 163 174 158 158 161 88 86 77 85 78 149 159 94 134 125 128 130 140 147 122 117 148 138 138 141 153 139 143 122 150 151 104 132 129 124 132 162 115 135 138 142
239 217 204 190 191 197 131 168 182 185 175 174 131 77 107 126 88 152 148 151 152 156 158 151 154 149 145 131 118 148 141 136 127 143 135 133 135 150 139 123 112 126 137 113 128 113 127 137 141
211 195 101 200 182 193 181 139 167 174 189 172 169 158 77 76 140 80 117 146 147 146 84 88 156 148 147 148 139 135 128 149 162 119 128 132 123 121 140 136 134 135 147 132 139 130 136 139 133
212 219 120 211 202 210 208 186 177 174 203 165 172 151 75 76 72 139 78 108 79 75 78 79 75 154 144 153 128 123 135 136 147 153 133 127 129 128 128 141 137 143 131 144 113 109 143 142 131
201 221 197 185 207 171 204 191 186 174 179 151 158 158 107 160 127 79 97 75 101 72 118 76 76 112 79 119 119 103 83 137 130 145 131 133 129 123 138 147 145 134 124 110 156 157 150 143 131
214 186 140 231 247 217 129 216 193 194 154 166 191 173 155 157 161 78 91 146 80 81 77 74 78 78 75 76 76 77 122 121 116 125 127 87 146 133 124 141 139 141 94 147 141 139 141 147 136
190 81 217 198 233 190 99 148 203 191 202 194 186 164 158 165 149 85 122 88 106 87 83 77 80 79 143 73 84 87 84 85 77 83 148 146 152 106 149 134 137 134 130 136 148 141 119 149 143
200 189 204 220 167 131 107 195 162 183 182 191 168 196 166 171 166 168 167 165 147 106 76 105 82 77 111 159 84 100 89 146 153 86 130 84 89 153 151 145 144 142 144 144 138 138 136 146 134
223 196 191 212 201 205 195 171 204 213 181 203 211 172 174 178 152 146 165 159 158 156 158 151 148 149 152 150 146 150 148 152 131 148 127 111 160 151 132 151 151 145 145 142 152 151 151 149 145
219 208 198 194 239 190 232 178 181 149 196 180 210 209 162 184 143 177 175 160 159 161 159 162 154 154 161 145 137 144 152 146 152 135 136 145 143 142 150 158 156 152 152 153 146 150 148 147 154
248 221 211 202 233 214 241 158 141 186 167 188 182 184 143 157 172 126 139 182 161 161 156 162 160 159 167 162 156 125 142 146 144 146 149 142 134 133 135 139 134 138 139 142 141 143 154 143 137
258 239 217 212 201 234 206 228 122 180 176 155 148 186 179 182 171 158 185 145 185 155 147 159 156 168 162 154 157 146 153 154 143 148 149 150 145 145 131 139 137 135 141 146 139 152 148 156 145
227 254 240 224 207 188 213 173 184 176 180 141 151 154 185 177 212 208 201 182 174 187 161 166 146 166 161 162 156 157 157 160 143 143 143 147 151 148 149 150 141 144 145 150 144 150 141 153 160
251 256 245 187 217 238 231 207 186 188 184 179 185 160 157 192 222 189 171 211 140 200 154 174 173 123 169 168 168 163 158 151 154 153 146 144 146 154 158 150 143 149 150 147 149 161 148 155 159
277 261 250 243 235 219 243 214 205 185 141 188 177 173 191 165 214 196 188 171 169 201 198 178 189 176 158 174 136 166 164 159 156 163 154 149 145 146 152 147 150 155 138 149 144 162 149 150 155
327 267 252 247 242 232 217 234 209 219 189 182 182 182 157 195 194 181 194 189 186 190 199 197 175 169 190 132 186 179 175 133 165 158 166 160 153 139 145 128 123 147 127 155 153 151 139 152 153
283 279 261 251 246 243 232 235 229 205 205 190 184 185 185 178 185 204 211 202 191 190 180 168 195 175 181 182 121 184 177 175 180 155 133 125 139 160 150 144 158 159 154 145 151 132 157 152 154
271 272 271 261 254 249 244 232 237 226 202 217 194 187 184 192 188 170 186 157 219 198 185 184 178 168 170 189 165 165 187 189 188 178 168 164 159 162 163 163 161 158 137 155 151 160 162 160 164
286 265 268 270 263 256 249 242 229 232 221 212 203 212 191 186 185 198 196 186 189 210 220 204 190 181 167 155 174 168 183 172 187 187 186 180 168 175 166 163 170 163 159 162 160 154 153 157 151
295 262 266 271 267 256 251 244 237 228 225 223 211 207 200 198 189 187 192 196 189 194 215 217 216 194 181 129 132 138 159 158 182 187 186 151 188 189 187 163 171 167 163 161 168 167 172 164 178
304 297 254 268 264 265 253 249 244 242 234 222 227 216 210 203 195 192 189 205 204 189 162 217 218 216 208 191 188 148 168 136 164 185 170 179 188 151 127 183 185 186 181 178 176 175 175 171 165
300 294 292 262 262 262 268 265 249 251 256 239 230 220 211 209 203 197 201 198 195 203 194 242 232 220 129 202 200 194 184 179 180 161 155 140 164 150 191 190 185 160 161 176 176 176 175 178 181
301 291 296 300 258 255 279 279 261 269 266 262 253 238 231 224 217 210 205 158 211 212 211 199 221 241 220 214 211 161 137 164 174 133 176 173 177 178 174 194 192 190 187 179 173 186 185 174 173
297 294 294 287 274 250 252 275 270 277 277 266 290 296 260 245 236 235 228 218 217 224 231 225 203 265 258 235 221 213 206 196 164 187 185 168 167 152 131 129 164 153 186 159 171 157 166 149 164
308 295 290 293 284 286 244 259 255 270 285 124 266 278 279 308 260 263 246 257 247 245 254 248 244 213 247 266 266 244 220 212 208 205 205 169 172 177 170 163 146 153 161 165 164 161 169 172 181

GFSSGP_2pvu_pres_063.txt.gz
Presure
209 214 195 193 157 211 169 190 102 134 79 145 103 99 92 95 96 82 128 108 97 87 89 101 99 100 98 106 124 120 124 152 99 153 105 94 127 109 109 117 133 113 127 112 128 131 119 145 100
164 218 144 162 188 127 184 184 157 108 121 82 123 113 104 106 81 99 97 99 95 88 100 113 144 98 95 158 123 133 157 149 142 122 145 119 102 113 133 115 124 114 119 125 124 151 131 135 122
183 226 240 193 155 174 143 177 180 175 161 140 91 110 110 109 103 94 94 105 93 88 89 97 94 82 94 100 101 113 89 106 86 136 134 120 120 124 112 114 116 114 103 110 124 127 147 104 122
188 183 203 173 209 160 174 158 120 176 165 144 140 136 98 149 129 147 123 104 120 101 103 106 86 98 102 138 122 91 150 147 115 129 139 125 136 127 98 112 102 93 106 96 106 122 114 152 165
197 192 181 250 200 185 198 167 161 177 121 167 184 128 85 96 123 119 133 139 100 110 85 97 155 116 136 111 108 108 101 100 127 151 143 137 134 117 112 108 110 111 101 125 105 144 146 125 145
215 193 187 182 140 194 184 190 133 174 77 123 168 156 142 149 120 126 98 88 112 88 111 147 111 110 126 141 129 123 116 134 111 133 142 138 133 142 136 126 141 115 126 138 161 125 108 129 153
197 180 170 173 206 240 186 175 161 186 177 172 66 75 142 145 96 77 89 88 90 107 157 156 148 115 125 136 111 118 128 148 130 131 149 140 126 149 140 139 138 123 116 143 139 146 133 128 125
223 200 146 195 152 227 186 170 181 164 171 169 181 154 153 159 80 122 77 92 145 146 153 148 154 147 153 145 144 144 124 162 131 124 116 142 138 135 118 148 140 125 110 120 137 141 138 134 90
213 201 182 156 193 212 222 172 162 188 126 152 181 160 150 153 155 71 79 93 90 127 117 144 153 158 81 156 94 156 153 143 134 133 133 145 129 139 161 134 125 136 146 144 130 139 138 128 135
238 204 207 188 191 182 195 208 199 183 175 180 151 136 169 169 72 78 128 123 116 138 125 101 80 98 77 77 77 76 77 113 141 83 101 132 126 139 139 136 151 126 130 127 123 143 114 135 126
219 186 185 198 194 189 213 201 195 197 61 177 171 162 165 180 158 111 78 81 97 77 100 78 75 76 77 77 78 72 142 77 79 84 118 131 144 122 88 83 98 131 148 147 139 133 134 145 141
257 250 239 201 190 186 155 99 193 202 187 177 163 185 157 167 177 112 111 75 163 83 75 86 85 76 78 78 75 91 78 77 81 83 151 139 83 84 78 157 149 139 149 149 144 149 142 143 144
265 257 191 175 203 183 175 105 93 185 209 184 174 163 166 166 183 144 126 128 171 128 82 84 78 81 109 78 83 78 76 123 150 133 125 112 159 134 147 101 85 108 152 153 146 150 150 148 144
284 235 233 231 216 186 196 221 225 185 198 208 196 177 139 162 178 181 153 138 169 132 96 155 152 87 73 75 78 82 84 83 102 147 123 89 106 125 145 143 153 135 143 159 151 153 159 154 154
290 248 216 190 220 214 200 200 235 192 173 233 185 197 186 166 168 184 174 168 167 126 156 161 166 116 145 154 153 137 149 159 146 145 152 144 145 150 142 121 140 134 144 142 143 142 140 143 140
296 262 239 195 189 112 191 203 186 149 186 101 219 194 197 185 170 162 174 176 170 165 161 144 161 162 165 158 161 162 160 148 148 147 141 145 153 149 146 151 137 146 137 136 132 134 129 136 134
298 265 255 233 248 188 224 186 207 202 232 118 187 155 195 192 174 170 161 167 184 168 166 134 158 137 168 149 151 150 150 157 153 152 143 126 144 138 139 143 142 150 148 149 147 127 148 144 147
146 80 185 252 222 209 227 183 191 133 206 220 227 214 160 199 176 182 153 141 188 186 140 152 157 155 162 139 161 162 157 162 154 153 151 165 159 142 144 140 140 142 141 146 152 152 158 155 150
295 276 266 256 230 268 241 187 186 207 166 187 223 151 163 189 198 173 170 174 165 170 174 178 182 139 173 160 123 134 163 162 161 157 157 159 151 157 150 151 155 150 153 145 143 140 152 149 145
293 278 269 204 252 209 259 196 195 188 205 185 221 221 159 144 156 205 186 181 188 187 164 176 180 179 176 167 181 173 166 162 163 163 151 152 158 157 158 151 151 151 154 153 158 155 150 141 128
312 274 269 264 250 238 236 199 196 191 186 214 182 231 222 171 167 155 151 178 179 183 184 200 170 163 167 177 176 176 165 154 170 172 173 167 165 156 163 163 156 153 155 153 162 163 140 120 156
316 289 272 259 252 244 228 206 202 197 188 186 230 181 159 171 173 170 146 152 152 167 176 172 177 172 188 192 194 182 190 178 193 182 125 154 179 170 167 141 163 162 161 153 140 144 149 138 162
274 288 278 266 252 254 247 229 206 204 198 194 190 220 188 228 175 171 148 180 155 155 156 194 181 177 176 166 160 186 200 190 185 135 125 175 132 169 186 189 184 181 173 128 171 164 162 167 169
264 284 281 288 266 258 254 241 226 216 209 208 199 177 216 186 182 181 182 176 179 163 179 180 163 206 225 180 183 193 160 195 191 189 188 144 126 135 185 186 172 186 175 180 183 164 177 174 179
260 275 290 282 283 262 259 253 242 231 226 220 209 202 230 210 186 179 176 179 179 178 146 156 177 194 152 191 195 183 182 183 154 156 158 185 188 161 177 168 155 163 184 187 184 158 178 169 155
273 256 268 281 302 270 255 248 249 242 236 230 221 211 209 227 212 195 179 172 172 175 180 182 182 185 177 222 221 218 199 168 185 175 173 172 160 145 180 183 189 182 166 172 173 160 176 147 169
306 272 257 266 270 296 265 253 248 244 245 234 229 223 218 216 232 222 194 226 188 178 180 183 184 184 185 189 188 175 160 216 211 201 204 182 134 131 126 123 148 130 142 146 161 126 141 154 153
273 288 297 260 265 255 259 263 259 249 251 248 236 232 229 226 222 225 229 229 191 185 182 182 184 184 187 192 195 196 195 191 190 204 221 219 201 196 183 181 165 143 173 132 97 152 156 163 147
270 276 291 275 254 259 253 257 262 263 260 261 255 243 237 234 231 227 232 227 220 206 192 191 189 190 188 188 190 192 198 201 200 192 191 221 220 216 210 197 126 184 152 180 185 179 171 179 167
269 307 296 292 290 290 247 255 258 256 264 269 259 253 251 243 235 235 233 228 223 224 221 214 208 194 192 192 192 191 193 196 210 210 202 191 237 228 216 218 209 197 197 198 153 178 175 155 142

GFSSGP_2pvu_pres_066.txt.gz
Presure
192 115 120 195 203 184 165 163 161 166 130 146 110 94 108 102 90 131 146 160 160 116 139 102 168 122 107 106 98 94 144 124 99 141 122 122 139 140 110 110 111 124 111 117 122 119 111 133 125
196 132 154 124 97 205 154 84 172 146 132 102 83 114 93 91 93 95 89 87 87 95 93 156 158 95 117 96 102 116 105 113 113 138 127 151 151 157 133 136 113 104 121 116 110 108 111 103 122
124 128 107 189 201 171 209 176 101 108 172 159 131 84 114 102 99 85 88 89 96 95 99 91 89 96 91 84 106 95 90 96 95 132 138 88 143 143 127 130 132 129 111 108 103 88 108 111 105
198 209 167 121 220 197 69 87 182 195 167 142 149 99 92 125 114 104 103 102 94 107 103 165 86 95 97 80 123 120 101 113 141 101 126 105 154 148 147 139 137 145 112 92 123 150 123 136 144
186 214 217 185 177 187 178 149 185 72 161 178 171 157 155 103 100 125 104 142 112 101 102 103 109 98 160 145 99 103 147 110 110 107 108 139 107 122 132 134 138 136 135 126 128 115 123 136 147
195 221 217 186 158 157 197 169 151 170 168 169 157 174 156 136 161 133 97 104 111 110 102 110 92 89 98 103 127 160 107 122 136 113 118 128 147 118 126 141 137 123 143 141 146 143 115 122 123
255 192 218 194 139 160 185 164 155 171 150 199 92 68 128 169 78 148 146 108 124 145 147 83 105 153 110 128 113 117 142 114 143 134 121 118 121 134 130 133 144 129 153 140 148 152 129 117 129
211 228 208 217 168 174 207 198 199 170 145 190 80 179 159 149 163 174 155 124 143 133 85 82 135 164 156 155 118 145 116 116 142 126 127 122 128 137 126 126 144 144 142 136 135 125 125 135 126
210 236 185 201 194 190 155 182 202 107 180 185 169 172 73 76 169 113 133 77 97 98 89 90 98 131 128 160 131 139 150 86 134 158 158 148 125 134 128 135 128 142 131 141 144 143 132 137 138
280 267 224 218 209 183 175 137 193 219 170 182 184 160 159 133 158 161 156 77 82 106 100 99 106 121 137 123 152 78 76 81 77 78 133 127 107 91 140 132 139 130 109 129 122 129 141 137 143
193 264 142 226 218 154 177 166 184 218 187 171 186 168 183 173 172 159 170 74 78 74 125 157 120 139 144 81 79 75 79 77 78 77 77 81 81 82 83 136 146 92 93 111 134 153 136 116 151
289 278 247 204 224 197 137 173 171 200 203 182 145 193 182 178 159 161 170 79 78 77 83 80 143 77 83 81 76 78 81 76 83 76 78 157 88 85 82 143 156 132 75 139 138 99 154 157 149
292 274 257 245 201 226 199 169 179 180 209 198 183 173 171 171 146 154 167 181 166 97 78 78 114 82 79 107 83 83 83 88 77 77 82 88 81 81 145 115 84 142 134 144 146 156 157 144 149
303 287 259 241 234 215 161 200 188 175 212 188 223 176 162 197 177 161 158 182 153 81 126 83 89 100 81 88 106 95 76 79 76 83 83 132 100 82 140 148 147 151 153 142 152 144 126 139 133
296 271 254 253 223 206 162 197 177 184 177 202 209 105 182 166 172 174 161 181 176 169 174 158 164 159 148 80 82 81 77 84 105 144 137 90 124 132 142 146 143 144 157 141 151 145 139 139 136
288 285 297 276 227 234 182 208 72 189 188 183 105 103 117 184 188 173 189 159 177 161 182 128 152 163 152 168 160 159 162 149 149 152 152 148 139 141 149 158 146 145 148 147 150 140 146 150 148
293 280 298 291 252 233 219 207 225 207 131 184 182 153 163 199 192 165 172 171 156 160 177 179 174 162 148 124 163 162 161 158 151 144 153 149 155 151 152 150 147 141 126 158 148 129 129 151 142
335 254 78 237 260 138 231 182 141 177 188 188 186 185 209 165 167 187 162 178 173 149 169 162 179 180 171 148 171 132 160 137 160 153 165 162 163 161 153 149 154 149 149 153 160 158 143 148 151
259 293 290 278 252 248 164 206 183 214 206 186 188 190 184 207 199 191 163 169 155 174 171 165 165 178 180 170 160 168 162 160 142 153 159 144 148 165 162 156 159 159 160 153 158 157 158 157 157
265 301 279 282 271 264 255 240 198 231 203 202 189 192 188 206 218 211 182 200 191 182 169 172 168 175 167 182 177 159 162 158 159 169 163 119 162 163 159 160 161 165 161 152 151 160 163 159 164
275 303 298 266 262 256 273 255 256 197 196 199 201 198 194 195 199 180 185 178 202 190 189 175 181 168 167 164 170 172 178 155 161 165 160 166 136 118 175 174 168 160 163 170 170 162 159 142 158
273 277 286 287 272 265 270 254 233 225 181 190 170 204 200 202 186 198 218 209 163 153 160 186 186 182 175 175 163 132 162 140 187 174 177 178 174 182 125 164 149 143 133 126 190 184 177 182 183
281 278 306 272 282 289 275 269 246 225 206 191 221 176 207 191 197 196 183 141 218 215 181 160 187 174 199 170 171 178 179 177 171 174 172 162 161 162 176 180 172 194 196 200 155 133 189 194 190
284 305 343 287 268 281 149 269 264 243 218 211 232 185 193 179 189 198 206 177 219 175 146 162 155 173 191 187 177 181 181 193 183 185 189 171 172 178 167 190 126 198 203 196 182 154 172 190 190
337 275 299 338 307 273 275 268 270 265 236 211 216 225 187 186 180 184 193 209 176 199 226 163 160 155 153 152 151 151 154 177 176 174 174 170 171 173 177 195 193 188 180 180 185 188 183 168 165
330 282 264 322 318 279 265 259 257 259 247 238 211 254 240 195 189 178 180 182 200 207 170 230 228 169 170 144 149 182 153 152 152 160 157 186 182 183 202 200 180 179 130 184 177 185 147 162 134
276 318 271 260 296 280 283 261 258 256 255 247 236 213 219 204 197 192 188 181 182 183 218 187 233 205 178 175 179 178 187 170 168 172 202 192 154 178 222 211 188 184 185 181 181 185 127 133 124
311 306 292 262 262 283 279 294 267 254 255 253 243 233 224 214 208 202 200 199 193 183 187 222 219 174 229 208 206 177 180 181 169 178 180 177 164 185 177 154 201 207 196 200 201 199 198 197 195
293 307 292 260 267 284 279 281 269 266 257 255 252 248 237 230 224 215 212 207 207 202 198 192 208 221 195 182 193 203 177 179 177 180 160 185 185 186 187 188 189 188 189 188 180 178 187 198 211
272 267 293 294 295 252 250 282 276 278 275 267 264 261 251 243 236 231 228 226 221 221 213 210 229 195 220 217 195 203 217 211 191 184 182 118 184 186 185 185 183 187 190 192 202 203 191 189 186

GFSSGP_2pvu_pres_069.txt.gz
Presure
131 185 127 150 115 146 130 181 180 177 124 78 85 94 91 97 95 110 131 149 159 153 112 156 87 125 156 132 160 107 93 96 134 111 126 111 141 143 124 138 151 132 136 123 108 115 99 106 103
200 131 185 130 115 128 138 172 185 191 154 133 159 144 141 89 104 100 105 125 149 157 147 167 133 145 109 93 153 91 108 94 107 135 103 119 138 132 137 155 153 164 144 129 116 131 127 108 124
244 243 134 100 200 144 139 200 98 191 164 150 93 104 112 126 98 116 98 88 80 83 90 157 159 155 154 162 151 86 91 130 147 96 120 114 126 102 95 119 145 152 140 140 139 141 131 122 90
181 127 132 188 194 175 157 136 199 101 129 177 167 161 157 84 140 102 102 114 96 83 94 92 114 88 143 98 91 93 101 147 118 150 105 126 107 100 105 115 115 127 149 145 136 139 140 143 138
202 219 221 204 192 183 153 204 197 181 217 162 168 155 163 110 91 109 114 101 100 98 97 93 97 96 139 159 143 95 147 103 112 150 135 152 120 118 118 116 132 144 143 144 143 138 121 126 145
206 259 190 195 184 192 179 147 111 121 197 156 155 180 164 153 125 89 89 113 116 102 107 102 99 103 100 133 85 105 97 118 132 114 108 130 130 134 133 122 129 118 123 131 125 145 136 152 135
287 198 227 203 100 201 190 165 121 216 205 174 163 169 176 150 96 158 142 100 99 118 143 147 141 111 102 121 91 101 106 155 109 120 146 134 123 142 134 133 125 120 106 134 126 140 141 147 135
294 195 252 216 191 194 206 172 158 187 160 182 177 165 182 169 150 162 156 152 134 103 141 105 107 103 92 122 96 106 150 128 114 116 118 111 112 117 119 125 121 131 138 128 125 127 84 130 145
289 278 257 215 200 183 206 189 158 149 166 173 161 185 137 165 73 163 154 144 155 138 163 141 149 108 141 90 160 165 161 144 144 131 116 120 132 124 121 109 125 135 110 144 120 168 112 137 134
297 296 252 231 199 188 207 206 189 169 218 171 191 165 184 142 116 144 152 157 155 123 144 141 142 81 145 122 134 118 164 157 96 126 96 113 152 155 81 80 82 83 136 136 78 116 157 162 134
303 296 283 145 247 208 200 201 201 168 127 183 159 177 176 173 185 131 175 128 129 158 76 159 152 116 93 94 118 115 123 118 79 79 76 79 77 83 135 128 83 85 82 91 155 154 98 139 136
300 290 303 282 227 238 179 210 184 174 153 74 183 189 174 172 172 176 106 142 161 160 77 76 77 147 93 79 134 131 77 129 82 79 84 79 76 83 157 150 72 145 77 151 145 143 147 155 151
306 296 290 195 274 248 183 194 202 190 173 176 194 188 171 160 175 166 176 151 175 144 162 86 75 126 75 109 133 77 126 101 81 102 98 76 101 82 84 112 116 117 153 150 145 145 137 152 147
302 290 296 292 276 152 233 190 207 187 182 170 193 178 161 182 166 184 183 173 181 148 165 81 82 126 77 81 81 77 80 81 93 76 77 115 107 86 140 129 150 148 133 150 147 149 145 144 140
297 292 289 291 273 245 251 112 185 207 191 173 174 189 177 200 164 179 181 164 178 177 176 176 83 113 79 73 86 75 79 81 76 76 131 79 83 146 147 137 136 136 135 133 136 146 137 155 148
314 293 294 280 284 261 246 117 177 197 197 190 164 175 184 191 182 176 191 177 169 174 157 173 168 150 170 96 161 150 154 152 161 83 148 149 122 140 145 151 153 155 155 145 146 139 139 148 142
319 298 293 279 280 269 259 228 209 207 203 185 168 171 176 192 204 180 157 152 185 170 174 181 172 166 165 172 167 161 163 155 150 156 155 153 155 155 157 153 146 148 153 152 150 151 159 149 151
317 296 299 280 276 289 260 241 254 223 197 203 110 173 171 173 196 159 123 128 97 179 169 177 140 168 157 177 176 162 155 123 160 135 135 137 158 156 159 158 154 150 152 159 167 162 148 162 155
320 283 159 276 291 272 258 240 231 191 119 183 210 161 70 93 174 200 180 191 131 175 156 173 173 131 157 149 182 165 166 168 164 159 162 160 160 164 159 156 162 126 151 164 162 163 164 160 160
336 287 281 287 276 272 257 265 240 242 206 233 215 193 191 179 176 196 190 180 205 215 180 166 184 175 175 175 139 138 154 181 177 164 140 167 157 158 167 162 162 161 167 122 135 159 167 171 142
337 292 271 274 282 263 270 259 187 239 281 170 203 219 196 176 182 174 184 193 188 216 190 180 175 179 170 166 187 170 156 149 160 171 175 177 163 160 161 168 144 167 160 166 169 129 125 136 179
356 340 269 268 275 280 245 269 271 254 240 259 195 172 175 202 182 179 72 171 192 195 212 188 114 180 167 166 166 166 175 169 170 168 167 179 164 179 176 172 172 174 175 165 165 181 177 148 169
300 350 287 277 273 274 253 261 277 268 264 220 228 219 210 207 207 182 181 175 171 184 193 220 167 185 192 181 165 162 168 171 168 171 168 169 171 166 163 168 169 169 181 152 194 187 164 182 199
318 366 272 266 273 268 269 269 276 276 271 272 215 221 228 183 220 193 161 151 181 179 173 194 201 178 162 149 181 143 181 192 176 176 172 181 172 176 179 178 191 174 175 177 185 181 184 177 144
344 291 268 272 286 295 267 274 277 287 269 267 257 218 234 216 216 178 199 188 180 184 184 185 189 204 211 191 196 181 169 151 158 187 189 187 188 184 185 198 181 180 171 164 187 182 147 177 180
320 302 303 279 283 287 292 271 289 282 286 290 267 250 232 234 185 216 213 200 196 192 198 192 186 184 190 204 206 158 194 148 171 170 200 183 185 164 154 149 79 149 150 164 168 177 175 177 172
336 351 282 279 262 279 281 281 284 279 286 277 275 280 244 222 258 196 178 218 202 185 198 200 197 192 189 187 195 221 220 211 146 153 203 158 159 156 152 151 163 202 210 170 168 187 156 192 186
296 311 337 276 295 270 287 262 271 269 260 272 283 272 272 240 221 251 194 185 180 166 202 183 200 207 192 194 201 198 180 206 223 224 193 147 169 158 168 169 178 187 145 148 169 175 192 209 176
295 288 339 326 266 263 300 277 277 269 280 266 275 276 284 261 255 227 212 197 191 221 208 184 182 183 181 184 184 188 200 213 196 163 163 162 162 209 163 180 177 173 180 176 172 175 179 180 171
281 294 282 323 301 262 259 327 324 294 294 279 269 270 268 264 265 257 234 215 206 206 232 224 213 193 191 190 184 181 182 182 183 234 211 206 167 182 181 173 172 174 170 173 180 176 169 174 173

GFSSGP_2pvu_pres_072.txt.gz
Presure
186 277 139 135 99 132 126 129 152 176 165 79 169 171 130 96 95 86 85 139 145 149 142 142 115 105 82 107 149 115 142 94 94 110 137 115 124 117 137 113 142 148 130 137 153 165 123 141 108
330 317 115 219 162 129 149 102 110 136 183 175 73 116 159 98 93 96 89 113 91 156 140 137 152 150 157 114 157 146 100 142 164 89 133 100 94 118 121 139 98 124 119 155 129 146 141 134 137
338 320 209 115 214 149 145 114 123 141 101 180 128 169 78 143 101 107 102 94 98 145 139 150 160 151 141 146 104 145 88 84 120 95 151 141 108 113 98 96 110 110 104 114 155 150 106 143 140
302 319 135 335 185 176 161 125 100 114 117 182 179 106 181 150 158 120 95 95 94 90 84 127 91 160 153 126 105 93 94 88 137 157 101 154 133 153 153 159 115 119 137 123 116 106 146 138 136
283 320 263 333 203 195 142 152 141 152 118 118 175 156 183 145 158 156 119 93 107 90 79 87 105 139 164 89 104 117 147 102 103 91 97 104 106 150 138 149 134 132 135 122 134 118 141 134 129
351 322 318 291 238 152 118 130 134 163 164 127 143 143 180 165 177 163 120 128 121 101 90 91 96 94 96 92 118 92 153 123 122 91 142 154 140 109 118 149 135 138 136 132 126 130 131 125 129
153 310 316 157 288 76 107 187 180 172 178 198 137 161 177 133 126 189 154 88 109 143 110 99 102 97 101 103 99 105 101 95 104 101 99 112 108 116 115 140 125 119 117 125 121 129 130 132 136
357 312 319 318 227 248 182 196 187 176 157 160 144 132 183 171 168 174 150 84 160 169 100 104 124 113 106 91 102 105 103 156 101 108 116 118 158 116 122 116 120 121 132 141 124 143 76 152 143
341 306 324 309 217 217 216 208 187 188 167 182 103 201 143 155 125 168 167 171 150 126 161 93 97 106 94 103 127 117 109 100 125 112 110 140 156 145 151 153 114 145 120 119 98 156 128 84 130
341 325 238 305 295 259 237 177 201 188 173 170 175 132 130 188 159 170 152 159 171 126 158 156 153 127 116 133 136 130 94 115 112 158 164 148 146 74 78 109 142 84 151 101 80 120 152 144 143
344 353 323 232 292 271 196 222 186 191 187 98 90 196 139 126 178 167 166 85 159 147 153 158 159 126 146 140 148 140 149 134 146 147 82 123 76 81 72 82 112 92 132 145 108 153 146 157 152
349 321 325 297 290 271 188 228 224 189 190 178 179 188 207 217 176 177 178 168 168 162 163 158 140 155 157 151 85 78 134 93 84 137 121 118 77 72 83 148 111 126 122 91 89 153 147 150 151
354 314 313 293 289 263 235 231 217 183 186 187 167 161 170 179 189 176 182 161 171 142 158 160 143 148 73 120 152 75 83 83 135 144 103 74 112 72 80 78 83 142 136 131 149 135 150 152 149
358 310 306 294 285 292 193 240 210 188 104 193 184 164 174 201 198 158 163 168 163 177 121 78 161 153 150 76 75 107 80 83 144 105 72 123 86 78 126 98 83 84 134 103 139 137 134 134 134
342 311 301 298 280 280 263 218 142 192 185 183 190 174 166 177 196 155 198 163 173 172 155 205 141 116 167 163 135 81 147 78 76 74 133 125 80 83 81 147 119 142 139 141 140 142 150 149 151
330 309 298 296 284 278 271 189 221 196 179 187 190 151 170 170 192 188 184 203 182 165 173 179 183 168 98 157 164 152 80 75 78 80 79 83 145 92 148 150 148 150 152 152 151 152 146 143 150
326 305 297 292 283 270 272 250 234 191 132 184 189 189 180 170 155 141 157 166 176 201 177 170 175 171 173 143 174 163 83 129 160 117 169 165 153 150 146 146 149 155 146 156 157 156 160 161 158
344 308 294 289 284 271 286 269 213 225 197 186 144 190 179 167 166 163 183 185 180 193 159 160 176 165 183 165 156 181 173 152 160 150 156 159 163 162 158 163 160 154 136 163 162 154 162 159 164
351 324 286 289 274 283 266 274 252 213 209 196 214 218 121 186 171 165 183 187 193 194 228 233 168 167 176 187 179 167 175 178 167 169 159 159 171 165 126 151 163 160 158 165 168 163 134 162 170
325 297 278 277 273 272 300 267 283 260 217 217 196 202 201 180 108 150 157 177 194 195 184 123 102 99 178 180 159 169 166 175 176 155 158 149 160 172 164 155 164 166 166 159 159 156 161 162 149
324 291 304 278 280 281 274 287 256 269 254 244 217 177 188 203 178 89 175 164 159 184 189 191 202 111 138 174 181 170 159 173 170 181 176 147 156 178 143 159 157 164 168 165 168 170 178 174 178
323 269 272 291 291 279 267 268 282 287 281 264 226 205 192 187 205 172 173 173 171 170 161 187 195 199 181 178 182 167 161 157 151 166 175 163 170 163 156 135 176 162 166 183 173 174 175 155 165
311 284 268 266 272 272 267 268 264 268 274 267 257 223 192 206 198 195 186 177 161 162 162 165 186 191 198 167 167 191 209 164 161 188 178 183 188 186 180 181 171 172 181 180 185 172 168 173 177
316 296 274 278 261 265 266 281 260 269 291 257 206 242 218 199 181 189 196 188 172 168 156 162 171 176 193 195 176 179 197 201 175 144 178 172 176 175 169 177 178 180 176 176 175 172 174 164 163
297 355 274 267 268 273 275 278 259 261 263 279 299 257 241 237 202 211 185 196 165 170 166 171 168 171 169 177 182 202 177 196 220 202 188 182 179 181 143 177 180 178 210 201 206 205 192 156 149
321 355 266 261 282 275 261 262 273 260 267 266 284 283 256 225 235 225 206 169 205 196 183 179 160 167 174 169 163 172 181 181 190 200 195 198 163 178 181 142 196 200 177 190 187 149 145 150 146
336 309 289 270 267 271 277 274 277 260 270 269 265 269 284 266 233 254 217 207 183 207 207 210 187 172 170 174 176 169 169 169 169 186 189 194 191 156 184 188 192 176 150 150 152 164 173 169 168
309 342 335 279 272 271 281 270 262 278 277 281 279 267 266 277 288 248 236 239 216 193 198 200 210 208 198 179 155 179 174 178 173 179 183 189 190 186 197 172 198 188 190 192 196 199 204 161 173
305 324 316 301 278 258 261 276 277 267 267 269 284 280 275 280 290 303 303 206 210 201 207 198 211 214 207 207 195 182 174 177 182 179 175 173 175 180 181 188 201 207 209 183 210 182 211 206 221
285 298 318 317 277 300 286 277 278 271 276 283 289 301 293 305 282 295 295 286 264 205 204 201 217 216 185 183 214 212 208 165 206 219 184 187 185 185 186 185 190 197 206 216 222 208 193 194 217

GFSSGP_2pvu_pres_075.txt.gz
Presure
142 121 126 142 148 109 265 194 141 156 69 122 158 137 177 149 95 125 94 129 142 138 146 100 92 150 167 106 86 99 143 143 110 101 97 161 134 125 94 122 121 129 97 116 111 129 108 114 142
104 143 150 125 143 159 248 178 168 160 133 135 148 167 136 162 94 121 89 84 82 129 134 157 149 136 155 170 96 108 149 146 96 113 123 154 127 104 121 140 118 94 92 116 118 101 112 110 148
119 140 145 163 153 139 253 248 157 124 130 114 123 175 161 156 158 83 90 122 92 108 107 130 138 153 158 128 137 157 113 150 100 93 90 101 149 115 157 103 135 105 150 107 117 126 124 122 130
135 135 150 172 171 110 255 233 118 117 89 157 103 126 144 169 76 178 137 101 95 87 97 110 138 140 87 152 134 152 154 157 89 86 149 93 123 120 124 134 102 95 153 156 158 143 135 142 136
134 109 125 86 357 349 270 202 219 73 120 103 138 100 106 168 176 85 175 175 126 118 93 96 99 127 142 133 157 158 88 89 96 87 109 96 89 96 103 125 101 138 115 147 152 109 133 142 125
136 134 128 132 360 236 277 251 128 221 151 169 143 161 156 111 188 127 182 126 159 91 93 100 83 81 118 124 137 154 88 150 126 154 94 95 106 131 155 136 104 152 110 109 153 151 138 134 144
183 113 97 144 337 350 141 87 184 226 214 154 61 148 133 128 150 170 176 167 179 143 86 95 104 90 90 92 151 133 83 165 97 159 101 94 102 116 114 110 109 136 140 126 125 93 137 90 77
153 154 143 376 323 75 119 123 255 224 228 110 144 127 151 149 120 165 172 169 143 168 132 141 102 128 106 98 106 92 96 95 103 94 97 98 100 99 111 109 112 155 150 148 107 149 148 83 81
171 121 156 362 332 277 317 140 280 233 198 204 168 126 182 148 155 154 146 152 160 161 154 153 86 116 150 141 100 100 100 98 101 99 103 107 125 104 134 115 159 143 152 147 136 145 100 140 153
138 173 255 343 349 234 301 314 198 241 189 184 172 143 168 155 154 158 158 176 143 157 110 177 162 155 153 93 107 106 108 114 105 118 99 129 106 105 170 158 151 151 110 82 127 88 89 137 153
322 175 390 301 331 321 291 307 294 244 188 182 172 177 172 153 181 166 122 120 188 179 148 176 163 161 160 153 141 139 101 129 122 131 128 140 140 90 111 70 81 77 78 78 124 114 139 127 135
313 159 340 160 315 314 300 284 311 264 217 190 181 175 171 88 187 175 162 153 169 163 168 171 182 176 175 180 157 159 145 152 136 142 140 133 98 72 130 141 76 77 83 114 91 85 84 144 140
363 366 360 317 304 331 292 291 314 266 238 191 187 152 122 159 142 188 175 102 132 179 162 144 162 194 155 115 142 158 156 159 156 107 142 127 146 144 99 70 144 92 82 83 143 84 105 134 132
386 350 346 339 308 319 292 287 313 267 238 213 188 169 175 168 158 188 152 148 133 124 167 159 160 132 144 170 172 148 162 155 98 121 151 82 88 141 153 123 135 146 83 82 142 148 149 151 152
151 151 331 374 305 310 287 287 302 265 238 218 222 175 170 177 165 182 165 172 179 169 162 181 169 167 158 168 158 111 154 150 148 103 86 83 75 76 155 140 138 89 137 122 141 145 147 151 152
168 148 330 324 303 297 278 291 108 277 241 219 202 171 180 175 177 161 153 192 172 180 168 162 167 154 159 155 84 166 163 160 129 141 80 81 81 123 75 79 83 141 149 152 152 150 148 146 151
344 346 327 319 304 294 293 280 283 278 243 223 208 187 179 177 178 166 173 181 144 180 128 131 175 159 169 161 168 162 150 129 157 161 158 108 160 74 115 167 154 168 160 152 154 156 152 153 161
346 338 313 309 308 296 291 295 274 275 247 226 213 200 186 176 183 193 163 162 197 194 176 156 145 167 181 171 158 170 158 171 171 169 169 160 137 154 158 156 145 152 153 168 167 169 154 161 149
341 334 302 296 309 297 283 285 273 268 247 231 207 209 204 180 177 189 182 167 166 170 166 163 159 162 167 159 158 173 169 173 149 162 169 145 148 159 167 171 143 157 160 159 156 161 169 171 169
337 331 290 290 305 314 286 280 279 271 265 230 172 197 203 197 110 172 191 181 166 157 177 217 218 188 147 163 161 171 157 161 175 170 192 169 174 171 147 168 180 176 164 170 156 160 159 167 167
333 317 283 298 285 310 279 278 282 258 257 246 197 208 196 194 177 171 179 124 206 163 165 150 142 144 174 210 160 162 130 187 177 164 157 170 164 173 178 176 158 155 176 177 152 174 147 151 141
329 323 275 273 281 288 270 283 277 269 259 272 215 194 200 189 174 166 148 178 185 202 166 134 158 190 197 193 168 169 213 137 153 168 163 181 169 173 171 173 169 174 165 166 167 184 185 180 168
341 270 277 283 288 283 279 281 271 263 261 255 174 214 213 201 180 187 178 177 173 181 204 220 162 162 171 181 192 188 202 178 167 175 123 156 158 165 177 179 156 166 175 180 184 178 180 144 166
305 300 269 280 269 277 285 278 283 270 270 278 205 221 208 160 181 201 211 185 159 178 185 182 164 161 160 170 150 191 179 152 180 188 189 187 172 182 183 212 196 220 209 170 177 177 181 181 178
318 279 261 265 264 262 280 293 284 260 290 270 273 235 221 212 210 195 152 182 188 164 169 157 172 165 184 188 166 166 161 175 167 172 180 187 197 190 192 189 197 190 192 203 180 184 203 192 196
301 310 266 262 271 277 276 283 254 260 274 282 277 270 238 210 220 217 203 187 170 163 165 179 180 169 171 168 186 171 161 151 158 147 160 158 192 191 185 189 195 177 176 199 196 203 197 136 199
282 280 281 280 262 266 265 265 275 273 259 271 274 309 270 313 200 199 213 203 209 178 189 215 185 180 171 174 178 178 175 172 159 169 167 170 164 176 191 192 188 198 183 187 189 195 197 199 168
287 261 288 274 291 271 265 261 257 254 272 273 272 279 285 273 277 254 243 215 211 201 211 210 193 184 182 175 171 171 180 168 164 153 170 172 171 173 173 174 175 171 175 191 189 197 186 184 197
300 280 271 272 276 290 287 284 278 278 269 268 271 266 274 276 271 274 266 248 223 215 206 197 205 201 192 173 178 181 182 181 183 181 177 179 173 169 175 163 166 166 178 170 180 181 181 179 179
288 300 306 280 271 272 272 267 273 271 268 264 266 263 273 269 270 278 288 282 273 220 220 219 209 199 204 207 207 206 168 191 154 185 183 188 183 182 153 182 181 173 170 176 178 177 180 183 187

GFSSGP_2pvu_pres_078.txt.gz
Presure
121 120 126 119 135 135 123 114 173 142 125 152 194 141 148 151 148 84 103 91 145 144 143 142 92 87 91 91 92 98 89 92 105 89 106 94 107 122 130 155 94 106 157 97 100 125 117 115 134
126 122 107 126 124 131 110 121 146 143 146 199 206 180 86 130 166 164 166 126 90 103 122 141 136 143 97 125 145 104 85 93 99 158 100 137 134 93 149 120 95 157 95 131 127 107 105 136 133
126 140 109 139 117 149 120 123 143 150 141 142 144 134 153 86 133 163 151 160 91 82 104 88 141 143 144 145 148 142 139 154 125 168 141 100 101 128 92 93 131 104 138 97 121 110 108 157 104
136 101 114 114 141 134 132 149 130 143 146 153 116 216 155 132 129 122 179 90 174 95 83 89 107 119 129 135 156 87 131 94 83 154 89 101 153 89 94 96 97 106 103 99 159 117 110 149 153
105 184 103 111 139 143 129 135 152 146 137 247 104 136 191 134 115 89 157 149 163 99 109 147 90 94 114 125 90 143 151 99 121 152 154 145 88 96 91 89 99 102 113 154 109 140 111 112 82
97 134 125 127 93 104 126 148 100 127 148 254 224 85 71 127 130 110 134 166 141 171 159 160 94 96 97 106 124 133 134 146 146 86 84 150 134 165 90 92 128 156 137 104 116 148 136 85 149
107 111 151 113 111 142 128 101 150 133 145 248 229 228 198 98 140 115 107 113 158 139 164 163 151 149 96 76 89 90 118 134 95 86 156 159 149 132 91 103 146 103 110 107 131 152 154 150 77
133 158 123 96 148 151 105 120 150 160 144 257 235 216 223 117 178 153 113 159 116 150 102 173 90 161 103 156 99 89 89 116 132 130 89 96 166 160 94 100 104 119 126 125 122 120 91 154 82
217 126 150 125 160 170 91 85 100 120 131 277 234 216 223 238 152 170 133 111 139 165 154 177 169 166 118 116 140 128 127 98 96 100 103 102 104 101 98 98 99 102 139 103 101 158 83 84 125
158 179 145 110 131 98 138 143 132 168 206 280 229 169 224 229 166 139 132 175 122 146 146 146 166 140 121 159 124 154 125 103 138 99 102 103 107 107 117 77 102 99 120 162 153 87 77 81 137
159 171 147 131 134 160 141 96 154 164 313 281 147 200 210 233 195 170 132 151 132 136 146 159 131 113 171 171 147 150 149 158 159 103 103 101 106 133 124 80 109 129 127 75 99 82 82 82 74
138 135 133 164 139 142 156 169 118 330 322 275 233 141 207 262 207 141 143 128 181 191 126 131 166 169 139 166 172 155 151 159 151 153 151 113 143 81 149 129 101 72 131 136 118 145 136 84 90
167 159 144 135 122 112 151 293 134 305 331 204 252 211 205 217 226 144 157 148 144 177 165 116 156 152 145 141 143 171 169 159 166 163 157 160 148 103 79 76 86 140 74 118 145 135 131 142 149
184 142 355 377 150 343 326 310 320 311 328 290 256 225 198 198 166 168 158 157 162 168 179 191 126 148 166 193 175 153 146 92 178 151 142 151 103 127 151 82 138 99 143 139 129 81 123 118 136
440 436 417 385 335 333 322 305 326 299 296 257 235 219 185 197 172 175 114 138 109 165 171 181 165 154 165 153 116 83 189 149 177 78 156 153 163 114 82 150 79 80 79 82 83 83 87 89 153
467 485 407 127 359 325 297 306 306 294 295 260 206 241 181 230 184 195 165 158 165 168 159 180 187 140 134 125 153 174 165 155 76 182 149 158 118 142 90 79 159 140 79 84 155 159 159 161 161
255 478 461 356 321 298 255 139 281 293 299 309 233 216 200 218 177 199 157 164 155 157 164 154 168 179 168 146 158 176 163 168 170 167 168 130 164 99 158 169 163 87 82 152 163 155 161 149 147
136 450 377 353 300 297 291 283 301 301 301 307 255 215 222 199 214 209 184 161 162 160 154 169 155 170 183 134 132 135 159 158 182 180 167 160 168 181 186 171 157 155 155 171 155 150 168 163 168
420 378 344 349 296 295 291 295 305 296 282 300 240 216 216 211 197 174 199 143 156 154 143 170 134 177 181 142 180 124 142 169 163 184 173 174 164 155 167 173 163 180 164 153 181 176 142 143 157
389 334 336 337 294 293 291 269 287 298 285 307 242 226 204 218 192 183 212 175 78 157 160 159 150 158 177 170 152 153 151 180 164 163 147 164 176 166 153 156 162 178 182 165 180 193 186 188 146
343 330 335 323 293 285 284 276 286 284 297 289 249 231 212 216 200 189 184 189 171 167 157 165 168 172 151 176 160 159 153 152 170 194 173 193 151 188 169 166 169 157 179 180 176 157 157 176 184
326 331 310 316 299 286 290 284 284 284 283 303 252 234 214 206 207 200 215 188 185 164 157 100 111 170 170 160 160 171 154 131 165 186 191 192 138 150 110 124 161 162 177 170 168 172 187 163 174
325 311 315 295 282 282 283 275 296 279 287 281 263 238 229 207 217 226 201 186 180 185 178 165 161 150 157 156 158 153 182 150 205 184 182 152 186 146 173 117 108 195 124 197 178 181 190 172 177
325 312 297 281 279 278 272 281 284 306 271 258 283 235 229 224 216 211 208 208 199 189 186 173 173 174 161 162 169 157 150 150 183 208 173 184 201 199 191 180 179 164 182 172 191 194 192 193 196
326 292 279 280 281 280 285 282 277 289 264 271 269 242 225 223 224 104 185 151 179 220 183 159 176 189 148 168 164 165 140 139 151 155 175 168 182 188 177 174 177 183 210 184 189 157 180 183 201
309 285 277 280 273 269 275 289 265 301 266 259 271 268 232 221 214 219 212 215 166 162 204 205 179 167 167 174 180 173 178 168 172 158 164 157 149 156 157 145 160 155 151 142 159 173 159 173 163
279 277 272 271 273 288 277 275 281 287 279 269 263 268 250 231 220 230 218 200 206 179 193 140 205 223 179 195 172 160 146 170 192 177 175 177 177 172 185 172 166 151 161 162 159 169 164 173 172
297 279 270 263 265 281 276 268 280 280 287 282 260 281 278 240 231 220 222 208 182 183 191 194 194 203 204 167 211 161 149 172 174 197 178 175 169 169 180 155 152 163 166 171 167 188 181 172 174
290 282 274 280 284 287 268 284 271 270 280 269 276 277 284 274 233 227 225 236 213 185 193 196 200 187 178 173 185 164 166 178 208 209 157 152 177 181 158 184 177 172 161 157 189 190 195 185 182
298 282 280 273 271 281 291 272 283 287 281 289 285 264 272 278 281 264 224 221 219 216 199 200 206 217 193 211 210 170 183 183 170 180 176 174 177 176 187 171 183 178 177 196 195 181 190 189 187

GFSSGP_2pvu_pres_081.txt.gz
Presure
141 127 165 139 128 117 101 130 119 144 150 87 162 97 151 154 92 102 147 145 160 171 153 102 90 98 88 88 92 92 92 95 91 92 89 102 98 99 111 153 157 160 92 131 140 114 102 128 138
116 137 129 131 117 134 123 129 131 129 132 141 79 115 141 118 168 141 100 145 88 165 151 151 160 141 122 93 90 90 85 98 86 91 94 93 125 88 153 90 169 127 105 159 122 143 97 152 104
123 141 135 110 124 134 119 100 133 142 126 139 180 114 141 139 85 168 88 161 90 83 112 169 111 161 130 137 114 105 136 141 86 84 164 139 154 87 90 146 91 96 109 106 102 118 101 149 110
167 113 118 117 125 143 109 120 120 141 128 133 138 151 144 77 140 134 193 125 134 157 114 88 169 161 150 123 138 141 141 122 84 82 146 167 160 89 88 92 91 90 93 151 98 165 162 107 116
111 109 105 117 114 125 124 113 124 122 144 140 148 143 126 175 177 172 187 151 134 146 141 175 90 83 167 109 115 141 120 141 140 141 124 156 151 133 84 104 121 90 94 124 101 160 109 112 115
109 125 110 133 96 113 156 126 137 121 105 125 145 146 154 156 112 195 172 202 114 125 151 85 89 107 90 160 90 110 117 101 113 113 148 149 116 84 157 133 105 101 90 101 157 106 85 103 127
102 104 137 117 133 105 141 141 159 92 156 107 131 150 130 148 68 136 199 180 102 120 122 84 167 130 161 145 116 103 101 113 103 132 133 133 88 93 104 159 153 94 95 118 105 110 87 136 157
176 116 108 122 96 116 97 109 113 136 97 141 159 127 146 141 146 131 92 152 153 190 110 112 141 174 163 161 97 163 88 85 88 88 90 93 94 105 135 109 142 153 95 103 97 149 76 89 104
112 172 131 116 109 82 121 122 117 139 114 92 115 147 135 161 148 125 201 170 134 129 141 109 119 137 173 159 160 162 97 98 111 88 93 109 115 97 100 104 102 104 103 82 100 102 102 143 79
147 173 118 161 263 157 144 108 82 146 166 86 96 109 83 152 149 140 214 153 189 205 160 166 129 113 117 170 183 110 151 137 148 106 140 96 96 120 99 102 107 120 107 102 127 76 137 114 79
134 186 192 151 145 151 155 111 73 137 159 121 139 140 139 234 170 148 156 207 194 190 184 175 132 167 127 168 161 136 99 147 151 143 158 138 151 157 144 105 122 139 123 143 86 129 77 138 131
176 146 140 150 167 145 177 140 121 163 148 67 151 142 264 150 159 152 149 223 225 204 171 154 148 133 134 142 117 153 149 177 157 166 94 157 158 148 95 152 146 149 72 146 73 74 124 140 135
128 152 105 152 158 137 148 170 152 150 152 142 140 134 148 155 146 155 228 216 212 197 182 166 123 106 126 194 151 142 179 137 173 157 174 157 170 157 151 155 154 148 105 76 96 122 121 100 97
146 134 144 153 138 152 159 141 144 144 137 147 136 138 255 146 216 158 230 222 212 210 187 154 177 146 147 141 147 146 139 153 175 156 105 174 172 111 141 144 148 143 157 89 101 78 86 97 95
135 128 137 128 144 146 147 131 111 137 172 139 142 138 154 90 159 140 224 218 207 210 192 180 165 161 145 165 155 124 124 132 147 169 161 166 141 172 144 154 159 150 79 78 77 87 83 81 86
138 145 144 143 185 181 186 366 146 286 245 127 135 143 150 255 190 213 195 205 205 210 193 187 184 145 155 151 106 165 128 135 110 165 145 184 183 175 165 129 155 183 166 161 176 92 78 131 88
183 181 452 439 449 427 377 354 349 318 324 324 331 273 281 255 232 216 213 148 205 206 155 170 97 143 151 127 178 181 154 151 119 136 161 176 114 178 178 139 77 160 152 148 165 156 173 174 158
403 409 439 481 439 207 270 350 341 311 311 302 328 269 268 235 198 211 224 195 195 197 174 175 169 157 158 160 177 145 178 172 159 134 191 151 142 161 166 164 163 138 165 164 168 159 196 197 162
369 434 453 487 437 363 340 334 312 319 298 314 297 217 250 252 200 118 207 81 181 191 203 172 176 170 160 148 152 164 169 143 182 135 166 146 166 169 177 181 160 157 187 177 169 185 174 167 163
414 383 392 446 362 323 340 319 300 300 289 292 278 139 227 261 207 186 174 216 189 200 214 163 166 155 157 154 154 156 177 154 149 155 166 124 179 170 175 154 164 175 160 172 170 163 172 171 184
361 366 380 335 338 331 310 308 280 276 270 281 144 275 235 252 211 195 191 220 203 207 173 182 169 151 164 161 157 151 154 134 173 168 160 150 170 168 147 173 172 163 197 184 163 179 158 165 162
355 350 345 322 311 314 294 291 289 284 275 281 290 257 227 250 204 194 194 196 221 216 171 222 174 163 159 93 161 168 162 152 187 182 159 140 156 173 189 186 168 189 157 170 172 99 207 194 212
344 338 311 316 307 319 287 281 278 281 286 293 282 257 236 238 202 211 209 198 185 209 207 181 166 169 172 187 148 156 167 178 174 159 171 174 169 158 163 151 151 157 212 209 156 201 196 147 223
331 333 303 291 291 286 271 300 283 268 279 298 276 289 240 211 226 207 216 209 198 230 224 166 207 182 142 159 170 180 154 150 165 177 176 159 155 162 164 172 143 153 149 225 191 191 198 177 184
337 340 291 287 282 282 275 273 284 291 295 297 285 252 229 214 213 209 205 192 221 204 197 155 196 191 176 169 172 168 165 166 165 164 165 175 172 154 148 162 161 160 156 166 170 170 147 182 169
335 330 292 282 284 278 279 274 275 286 299 302 291 245 223 229 221 209 204 203 225 213 207 188 186 171 177 171 171 166 147 166 152 168 192 154 166 153 169 156 165 166 176 164 192 177 177 188 181
308 320 324 277 275 280 275 276 289 283 286 295 283 288 235 221 217 243 203 218 216 219 226 174 212 185 187 166 174 158 165 165 172 156 169 173 182 180 168 197 162 166 179 182 188 152 175 167 175
310 290 278 291 288 276 276 290 269 293 280 219 302 284 245 231 221 220 217 206 209 217 203 213 214 202 145 164 194 168 165 171 168 164 161 159 154 182 199 162 181 179 176 178 177 176 186 184 168
308 282 286 292 282 276 276 278 285 280 278 285 280 271 275 243 227 227 221 214 193 219 225 200 225 211 236 171 191 189 146 156 171 218 169 152 159 158 159 156 161 164 169 169 192 169 178 157 172
299 276 298 294 274 291 302 292 297 298 291 268 283 278 247 262 236 241 231 220 220 209 207 212 232 203 209 174 184 213 183 188 186 191 183 216 160 162 158 179 198 169 170 189 181 158 156 222 207

GFSSGP_2pvu_pres_084.txt.gz
Presure
109 130 129 119 109 139 114 112 139 116 141 94 145 146 106 123 89 110 109 127 132 126 138 91 168 99 135 141 90 93 92 96 94 91 91 90 86 100 93 101 88 155 99 155 137 154 164 121 150
123 141 132 124 195 130 114 115 95 129 129 109 75 141 159 147 166 136 157 89 178 126 150 107 157 93 121 95 89 89 92 88 92 93 90 90 90 93 91 84 91 133 91 126 96 97 101 96 158
124 126 121 168 127 168 166 116 125 102 151 158 151 116 135 126 122 142 103 155 104 97 146 156 131 147 170 97 142 113 107 90 93 130 107 82 129 152 165 87 114 91 90 107 125 115 149 99 150
123 111 174 142 127 118 120 121 122 132 140 126 109 121 152 139 136 114 140 142 171 127 108 90 89 158 159 168 152 159 139 156 138 125 84 146 151 138 151 89 85 89 161 133 90 142 147 129 143
190 182 124 111 156 134 131 143 124 108 108 125 106 119 114 142 135 139 129 138 85 164 160 157 165 116 133 153 168 153 159 155 136 142 140 146 135 138 139 116 154 88 135 137 89 145 96 148 152
175 150 119 145 164 144 123 157 126 112 135 94 102 137 109 125 141 142 145 119 141 171 101 162 169 130 166 123 136 161 161 160 117 127 132 118 145 107 147 139 87 89 156 113 111 133 95 92 96
189 151 184 139 119 145 176 92 122 118 129 96 130 145 129 126 139 128 143 139 125 150 161 85 179 142 93 101 142 92 102 104 156 107 111 144 142 140 135 132 87 89 157 159 158 104 93 102 80
153 166 156 123 103 97 119 101 93 124 106 90 154 139 98 112 143 143 73 144 141 142 191 158 188 85 127 165 135 109 163 99 158 131 100 90 88 113 117 121 123 91 96 138 105 104 78 167 107
248 140 154 127 158 185 111 117 113 93 102 115 114 88 95 98 145 139 138 140 157 131 85 200 140 165 111 113 89 147 170 162 149 153 89 88 92 83 90 96 104 104 97 103 100 104 104 104 109
132 149 146 162 141 127 128 113 102 105 146 109 114 127 125 160 147 110 144 144 143 156 112 191 127 158 183 160 111 133 86 133 171 171 159 111 92 96 97 99 114 98 102 104 104 105 113 104 75
151 154 99 164 207 161 143 108 120 127 121 120 106 142 146 100 102 113 121 128 150 143 188 104 169 170 185 169 203 119 120 133 142 147 124 158 122 87 137 142 100 135 145 117 74 114 113 97 78
160 143 162 151 182 256 110 182 69 118 119 135 148 132 118 123 109 145 140 134 148 145 158 176 175 150 186 204 197 188 128 117 110 146 160 173 151 173 103 166 96 152 146 142 151 99 83 121 99
155 131 161 207 166 173 292 225 123 149 150 133 128 90 126 131 143 143 121 103 151 145 150 151 148 149 206 166 190 179 173 116 161 195 125 144 148 166 142 163 167 170 152 156 149 152 147 107 90
170 172 190 243 186 181 246 209 123 164 126 132 138 133 135 127 135 149 129 132 131 141 145 150 150 150 168 185 175 164 179 172 148 135 141 150 135 168 182 138 166 180 189 154 153 136 151 129 149
161 266 185 279 197 209 121 146 121 125 149 145 143 155 165 146 103 134 143 91 135 141 149 144 147 172 182 211 109 187 181 169 133 137 200 157 138 179 155 159 168 167 157 164 171 164 170 143 82
171 152 163 160 165 136 153 137 136 125 146 151 66 121 128 133 141 152 113 147 126 92 114 138 166 169 181 208 186 183 177 169 126 126 132 159 90 123 176 130 130 129 155 166 167 179 159 85 183
142 145 155 182 143 139 130 113 167 145 140 136 157 159 139 129 116 145 147 145 141 129 183 183 135 199 195 196 183 185 183 134 169 124 136 140 114 124 161 162 76 158 156 159 159 180 143 157 90
150 142 167 153 147 145 131 144 139 138 149 165 147 146 137 170 150 148 141 116 73 157 121 209 163 194 181 201 191 187 132 173 166 168 135 161 172 166 122 164 131 174 154 153 154 167 160 180 165
181 202 247 239 424 440 462 150 144 142 141 330 201 132 151 174 173 168 152 152 200 175 204 145 193 201 185 202 199 134 193 177 167 144 143 176 142 179 151 184 133 145 141 97 163 151 156 165 171
385 407 434 433 433 442 449 432 358 341 373 326 313 313 343 324 169 232 205 227 234 218 241 240 240 228 204 213 186 188 189 178 164 139 150 158 141 153 167 124 159 168 136 192 204 156 133 175 168
365 375 413 411 407 414 440 379 336 363 347 308 303 321 316 290 241 225 220 212 190 191 206 223 217 157 209 205 189 189 183 179 159 179 152 147 162 148 169 149 125 121 129 175 142 145 182 155 162
336 123 394 402 384 359 348 349 343 358 315 296 294 309 286 273 226 230 206 181 215 202 208 212 210 178 193 210 142 189 183 191 165 173 170 166 150 162 136 141 135 181 177 154 164 184 140 180 157
123 346 334 335 335 334 343 333 338 309 307 308 314 323 282 241 221 251 222 198 197 203 199 199 196 194 178 183 182 180 152 181 164 152 173 164 161 167 172 172 148 161 150 167 196 185 173 159 142
339 337 319 324 335 331 333 306 294 297 293 298 283 252 255 254 227 215 219 217 199 195 211 196 186 215 195 158 160 187 177 167 183 167 170 154 161 152 139 171 126 194 183 149 152 168 178 161 173
323 330 317 332 325 306 296 291 284 283 291 284 267 252 268 261 223 226 209 203 209 204 198 208 205 190 176 168 170 201 174 171 174 149 155 176 180 167 181 153 184 170 160 151 167 201 180 151 173
318 320 330 302 295 279 281 289 281 273 291 286 268 271 256 242 239 218 216 205 201 226 202 222 201 214 188 199 179 184 197 188 180 178 178 186 132 166 166 196 188 156 167 197 160 173 167 181 153
297 314 298 283 280 292 284 280 278 272 278 290 297 245 252 225 268 218 199 205 197 216 212 201 219 192 212 182 170 189 205 206 180 170 160 174 163 167 144 161 163 163 151 161 161 177 184 160 173
298 282 272 278 276 292 283 288 274 278 281 285 316 251 245 240 222 207 213 201 211 205 201 205 224 206 196 205 197 181 175 187 193 170 170 179 164 155 159 175 167 175 201 198 183 177 186 171 165
283 290 288 291 278 277 275 280 294 285 282 301 287 255 244 240 235 220 219 210 211 211 202 204 216 203 200 190 196 209 201 195 193 178 189 174 190 188 171 178 168 159 152 184 183 172 174 174 198
302 270 250 262 285 289 289 272 285 284 292 296 320 269 231 225 236 230 224 216 211 206 204 210 199 215 203 184 195 218 208 209 207 176 185 178 176 166 175 170 187 205 203 171 186 170 171 163 185

GFSSGP_2pvu_pres_087.txt.gz
Presure
117 121 126 139 105 127 123 118 132 133 137 104 97 79 117 141 148 131 84 92 125 134 107 98 146 94 154 149 90 92 146 138 96 101 105 93 93 89 90 94 91 90 91 146 92 94 133 96 98
132 149 125 111 139 119 148 110 126 125 121 82 93 105 118 92 132 126 124 98 106 123 148 140 117 121 96 98 94 90 91 90 92 99 95 94 91 91 91 94 110 90 92 98 90 89 91 96 97
151 146 133 110 141 140 110 133 134 132 122 114 146 127 144 136 128 136 118 158 163 178 152 149 126 141 141 142 134 95 91 84 91 95 91 91 85 91 94 140 147 161 89 91 90 169 88 90 106
161 129 129 198 163 155 135 160 164 141 138 120 117 139 129 130 136 157 158 130 133 141 135 152 89 159 111 149 128 162 167 169 126 154 94 143 124 89 142 145 149 138 85 90 165 146 87 94 127
103 135 160 171 154 162 134 179 128 188 135 122 105 122 129 133 107 150 140 136 138 116 95 141 163 118 109 90 159 139 156 162 166 144 163 137 153 137 100 128 147 141 127 88 120 114 154 157 108
194 146 144 158 186 146 130 99 142 166 131 222 132 124 118 99 100 123 109 154 140 137 130 108 112 129 166 120 92 88 133 134 162 167 159 157 141 142 146 141 141 153 136 98 101 150 146 158 160
144 109 148 202 141 164 135 165 119 146 130 129 109 106 141 106 114 123 129 122 133 141 140 124 154 135 157 157 175 151 124 90 96 159 161 166 110 117 140 125 138 138 147 129 146 134 135 136 125
107 137 136 188 155 140 102 129 165 166 139 109 105 100 121 135 97 123 132 86 117 146 145 140 114 159 151 183 181 171 159 179 137 95 146 144 124 119 130 103 147 146 129 118 121 113 100 101 100
134 163 159 139 184 162 110 191 160 106 123 105 127 135 101 120 130 117 138 149 140 134 147 145 137 131 123 159 154 145 112 89 101 156 156 155 141 92 137 135 148 105 98 101 105 122 127 102 104
146 124 167 139 165 177 153 157 101 127 94 140 108 115 102 84 117 104 94 114 142 124 125 146 150 96 138 133 153 155 148 167 123 141 100 130 138 109 137 101 129 139 96 97 95 135 98 132 93
133 121 149 150 152 171 165 177 210 154 193 98 128 91 105 125 107 133 100 86 88 141 146 119 154 135 157 125 142 126 150 150 149 143 118 136 115 143 173 93 89 145 100 154 98 136 145 95 99
125 128 144 117 142 141 149 160 101 139 137 149 104 129 138 122 94 100 121 133 89 146 113 152 114 135 140 158 147 154 116 148 156 139 197 125 120 133 167 131 169 112 168 155 148 163 169 141 144
142 124 126 142 102 95 99 136 145 155 156 98 120 129 132 127 115 126 122 142 141 103 133 138 121 134 166 152 161 116 147 150 164 158 194 185 159 109 143 144 142 137 150 164 165 177 158 164 165
131 120 118 133 142 155 151 158 171 163 162 129 80 149 122 130 124 145 124 114 116 135 138 128 141 134 141 153 162 153 154 145 172 160 164 181 193 119 124 152 137 180 146 163 153 124 172 187 147
111 198 149 142 150 148 158 151 144 255 268 160 108 242 171 131 133 182 140 142 87 140 140 124 137 143 138 143 152 138 141 143 141 145 192 161 124 78 187 137 144 76 154 159 186 165 143 177 160
162 99 95 149 152 163 164 153 143 221 171 185 275 191 155 141 141 149 172 164 156 139 141 131 128 139 131 136 147 140 147 138 144 148 197 193 171 158 180 155 161 85 141 118 89 127 166 176 87
132 133 142 161 208 165 226 102 255 306 209 279 190 251 152 153 134 159 133 142 154 126 141 109 102 114 110 126 127 150 140 153 125 179 189 175 179 172 189 166 163 170 111 114 104 174 156 96 163
158 164 162 174 200 182 169 199 142 188 263 251 174 139 135 256 142 139 140 104 132 133 129 127 135 104 85 95 139 76 132 179 139 171 173 180 176 181 172 170 145 127 117 61 157 132 169 150 167
168 278 445 284 189 189 229 156 178 168 147 137 93 164 161 127 133 137 124 130 133 126 155 76 142 128 131 112 128 157 137 165 183 177 170 201 186 181 178 178 169 178 149 165 160 139 128 143 144
359 227 150 145 136 151 149 148 147 145 136 137 140 139 154 136 144 147 135 148 139 125 136 121 125 107 99 131 131 142 186 189 176 171 194 91 124 177 180 184 174 164 177 176 154 149 120 169 146
155 146 157 171 175 150 296 162 158 258 155 158 149 147 143 139 140 149 132 131 148 137 139 120 129 136 143 139 147 187 172 181 144 196 184 189 93 174 177 147 178 154 161 149 160 123 171 167 118
164 328 353 346 402 411 425 430 464 374 313 361 369 322 164 146 145 152 146 134 141 143 149 145 136 136 153 179 169 177 185 188 186 184 192 125 182 173 184 137 159 169 169 137 150 134 156 146 167
332 345 357 196 371 128 362 405 414 354 346 371 360 333 323 321 328 190 223 178 176 171 159 152 224 179 174 198 190 191 180 187 179 194 182 172 172 183 173 147 186 172 174 167 177 155 183 184 191
323 312 193 288 332 329 328 326 335 337 353 350 307 303 313 343 324 295 271 233 198 198 173 165 170 164 169 190 185 187 191 223 198 195 178 181 152 182 188 178 175 175 143 152 167 134 167 168 158
315 325 322 316 330 343 329 306 358 363 329 305 291 282 318 308 278 246 262 241 234 218 222 221 217 195 198 160 187 206 198 205 179 191 162 191 186 193 172 180 189 156 181 185 135 176 141 159 137
326 321 339 303 294 296 296 309 319 298 291 290 299 303 287 279 271 239 230 214 214 224 226 191 205 208 208 170 185 196 205 185 199 185 186 188 185 190 196 192 173 183 189 185 181 181 185 183 179
317 310 295 296 293 286 295 299 297 282 282 291 303 278 261 259 234 229 228 218 209 208 216 215 189 201 207 204 166 178 184 220 213 212 171 206 200 194 187 194 193 199 175 164 172 148 160 172 174
302 298 276 274 291 284 288 285 292 283 288 280 275 257 256 235 241 227 226 216 208 215 201 180 216 217 192 199 211 185 208 204 211 187 188 179 185 210 189 176 178 193 166 196 183 189 175 156 176
282 283 290 300 268 291 287 281 286 279 268 266 283 251 256 245 215 217 229 209 204 200 209 205 203 202 209 213 183 179 195 194 208 207 202 191 206 183 201 206 192 180 168 182 170 185 158 155 154
305 270 289 302 286 277 291 302 288 294 217 268 296 260 258 247 231 212 209 224 203 204 205 188 205 205 194 200 207 196 202 202 197 201 193 183 188 197 175 186 199 198 204 172 179 198 186 204 197

GFSSGP_2pvu_pres_090.txt.gz
Presure
113 115 131 131 140 114 145 129 117 134 142 149 144 131 117 139 124 115 95 88 119 149 163 164 167 162 89 88 109 133 90 133 107 136 135 134 95 95 91 91 89 93 96 91 142 94 96 93 94
150 137 135 128 122 128 111 147 122 123 149 123 166 152 108 105 124 115 127 97 107 118 137 122 143 154 120 91 117 112 97 89 90 88 90 91 96 126 88 90 91 92 130 103 168 90 136 111 143
155 138 129 109 99 111 126 136 130 130 130 134 130 151 116 120 133 137 132 142 151 105 114 123 83 132 133 123 146 167 114 105 92 85 89 92 106 101 101 130 94 123 144 111 150 110 154 104 166
154 173 147 120 102 140 147 117 150 117 132 150 134 118 114 152 118 109 79 128 128 136 128 123 117 88 158 126 136 135 173 168 164 168 153 96 82 102 94 142 90 134 84 142 149 145 154 129 150
135 114 163 156 147 184 158 179 120 136 147 151 201 129 122 135 138 130 140 139 151 138 146 148 160 171 148 89 88 93 154 154 145 156 162 170 150 155 155 125 150 134 135 140 138 107 143 152 143
128 141 140 159 136 181 138 119 95 142 133 116 146 129 117 115 116 136 130 140 122 114 149 136 118 142 134 159 171 134 113 93 88 119 145 152 168 161 150 163 133 145 149 138 132 143 140 138 96
142 163 133 151 106 166 104 140 177 101 119 119 153 130 148 139 98 119 138 102 111 159 119 138 139 142 141 98 144 140 181 182 165 144 93 118 96 156 117 164 110 150 85 127 87 131 136 121 127
129 169 121 147 136 144 147 134 129 165 150 120 140 124 152 131 149 130 110 109 119 112 147 130 146 124 143 141 99 145 161 173 169 113 175 143 130 92 101 156 161 161 107 124 160 161 115 107 96
108 112 146 153 192 136 129 186 128 145 221 169 197 177 159 114 132 168 105 126 127 123 121 133 142 133 138 144 149 141 147 158 165 168 166 131 170 180 105 109 113 84 94 97 94 94 113 129 98
131 112 132 157 177 124 141 139 153 145 144 163 165 143 110 104 150 104 125 117 128 107 118 119 138 127 126 150 140 141 143 147 163 121 149 152 149 160 148 150 132 131 149 162 89 93 145 99 94
120 120 131 137 136 127 152 171 146 157 147 162 134 167 176 100 93 112 102 113 125 102 97 99 103 137 139 140 163 140 147 136 130 158 145 167 135 122 182 122 165 108 136 147 118 136 168 160 152
140 127 110 140 145 138 111 152 135 68 129 158 90 101 103 84 121 129 167 110 103 109 107 103 123 139 141 109 157 141 138 152 153 133 186 143 141 128 104 110 126 125 126 128 141 128 145 137 170
132 129 121 159 140 171 142 143 145 142 180 148 141 144 128 141 161 131 100 137 121 113 106 113 106 132 140 143 136 135 127 138 147 145 145 116 125 143 162 156 182 141 116 130 134 127 143 157 155
129 146 120 140 172 135 174 222 141 143 112 250 147 162 152 149 94 101 93 87 106 118 105 127 148 133 126 115 166 124 129 125 144 159 137 143 145 146 106 155 157 189 112 193 133 111 144 140 148
141 127 132 155 240 137 127 129 104 84 101 127 79 186 133 151 143 83 160 143 171 135 94 135 122 168 141 125 130 136 136 143 128 160 143 149 139 143 183 156 121 175 77 148 154 168 172 153 157
136 125 124 147 104 189 129 279 157 161 156 140 152 210 167 231 168 153 141 142 161 156 71 142 175 171 138 171 150 124 118 132 129 133 137 135 143 142 141 145 170 165 207 196 156 157 186 120 140
160 116 143 125 245 163 140 138 140 141 108 154 157 156 159 174 153 151 147 212 156 215 161 172 161 146 133 138 121 141 113 139 137 125 126 153 140 147 143 138 167 179 190 166 171 142 186 136 125
127 140 142 145 118 156 160 122 138 147 151 151 152 159 152 149 169 163 258 219 156 153 142 157 133 176 140 126 126 117 101 146 139 101 130 140 125 148 183 140 145 164 189 182 163 173 132 151 88
140 139 157 159 152 138 142 140 149 160 161 158 151 160 169 254 155 180 149 249 155 217 178 184 180 151 177 116 116 131 98 114 121 133 124 126 124 146 142 189 178 169 192 155 167 177 175 181 177
147 151 159 142 218 154 163 163 160 161 165 160 176 231 169 259 299 114 146 147 156 134 168 106 174 149 86 122 112 123 138 130 132 134 131 125 122 144 151 171 167 176 96 155 168 130 181 139 188
265 155 360 156 160 156 162 269 161 207 178 291 157 138 133 180 207 255 205 254 208 241 179 156 144 148 130 128 175 90 132 142 137 135 129 133 141 137 152 154 182 98 157 161 125 162 154 184 174
156 158 160 161 190 190 186 181 179 177 160 180 154 182 145 149 200 265 152 166 163 218 174 273 170 145 135 139 127 130 142 133 129 147 137 139 144 147 152 170 188 171 173 169 192 190 184 158 166
195 149 181 167 140 164 160 157 157 155 174 163 154 152 157 175 161 142 146 151 165 164 295 283 142 134 130 130 131 127 139 135 134 148 150 145 151 162 154 191 175 156 179 180 168 125 186 179 170
156 160 243 214 325 332 262 195 341 346 348 361 366 375 350 223 148 156 158 166 145 141 145 135 154 140 139 140 138 134 134 143 146 144 155 152 155 152 183 182 177 177 181 168 183 154 186 159 147
329 300 304 312 309 303 311 319 354 336 341 337 346 364 351 337 321 227 164 154 148 148 147 141 138 138 143 137 141 142 143 147 154 153 154 166 169 161 191 180 210 186 170 163 192 171 185 161 172
303 313 291 292 301 283 285 309 316 356 366 341 337 345 330 316 309 311 332 282 152 152 154 151 143 143 141 142 143 150 170 209 192 179 172 170 163 193 178 185 182 191 195 178 172 173 166 179 177
299 291 294 290 295 277 289 308 321 316 298 301 292 294 293 319 275 299 294 316 273 258 245 177 155 156 159 165 163 166 168 166 168 186 188 137 181 172 195 197 183 182 182 173 170 181 180 165 189
295 285 280 295 273 290 285 288 305 286 280 293 284 286 283 278 271 259 285 260 255 261 228 237 255 236 219 200 173 182 176 168 169 179 190 182 180 198 179 178 179 205 199 180 209 195 167 177 186
299 286 276 290 302 287 285 282 281 271 268 261 269 267 270 260 267 258 253 250 238 255 229 243 231 239 222 227 201 175 191 202 204 198 180 191 195 188 188 185 181 187 198 193 193 190 191 194 130
283 284 293 270 128 296 297 277 271 251 265 271 263 256 274 259 262 263 247 234 226 229 236 225 238 242 231 230 232 225 208 191 194 194 192 200 179 190 193 171 203 208 201 201 191 198 216 206 200

GFSSGP_2pvu_pres_093.txt.gz
Presure
118 130 122 126 132 123 140 154 114 137 117 112 143 130 141 135 141 159 159 101 156 138 177 178 154 146 110 152 89 114 91 136 107 105 133 143 144 140 138 93 84 90 89 92 96 88 105 140 168
122 118 132 128 132 138 133 136 120 119 109 123 123 126 118 142 157 117 116 145 160 80 119 151 166 160 148 123 159 103 91 101 141 91 89 86 90 86 88 91 121 90 92 91 109 150 93 150 109
145 140 141 134 110 117 131 139 123 114 143 138 132 139 106 145 102 116 143 119 112 150 103 161 162 102 129 127 142 168 152 161 118 92 85 97 89 92 88 83 94 93 88 92 89 96 146 149 143
161 107 152 133 115 125 138 123 134 112 141 101 139 141 152 129 131 154 110 122 94 151 156 133 119 124 132 131 115 132 118 130 160 160 110 158 151 155 94 97 139 142 141 144 133 139 138 140 146
150 151 170 140 166 162 136 137 73 137 125 130 139 122 129 125 145 143 161 97 127 136 173 82 134 145 134 135 135 161 88 83 111 147 151 170 163 161 161 163 149 149 164 135 158 138 125 136 142
130 142 123 155 147 157 144 174 111 139 154 136 134 142 135 109 118 114 126 125 137 137 130 159 128 126 155 149 148 153 178 139 140 160 148 113 95 156 141 158 159 163 152 156 146 123 93 129 111
186 144 122 145 124 173 197 151 210 141 84 164 114 147 116 150 148 118 138 133 125 131 130 111 140 141 131 143 161 99 145 166 182 170 173 162 147 89 92 91 90 95 98 150 134 126 151 133 148
97 153 111 152 121 143 171 102 167 205 175 97 120 138 127 129 147 144 149 139 113 102 107 137 121 129 155 146 146 148 128 151 147 172 190 182 181 142 154 159 136 141 93 96 156 159 107 93 96
149 152 126 121 144 135 144 129 98 137 145 151 127 202 115 118 121 124 151 115 143 134 118 116 121 130 129 136 145 152 144 130 154 155 165 159 163 176 178 167 157 164 158 146 125 117 135 141 89
144 131 141 112 126 132 117 160 159 120 164 161 165 195 187 149 131 143 137 123 126 135 104 125 119 115 120 134 131 126 143 135 143 144 144 151 149 103 141 161 133 126 145 127 158 154 119 120 109
145 133 130 130 138 125 133 141 152 140 139 143 158 138 169 205 79 164 128 161 124 108 121 116 132 103 108 103 129 109 120 130 128 152 145 134 139 142 118 171 165 155 102 114 114 166 137 168 125
133 141 124 132 134 138 139 122 150 165 147 143 151 130 150 163 148 167 118 134 108 103 109 123 92 107 104 102 99 114 143 106 135 172 135 146 160 139 139 169 158 178 154 177 166 167 163 109 127
139 140 127 127 122 127 126 127 133 131 179 139 148 192 112 154 147 168 195 105 160 140 105 195 92 90 109 87 104 100 111 130 126 123 119 146 128 142 151 152 136 124 125 173 178 157 125 185 183
134 142 139 132 141 125 127 136 133 150 133 148 138 183 139 188 138 113 120 113 82 89 111 105 105 116 83 100 102 115 127 116 134 128 154 107 127 131 157 136 137 142 143 146 163 154 167 174 171
132 136 145 144 120 141 129 130 123 145 155 147 164 153 151 124 138 186 158 154 83 96 126 100 180 78 109 175 167 117 135 145 139 118 123 120 132 118 125 134 159 134 138 140 161 151 155 170 163
159 141 135 129 151 126 133 122 124 170 145 103 135 111 140 140 139 149 117 175 160 142 150 77 86 239 149 167 154 141 131 134 163 105 149 120 122 125 129 126 133 135 126 143 137 137 133 170 170
143 134 143 135 135 133 135 143 133 159 137 156 131 123 144 163 134 163 163 161 162 169 165 158 156 139 78 183 163 157 153 191 137 129 103 110 127 121 138 122 113 128 147 143 149 134 141 162 158
126 130 128 126 133 303 115 296 131 157 144 139 165 125 150 147 152 161 170 147 200 157 150 150 167 145 180 150 145 181 135 151 148 158 147 116 141 124 127 139 130 112 119 131 122 144 158 179 153
119 135 139 131 151 312 139 139 149 147 66 156 138 145 134 158 158 140 144 80 183 195 167 223 155 159 165 137 174 158 176 181 168 127 105 117 137 117 117 141 114 114 119 117 145 140 149 169 159
118 375 154 249 135 138 144 150 156 156 156 160 160 158 153 156 145 144 151 154 155 159 147 174 243 143 93 161 155 143 171 177 103 88 114 148 130 138 108 141 136 127 131 133 129 143 141 146 165
243 246 152 140 155 147 141 155 159 158 158 227 240 149 152 122 120 154 140 132 152 161 157 153 189 195 145 152 258 231 181 156 159 120 131 136 137 124 142 132 134 130 142 137 141 139 144 136 190
192 140 141 138 147 149 156 154 159 153 157 157 161 164 158 161 149 134 136 149 135 126 119 228 236 161 194 158 157 208 133 130 176 156 103 134 130 146 135 140 147 143 133 147 141 149 152 156 156
314 153 150 159 165 166 158 300 368 166 161 144 157 158 158 303 157 167 329 166 176 194 132 173 156 199 235 155 166 164 140 212 152 153 174 125 132 187 137 135 151 132 141 136 148 151 118 182 185
158 160 165 169 171 188 167 158 140 145 181 186 184 170 190 180 178 269 141 152 151 173 172 249 262 162 134 239 161 186 177 158 151 171 163 131 150 136 141 143 130 142 157 149 144 156 161 159 152
264 310 234 174 172 170 166 163 162 163 159 159 157 160 159 156 153 150 159 204 198 223 160 278 239 186 250 150 183 188 235 213 192 182 159 154 141 143 141 129 135 146 143 161 165 165 170 150 157
309 311 307 293 293 308 322 321 323 328 354 354 366 365 367 361 380 203 161 158 154 152 156 144 152 188 148 133 229 205 179 190 209 235 223 142 136 147 141 136 145 145 183 160 165 154 174 191 172
297 286 287 300 309 310 299 307 299 308 307 305 312 308 307 326 319 324 340 229 179 186 166 152 150 162 152 141 149 208 239 258 232 212 208 143 143 142 140 155 151 182 155 163 197 165 194 178 175
295 300 285 295 306 298 288 280 283 292 303 295 283 290 287 297 303 290 301 282 297 271 248 186 165 153 160 173 146 145 145 146 152 141 145 143 144 150 151 187 165 185 190 163 155 165 174 202 190
283 288 294 283 294 279 269 270 275 283 281 264 278 272 277 269 281 271 260 270 254 292 281 245 185 182 166 152 149 148 185 150 151 152 150 152 153 160 170 163 205 175 181 188 189 210 170 189 190
123 278 120 290 290 274 125 286 289 267 258 265 287 279 256 257 264 258 249 245 276 270 265 265 260 248 182 179 171 206 163 192 169 165 164 169 219 212 202 191 179 175 192 211 190 171 174 170 169

GFSSGP_2pvu_pres_096.txt.gz
Presure
145 142 125 65 128 78 84 103 97 155 150 152 122 142 158 168 176 172 115 171 106 171 172 121 147 173 164 90 93 94 89 86 140 93 100 138 142 157 155 86 88 89 98 93 91 94 97 101 142
129 126 138 126 129 108 131 134 164 114 159 110 112 132 127 136 144 140 129 167 118 131 124 124 184 144 161 153 155 142 122 90 90 117 87 138 88 88 87 93 86 88 95 127 93 99 90 95 134
127 150 119 157 117 128 129 129 148 135 140 162 129 135 125 115 109 137 76 80 129 125 81 85 129 172 164 185 168 154 155 140 138 133 138 86 89 92 90 94 86 94 93 95 137 137 138 133 143
127 149 122 151 122 122 135 144 138 156 134 149 112 130 102 144 118 132 135 107 84 111 76 130 124 118 115 152 173 168 127 172 176 162 165 155 150 156 152 161 162 133 162 150 143 141 140 142 136
121 169 157 127 158 131 151 136 148 136 106 106 121 102 133 151 144 133 123 110 126 96 113 136 131 103 126 146 161 131 119 142 89 108 146 161 162 157 163 144 160 164 144 153 152 140 157 119 119
138 129 163 125 162 105 149 130 144 135 141 108 131 141 80 111 134 127 126 149 144 140 110 143 127 159 143 170 150 139 127 143 109 143 135 155 156 119 153 103 113 90 127 94 93 98 94 90 109
122 190 116 121 153 155 101 173 168 162 157 146 97 134 125 114 112 125 118 130 119 126 135 134 154 137 114 132 172 138 137 136 122 133 163 148 144 140 160 157 139 146 89 91 144 150 97 143 163
135 130 184 187 150 131 170 145 160 159 191 172 181 160 138 147 136 138 115 135 119 139 155 135 110 140 133 78 114 127 143 169 124 168 144 135 188 166 170 160 153 159 159 147 170 135 163 169 142
115 131 115 117 159 142 151 145 157 141 97 152 171 215 167 147 117 116 103 117 138 143 134 148 120 103 111 112 136 137 143 124 137 162 150 135 134 135 180 183 183 175 180 147 123 151 165 161 141
110 116 150 170 109 139 132 132 138 135 154 175 134 163 180 97 110 131 173 164 129 144 141 131 136 109 120 112 138 120 134 115 99 132 131 135 125 138 158 162 133 174 178 133 155 145 102 102 107
132 135 141 132 144 149 126 139 181 127 130 129 134 148 195 210 166 142 152 155 158 125 135 132 160 102 146 124 109 106 99 138 115 144 137 178 146 132 131 148 163 170 149 135 152 149 146 174 170
138 136 136 136 138 141 129 159 103 132 140 140 134 206 178 136 92 95 144 205 197 214 247 126 104 143 113 147 107 92 124 118 92 125 138 102 151 130 126 141 123 168 142 147 155 156 181 173 184
155 133 161 166 135 138 139 133 131 140 135 148 132 180 160 149 106 122 186 139 102 156 187 176 174 103 118 84 125 107 110 99 92 132 117 123 103 108 132 129 128 122 126 144 145 144 144 142 156
168 142 133 160 133 149 131 139 135 143 148 131 157 148 128 144 153 147 111 208 133 149 114 132 102 102 178 82 122 77 95 95 92 114 126 126 121 125 138 112 126 124 125 125 125 126 137 124 137
251 160 163 158 154 147 141 147 126 142 132 138 134 135 129 166 163 82 210 127 134 132 83 138 120 161 113 160 179 144 173 192 120 117 117 125 129 133 126 129 121 126 128 120 125 119 123 138 141
261 159 176 216 381 141 135 150 148 136 143 133 134 135 132 136 157 145 184 149 151 150 126 141 115 159 142 72 135 98 168 108 108 128 148 121 119 118 127 140 121 132 111 125 145 116 121 117 123
236 190 217 157 160 146 140 151 156 151 134 139 132 125 123 142 150 122 126 131 167 195 192 116 133 180 121 169 158 115 196 152 171 215 230 169 153 139 132 127 131 118 130 125 120 121 137 117 113
301 149 154 189 132 138 153 128 136 139 124 124 127 116 134 118 135 151 132 142 172 174 182 118 201 181 160 164 170 115 184 203 200 154 139 139 138 162 118 112 117 128 117 140 136 118 132 117 142
168 190 145 142 161 145 139 139 144 118 133 112 146 133 142 169 244 144 155 134 144 148 152 144 158 175 167 151 167 131 133 164 197 152 149 178 145 155 193 126 124 106 134 149 107 116 144 135 136
303 154 145 132 122 127 135 142 112 130 133 113 130 133 143 158 127 132 236 107 145 104 212 129 154 143 160 215 150 151 161 138 213 148 204 161 159 199 79 178 125 149 133 142 110 124 133 141 121
226 139 165 150 131 145 158 151 140 135 277 254 150 150 151 148 141 145 152 162 152 147 141 152 199 201 183 147 163 142 145 147 178 213 247 157 137 116 164 173 152 120 134 134 128 171 124 134 136
247 291 148 301 152 175 180 152 140 140 156 138 139 137 159 165 165 244 211 157 155 150 151 252 137 150 167 155 145 142 123 158 147 194 133 147 170 147 169 110 111 133 128 136 127 127 133 142 129
335 164 169 154 186 185 141 178 134 161 155 146 146 378 148 149 148 146 145 146 92 145 147 135 163 146 94 143 144 136 160 146 151 158 175 173 164 147 164 157 154 170 125 144 163 137 134 133 128
194 207 148 145 153 150 155 159 154 152 151 154 158 156 155 155 145 135 156 150 148 151 155 127 201 152 151 153 150 217 225 212 207 190 136 142 134 158 204 179 175 158 145 148 165 136 146 139 142
144 156 159 160 161 159 159 161 164 164 167 135 147 294 146 141 140 151 140 151 153 157 244 239 310 229 186 150 185 143 192 225 208 197 178 214 144 163 179 139 159 176 221 163 170 153 150 135 135
166 174 284 288 303 202 284 256 295 309 314 216 189 182 192 192 167 170 257 145 290 315 193 317 259 284 153 286 200 158 207 152 177 242 143 173 167 213 154 212 168 210 175 166 167 144 131 140 149
149 183 223 283 300 292 303 289 297 310 309 314 315 270 187 185 181 157 156 157 158 159 273 283 282 291 288 280 159 189 218 154 226 229 238 230 252 166 169 146 151 159 149 188 156 156 168 142 135
216 295 282 288 288 299 285 285 278 285 290 293 287 295 293 302 296 305 328 325 237 180 172 206 162 228 171 154 152 187 149 180 171 214 151 186 239 216 176 204 159 216 142 188 173 139 137 162 159
249 135 280 189 280 275 269 285 285 274 278 289 278 280 288 281 284 272 285 288 292 301 279 183 198 195 228 168 186 185 157 146 174 151 235 218 170 153 208 154 162 162 149 180 150 152 144 150 160
123 276 119 231 144 293 289 271 294 281 266 265 282 218 268 273 262 261 281 263 261 276 305 306 290 199 182 190 184 175 216 246 230 166 266 222 243 217 214 179 203 166 152 175 159 160 192 159 181

GFSSGP_2pvu_pres_099.txt.gz
Presure
139 116 137 107 87 79 90 88 92 79 87 85 90 100 166 167 185 167 140 120 168 163 99 153 112 98 116 91 94 101 151 88 87 148 111 87 86 88 89 86 89 94 89 91 96 93 141 90 98
111 140 116 114 134 112 70 75 86 97 95 91 120 144 148 146 151 166 165 141 147 185 131 181 170 134 158 121 124 147 171 124 159 89 85 86 143 143 89 93 89 80 88 94 88 128 149 132 141
129 143 194 120 139 105 138 159 146 124 121 125 129 148 136 161 74 126 125 112 93 135 94 154 153 129 129 175 166 159 168 155 162 159 91 90 92 144 91 91 100 91 143 145 148 152 157 155 142
130 137 154 123 146 170 142 131 154 117 152 140 131 123 104 144 116 118 132 80 144 146 97 147 77 89 82 90 163 149 179 179 165 161 157 156 158 158 158 159 150 157 154 160 157 107 167 103 97
121 145 145 183 138 134 128 122 114 124 130 125 140 123 128 129 140 123 139 148 144 126 153 143 100 128 178 172 149 84 140 136 119 183 136 156 166 165 164 169 171 114 96 154 96 113 108 160 109
104 136 157 152 152 167 156 157 131 126 130 137 121 114 127 142 123 125 136 140 144 119 146 126 117 118 134 132 126 141 141 135 125 124 111 86 85 142 90 127 146 161 115 145 153 148 103 162 164
120 114 116 137 129 130 163 143 133 131 157 152 142 120 124 74 127 142 135 133 138 129 135 123 117 124 159 163 125 133 148 172 109 146 159 131 154 183 173 158 166 137 169 164 153 133 139 132 136
135 125 124 110 102 171 133 174 202 141 141 151 133 165 116 109 110 123 128 122 135 130 114 131 113 117 143 138 112 123 135 166 123 142 143 145 159 163 99 138 150 159 176 160 176 163 154 158 125
124 121 123 131 128 164 102 125 139 178 124 172 168 158 133 165 131 143 138 140 128 141 152 108 144 141 122 111 121 123 118 131 144 129 150 188 140 152 154 134 135 130 149 185 141 180 167 113 178
139 131 145 133 147 135 140 163 164 161 146 135 114 151 123 80 173 170 155 171 151 140 111 142 162 162 106 143 117 113 110 125 128 122 141 100 124 130 138 141 133 140 127 162 166 172 171 153 153
141 192 123 118 137 130 140 139 163 136 136 164 155 157 146 131 161 170 166 103 121 112 133 117 170 129 117 105 104 111 120 120 119 129 127 142 118 126 129 132 145 126 145 141 125 128 134 147 147
142 149 126 175 133 111 132 110 137 132 128 113 138 141 148 150 135 141 170 139 142 189 171 152 127 116 132 127 160 100 141 139 114 96 107 92 95 97 100 110 109 106 156 127 126 162 125 125 127
144 140 189 126 123 117 129 145 120 123 137 152 153 120 131 114 141 144 140 143 145 130 184 149 160 181 224 178 110 105 128 149 118 117 144 108 119 123 121 121 140 109 118 120 124 122 124 126 125
170 148 161 138 198 126 126 120 146 149 128 137 133 154 138 124 111 121 103 127 136 152 158 142 134 145 150 177 111 98 116 125 108 112 109 100 103 124 126 117 129 153 132 111 115 125 147 122 127
248 139 139 195 283 155 183 133 134 148 118 127 150 137 118 90 140 135 132 119 150 158 142 181 201 140 167 216 162 123 101 109 103 96 104 101 108 115 104 110 142 130 119 118 131 123 119 111 119
264 169 211 137 147 255 134 148 146 158 140 136 131 150 133 118 120 124 148 133 136 132 165 133 91 129 187 149 138 93 114 146 144 120 97 110 101 151 123 121 108 131 127 139 145 129 146 131 122
261 266 198 155 160 156 158 142 159 139 155 142 189 140 139 127 129 114 125 117 123 134 137 168 116 146 115 198 128 135 157 126 116 129 107 161 153 134 195 143 142 148 135 144 150 117 124 107 132
178 273 236 243 158 147 215 98 165 187 237 147 151 156 147 144 133 136 126 165 151 143 122 148 157 121 137 172 149 93 169 140 162 83 109 124 128 145 145 158 142 135 152 150 136 128 120 117 128
239 265 217 311 322 156 157 97 161 150 132 139 148 142 155 133 127 140 129 129 131 136 139 153 135 157 112 159 202 142 135 194 159 143 153 142 102 147 135 137 131 143 139 195 151 144 126 111 124
317 180 263 313 152 164 364 362 138 148 154 211 151 137 124 143 156 135 136 123 124 95 140 140 197 172 135 179 153 142 183 154 138 138 134 150 162 158 196 129 142 155 153 79 138 172 124 172 159
308 307 327 319 359 258 154 169 246 132 139 132 120 113 133 131 133 133 129 130 178 116 152 152 153 142 148 230 149 146 185 173 155 174 142 157 151 133 173 139 242 183 127 135 148 176 163 166 168
306 301 169 202 332 310 152 134 127 138 164 135 144 148 132 143 144 138 156 140 136 140 139 139 139 149 260 169 135 146 248 164 134 148 174 176 145 151 150 124 126 146 209 150 155 145 161 144 148
171 330 158 269 131 162 160 354 137 142 173 139 189 151 139 136 146 154 128 131 140 265 159 149 143 155 234 252 246 142 253 208 160 180 133 213 115 104 134 182 143 150 185 150 165 197 156 155 153
209 262 145 210 314 144 149 150 223 165 150 136 169 168 143 161 148 136 140 142 141 140 142 145 275 208 95 139 124 127 142 150 164 143 150 166 126 159 157 142 134 193 141 222 195 174 213 191 172
326 163 312 151 300 279 137 205 141 147 231 237 158 368 251 168 142 139 140 146 148 150 100 147 137 148 210 120 136 141 267 204 152 196 148 144 148 166 202 152 152 140 185 192 221 233 142 162 155
148 142 150 152 155 156 156 154 155 155 149 147 149 151 153 155 155 149 151 154 155 146 136 135 131 141 168 152 158 202 244 185 271 148 282 263 148 189 155 169 197 152 145 140 191 203 129 158 167
142 139 142 168 173 290 272 294 297 187 289 289 165 184 162 312 188 264 158 136 135 149 161 326 177 165 176 154 290 270 164 276 285 237 149 141 142 182 205 197 152 212 201 224 176 206 181 208 163
151 151 166 213 287 300 284 283 286 290 282 288 296 295 301 236 170 228 167 164 159 158 155 152 152 184 213 150 152 268 289 204 224 249 210 225 225 191 172 180 150 252 156 153 200 200 164 151 172
146 134 286 197 284 287 285 280 282 289 286 285 292 280 292 286 296 298 308 308 312 273 172 172 237 245 163 260 303 284 198 277 274 276 266 174 199 218 196 179 187 206 209 229 204 223 196 222 217
268 140 134 134 269 280 287 283 266 283 275 281 277 289 276 283 290 294 294 285 302 315 304 243 244 253 179 185 243 269 264 268 258 261 268 252 231 211 212 205 193 214 221 230 219 210 189 214 216

GFSSGP_2pvu_pres_102.txt.gz
Presure
148 123 145 130 88 84 79 79 81 82 80 88 86 82 85 91 105 93 167 104 108 146 135 160 160 163 160 158 142 165 145 146 99 89 107 164 145 158 148 138 142 142 154 104 88 123 96 113 146
127 148 130 146 108 103 112 82 81 86 89 94 85 87 89 93 101 167 176 169 162 108 169 77 158 148 127 163 155 106 165 130 89 90 128 156 145 149 139 127 141 88 94 99 101 109 146 143 151
84 133 137 189 137 120 106 78 90 91 85 77 91 95 94 97 139 154 142 144 156 169 126 171 138 177 106 117 131 165 150 156 138 134 169 160 131 167 95 165 145 144 152 157 159 143 144 128 125
132 121 134 125 130 135 133 94 84 85 115 97 97 97 100 131 142 139 101 146 77 147 163 79 78 118 144 146 174 144 135 133 189 163 161 161 91 96 163 160 161 160 160 161 147 100 157 91 90
135 137 129 147 134 162 173 132 133 147 112 107 140 123 136 141 123 103 119 117 137 124 143 79 87 133 132 86 147 176 158 131 168 180 117 160 133 160 165 156 162 167 170 132 159 100 177 106 87
149 137 119 124 124 74 150 154 136 152 119 122 123 142 135 135 108 112 112 124 82 90 127 136 141 136 109 141 137 127 113 128 123 128 139 124 84 91 88 89 161 121 132 105 165 170 170 128 161
136 132 153 136 131 138 129 141 141 137 117 119 119 117 130 134 121 133 137 75 124 121 122 103 110 135 128 146 121 131 139 124 139 141 137 142 129 153 153 148 180 124 155 164 149 177 154 157 156
128 125 132 123 120 120 138 157 146 165 167 133 127 137 132 77 134 132 122 122 132 136 127 81 152 112 130 130 130 133 121 163 126 167 142 131 131 154 165 148 158 105 192 139 129 163 171 179 161
126 144 121 124 129 143 132 148 124 135 130 162 153 108 144 123 122 120 121 130 123 133 136 122 125 113 140 157 128 125 144 110 147 149 116 164 134 140 132 131 133 138 140 150 123 129 157 169 179
161 146 128 162 113 111 119 130 116 129 157 145 167 170 148 142 141 154 127 111 110 138 131 136 131 113 77 142 143 144 117 133 123 129 123 138 118 120 123 130 126 119 150 136 127 146 126 126 129
132 129 151 141 143 130 131 130 135 147 138 123 131 166 173 138 173 164 162 166 146 132 224 174 206 149 129 149 124 143 116 121 146 118 132 124 124 125 132 128 125 119 117 126 118 125 114 131 124
178 173 158 162 128 130 126 127 135 138 143 134 136 136 131 135 150 95 106 164 172 154 209 177 165 107 167 162 145 132 128 184 98 109 123 111 84 102 90 121 106 102 136 119 112 115 117 121 126
180 176 160 151 203 147 124 169 131 152 137 136 144 140 131 169 170 145 150 160 133 147 126 127 151 124 172 154 123 124 152 116 171 118 131 138 121 138 116 124 111 132 128 113 138 121 129 116 118
253 255 126 140 146 152 147 133 133 138 144 143 142 135 114 141 134 133 151 163 155 148 147 168 129 134 149 177 155 147 163 126 161 131 92 136 137 111 121 114 102 117 116 114 115 118 141 122 119
240 254 223 150 232 149 139 169 160 143 127 116 140 130 120 133 135 136 125 140 140 163 137 106 182 153 156 137 144 137 175 146 168 204 151 103 84 131 103 121 113 105 106 113 148 112 122 121 125
233 244 233 251 126 125 146 227 175 95 129 126 126 130 125 143 149 125 144 132 120 133 126 139 145 141 109 145 165 131 193 151 188 174 163 101 100 102 183 105 101 114 106 169 103 139 149 155 138
253 233 246 249 265 272 219 156 161 143 165 161 99 141 117 108 139 130 144 135 149 131 133 140 144 145 153 140 145 142 155 141 168 151 160 108 91 132 126 158 108 131 198 180 117 153 120 117 119
260 262 260 177 265 243 166 170 149 145 302 153 155 144 132 100 127 134 120 114 133 127 153 135 129 153 127 130 135 141 143 129 140 138 189 211 137 128 179 141 138 150 156 159 113 153 166 135 104
239 242 249 270 135 144 250 141 268 280 287 124 136 178 160 162 88 150 136 146 150 151 120 141 131 130 141 159 74 146 144 177 145 147 129 168 143 158 182 168 127 144 135 135 162 150 120 144 84
256 262 268 273 280 252 137 140 84 185 139 282 410 282 472 169 506 132 155 141 138 136 134 135 143 118 139 147 119 114 106 138 134 154 103 123 124 142 125 172 128 158 143 152 147 196 150 172 134
267 267 270 269 288 236 260 357 361 218 83 281 293 149 305 154 160 152 129 130 138 137 146 143 134 139 150 117 142 126 94 145 181 132 212 140 147 123 154 216 131 108 165 151 157 164 109 142 167
268 277 288 302 371 356 262 229 398 394 162 210 331 400 407 202 130 119 127 133 133 143 141 107 141 140 143 136 148 173 165 155 155 173 146 135 151 151 167 148 122 160 156 150 138 146 178 132 138
283 327 324 288 364 292 294 325 334 378 362 364 133 133 139 141 142 135 142 145 152 136 140 92 133 136 137 149 141 146 144 213 140 186 207 146 146 142 121 139 140 158 140 173 152 122 177 153 159
327 327 332 262 289 262 179 256 257 238 155 133 136 130 140 294 154 142 134 142 137 160 127 142 139 143 148 130 126 134 144 158 148 146 147 194 132 134 146 124 138 143 138 156 139 172 135 173 159
332 237 241 270 146 306 235 241 243 135 134 151 148 157 167 293 150 147 210 155 152 150 142 132 156 148 225 150 146 146 143 136 142 142 237 244 166 145 141 205 147 131 177 194 197 135 112 165 146
137 161 266 214 301 310 145 146 297 292 146 147 173 145 148 149 155 169 156 154 144 165 143 144 142 138 136 138 148 151 152 152 151 148 147 138 160 149 160 148 148 158 151 142 146 156 129 132 159
297 298 140 145 150 148 150 151 157 162 161 178 179 159 156 154 148 145 149 150 149 150 151 150 145 146 147 151 144 140 141 142 142 142 142 160 159 263 153 244 237 192 155 168 183 246 188 229 172
148 203 243 147 275 202 280 280 288 284 285 293 289 218 297 320 224 368 264 207 151 148 145 145 145 145 143 137 163 325 318 312 297 286 146 145 213 258 252 231 174 263 241 284 147 240 226 189 177
154 136 142 212 281 275 275 279 290 284 279 283 292 293 300 284 287 335 358 324 168 220 208 216 325 315 315 317 315 207 208 206 314 310 249 250 287 285 277 283 280 286 275 191 245 188 219 203 195
122 137 283 125 124 293 265 271 292 239 277 267 286 284 280 285 293 305 308 327 322 268 260 270 185 185 195 292 290 288 279 290 273 269 154 250 287 280 282 274 280 273 253 269 181 212 199 203 184

GFSSGP_2pvu_pres_105.txt.gz
Presure
82 138 130 94 84 84 89 81 81 80 90 94 83 86 83 88 146 95 147 196 188 93 86 106 179 165 93 96 137 107 155 100 158 94 97 165 157 171 90 154 155 91 140 89 97 98 136 145 140
127 137 132 128 132 84 85 148 145 86 83 95 83 89 93 91 83 95 108 92 112 182 176 165 164 176 185 166 170 173 157 151 142 158 160 97 116 173 123 161 111 157 89 103 125 119 149 158 147
113 142 119 142 173 69 79 89 139 89 91 90 90 85 91 91 124 82 83 100 161 159 145 131 177 169 160 95 187 108 94 91 121 99 111 96 151 103 106 94 92 108 117 165 159 158 156 145 146
124 129 116 177 129 139 105 78 150 88 91 90 126 87 89 88 78 97 96 104 151 139 154 138 162 169 168 94 84 111 146 135 148 144 154 180 180 136 158 135 132 167 164 173 162 159 91 94 159
142 134 125 131 153 141 149 139 89 117 111 103 91 97 96 98 93 100 146 120 152 152 135 162 141 92 88 114 97 129 84 144 152 132 167 163 121 133 183 143 151 177 140 127 123 88 167 168 168
125 125 137 115 140 122 125 133 138 82 65 128 85 90 98 122 146 119 129 139 97 129 122 122 133 118 80 160 158 160 151 126 122 166 131 111 160 118 105 111 111 126 161 146 136 173 177 158 137
154 135 140 140 143 118 125 127 165 140 136 76 150 93 145 105 125 142 137 141 134 114 118 79 110 127 143 93 139 145 150 135 130 123 127 124 123 127 144 131 155 181 154 124 145 132 160 122 162
129 124 134 140 140 138 137 125 132 74 71 162 156 144 127 131 132 134 129 117 112 137 93 79 119 132 140 145 141 113 138 143 141 139 144 124 113 134 107 131 156 133 142 123 136 146 122 125 163
166 122 122 132 138 153 141 124 131 133 143 138 148 128 119 127 128 129 134 147 122 134 79 98 129 102 144 97 110 123 131 102 129 119 133 106 148 122 139 165 140 149 129 153 136 151 128 134 135
149 172 177 126 134 137 141 141 137 126 132 154 152 157 165 126 122 130 154 136 126 137 124 124 142 123 126 142 107 104 117 127 115 140 160 129 126 118 155 126 124 119 127 121 120 147 121 119 142
163 142 152 173 133 133 127 137 137 129 132 147 157 130 135 132 161 141 145 135 108 133 157 142 133 170 123 126 118 133 144 111 142 148 160 113 114 121 108 134 120 127 129 104 124 121 116 133 123
157 178 169 153 188 129 127 129 127 132 160 128 141 129 142 154 146 112 181 173 172 163 162 159 103 160 174 126 180 124 184 166 139 132 121 126 139 114 136 100 124 94 127 124 98 108 108 132 112
184 177 173 173 181 185 147 151 150 140 144 130 129 136 144 147 149 171 165 131 172 150 169 160 164 167 165 163 156 182 166 189 147 156 116 148 123 105 111 153 125 111 85 117 93 116 104 102 135
196 188 184 184 179 180 134 137 178 178 133 133 133 140 144 125 127 149 139 128 136 160 124 165 156 140 141 149 122 136 126 149 121 122 190 103 181 148 118 138 130 110 120 120 112 96 110 108 119
230 252 261 211 202 207 177 144 123 143 139 134 130 131 141 145 131 150 151 157 211 166 157 137 141 134 153 145 117 156 122 111 123 126 114 166 109 117 135 104 93 136 114 149 117 110 110 103 103
244 231 249 256 249 260 268 262 140 147 229 159 126 127 135 149 143 142 138 161 149 139 161 162 151 136 153 142 168 161 191 157 145 153 159 144 156 138 203 136 103 94 162 107 108 103 109 110 110
254 254 254 252 252 255 255 256 196 122 157 220 164 173 120 129 137 138 120 126 132 125 145 143 140 151 143 137 136 144 152 129 112 133 130 160 144 143 148 155 180 135 99 109 143 141 110 107 101
226 237 241 242 244 248 253 264 247 273 146 235 241 165 109 148 118 157 121 131 125 152 120 140 134 138 127 139 150 155 136 152 140 147 142 176 171 148 172 145 210 160 138 131 191 160 140 142 152
229 230 197 221 240 239 255 250 261 264 272 292 141 129 143 161 163 86 115 148 134 102 121 135 141 134 122 145 139 160 147 122 140 134 140 131 133 134 144 164 130 150 150 133 147 192 150 132 95
230 222 234 242 244 242 254 257 270 284 295 254 355 318 133 144 148 133 138 143 128 118 136 145 130 143 95 132 151 126 128 137 134 106 153 179 140 148 144 133 187 147 148 142 129 179 118 134 148
227 229 235 245 178 278 280 284 179 120 243 137 271 287 280 436 125 335 289 493 149 265 129 131 169 148 157 138 136 134 165 123 142 124 130 116 143 175 145 139 167 135 131 173 130 153 136 148 142
248 253 267 267 271 283 300 301 126 272 89 134 303 380 383 157 217 431 458 127 159 186 176 139 370 145 134 139 146 134 139 143 121 143 119 141 144 133 144 175 171 140 149 130 186 150 193 134 185
261 264 265 275 286 292 344 334 323 319 332 331 334 371 388 399 142 411 313 139 466 150 142 145 131 142 141 144 148 146 141 130 119 123 128 152 152 150 141 142 148 152 160 139 159 128 155 142 144
268 283 294 291 352 332 315 318 316 333 332 330 336 339 288 389 380 136 144 392 145 144 122 132 134 146 151 141 142 134 138 139 151 153 179 145 135 136 173 162 142 121 141 179 162 148 139 123 176
299 329 362 328 308 319 311 299 134 274 156 221 237 259 201 172 140 129 133 141 133 134 138 147 144 145 145 151 141 130 139 153 143 151 204 186 142 140 137 136 138 160 137 132 134 196 192 131 215
358 341 254 300 305 165 151 277 287 257 135 149 272 130 127 134 133 138 158 154 147 151 159 161 160 150 152 157 157 147 138 159 118 136 136 136 147 166 131 150 152 140 132 125 125 132 142 147 244
145 141 203 305 269 233 151 150 152 156 154 155 157 203 157 147 153 281 155 153 329 170 165 165 151 148 145 148 269 145 143 362 166 165 141 144 140 134 134 134 135 136 137 145 138 136 243 217 191
235 287 229 136 217 153 210 277 264 270 272 300 290 229 319 333 242 163 161 158 155 152 150 149 151 152 350 151 150 150 150 141 142 142 143 145 141 267 142 251 232 228 230 205 212 279 145 247 251
299 269 142 144 266 268 278 248 267 271 267 283 278 278 288 309 321 340 312 245 207 162 274 153 151 150 150 148 148 148 149 150 151 288 308 244 244 270 283 285 167 145 290 238 145 258 253 242 229
141 140 138 145 139 271 222 219 243 260 273 261 267 255 268 273 291 298 307 311 279 273 291 290 166 162 168 310 218 327 323 324 326 325 323 316 318 307 282 274 272 277 270 262 255 252 249 239 203

GFSSGP_2pvu_pres_108.txt.gz
Presure
119 132 81 91 84 80 106 115 132 89 138 133 143 123 115 99 93 94 153 81 204 157 86 157 140 90 169 146 101 159 113 108 153 157 97 104 95 150 171 93 121 170 98 84 82 131 103 144 143
109 107 133 100 87 82 99 81 86 143 141 119 86 83 86 90 148 82 95 163 95 124 181 200 94 179 169 93 159 171 131 195 119 121 97 118 154 123 133 162 141 163 94 154 126 97 153 146 150
76 131 110 119 116 84 78 80 77 82 140 140 113 105 89 98 97 82 108 90 84 140 161 189 208 151 160 197 164 174 125 166 111 167 92 93 178 94 153 102 109 120 131 130 150 152 166 159 152
123 125 133 140 122 132 68 76 85 144 90 136 88 91 88 86 91 91 96 85 103 100 105 103 157 153 147 86 167 92 171 136 94 93 93 104 96 146 150 167 123 154 158 159 166 150 142 116 109
129 130 127 110 119 141 133 97 73 136 99 163 106 87 86 94 92 81 100 75 101 101 158 143 127 143 157 149 134 90 103 142 160 147 193 161 158 164 122 178 144 139 148 149 143 102 162 144 157
163 129 145 134 130 136 120 130 115 73 87 133 136 143 92 92 93 96 81 100 96 125 148 161 137 144 170 83 82 142 153 126 162 167 125 168 133 139 119 123 131 126 160 132 158 136 168 150 146
177 140 130 127 118 131 136 125 132 139 150 89 74 139 115 104 95 95 100 133 110 132 138 127 102 133 89 138 132 97 154 139 148 127 127 130 198 131 177 177 144 165 136 149 196 136 139 143 119
158 138 143 136 133 143 125 140 141 152 129 142 77 80 121 132 102 91 127 107 145 157 152 111 112 123 141 155 76 132 93 159 110 118 146 146 158 141 131 125 146 166 188 165 151 122 152 153 137
163 173 164 139 142 139 130 142 145 138 126 121 144 136 100 115 109 128 112 118 109 132 131 144 109 129 82 141 144 150 87 147 114 133 116 135 125 133 124 147 121 121 164 136 126 143 141 133 146
163 175 176 151 136 183 138 135 143 153 153 120 127 144 130 156 158 146 134 131 132 133 133 146 127 131 111 144 121 134 137 96 92 110 135 134 112 140 126 113 119 134 143 139 125 123 127 102 127
123 158 167 169 154 130 128 166 137 149 143 143 127 98 145 142 144 129 149 160 123 129 152 120 114 141 120 147 118 144 129 132 117 124 121 134 116 134 139 111 126 129 108 126 118 128 111 119 131
155 149 166 167 175 157 126 125 133 138 147 142 142 141 129 136 146 142 123 131 135 118 135 136 169 136 132 159 153 141 139 127 117 133 92 107 133 150 129 136 109 107 126 117 117 130 127 121 111
150 152 149 164 166 174 162 130 158 136 139 137 143 132 127 139 125 151 147 143 138 137 142 144 124 145 132 177 118 146 145 118 169 173 118 177 118 136 137 120 128 112 101 150 114 101 125 97 95
178 155 157 157 159 161 173 182 177 177 140 132 123 116 130 122 131 147 134 144 132 155 171 170 172 173 174 167 201 142 159 146 166 125 151 109 183 132 117 148 127 160 110 105 104 104 142 120 133
229 211 188 199 167 174 184 169 180 179 183 130 131 120 133 137 133 140 142 148 150 137 137 162 123 91 162 129 172 155 171 152 176 159 168 156 129 143 139 185 156 134 122 169 124 93 133 103 107
240 239 246 259 250 243 187 259 266 259 230 185 138 143 156 134 137 149 142 141 146 159 134 153 146 155 96 153 162 153 137 147 155 125 115 148 157 136 122 110 132 178 125 146 167 150 138 136 109
237 239 232 239 252 258 250 247 256 170 246 231 159 114 138 139 142 141 133 130 139 143 134 157 147 162 186 155 175 153 158 152 148 154 128 137 143 137 138 153 139 170 129 173 161 175 159 174 144
214 226 228 234 237 233 253 252 256 264 199 274 244 274 276 158 273 138 122 117 127 132 124 123 152 130 121 152 144 139 166 130 156 135 139 141 147 118 146 181 142 164 152 138 133 146 116 130 128
218 228 222 223 242 231 235 245 247 255 258 258 256 258 211 77 286 292 321 117 121 123 131 117 139 120 124 158 160 137 147 131 131 139 154 145 137 150 135 135 157 145 125 84 132 201 135 154 156
229 186 206 233 228 227 238 249 243 242 239 245 253 266 285 271 336 299 208 239 115 107 130 136 135 140 144 147 80 125 135 130 140 135 144 153 145 155 144 139 128 140 126 121 157 141 162 169 140
253 250 248 245 244 244 233 239 228 241 250 259 282 309 355 250 351 347 281 294 152 134 115 130 133 145 132 130 166 134 137 89 136 140 132 137 145 132 122 131 141 125 140 140 131 166 120 131 174
263 257 254 256 255 250 254 254 254 262 275 249 363 348 380 370 385 355 367 341 137 153 413 145 128 135 121 182 146 139 148 147 128 147 126 153 135 109 130 132 134 123 129 147 190 125 134 152 138
245 266 278 271 258 259 267 268 258 273 334 317 325 244 78 124 144 380 308 137 162 174 240 486 155 489 457 169 146 141 141 129 135 131 126 141 130 144 135 127 126 122 127 150 142 143 136 133 127
275 291 287 284 281 277 271 269 341 322 300 306 311 75 272 352 365 415 358 345 322 341 466 490 472 135 412 236 206 197 166 150 123 125 114 142 138 124 124 146 147 121 129 152 129 128 133 134 137
290 288 285 285 321 330 328 319 309 303 305 297 295 287 343 369 328 311 324 147 226 272 171 354 418 308 275 239 144 127 141 125 145 138 125 113 141 147 174 138 138 137 170 135 139 138 137 130 162
301 361 349 333 314 315 308 300 290 273 272 280 165 214 323 391 303 310 338 345 161 183 145 135 144 371 205 142 137 143 145 147 128 135 158 138 134 142 143 138 137 138 143 160 157 132 135 160 136
340 332 315 315 270 286 143 275 265 275 274 141 151 145 157 167 273 159 291 158 159 133 131 132 328 137 136 134 137 139 134 133 135 159 183 120 132 142 138 139 135 154 262 142 141 146 133 135 133
305 232 170 290 282 152 149 153 153 179 148 196 196 151 151 154 157 193 289 225 160 307 267 145 230 230 214 139 147 149 217 148 151 147 148 337 198 144 146 210 144 143 143 144 215 181 223 172 190
298 236 301 227 143 252 260 249 255 274 266 255 260 267 257 280 288 313 288 283 253 160 157 153 151 150 208 211 193 153 288 149 148 149 147 148 148 148 296 235 212 234 186 265 258 214 240 236 230
166 146 147 139 141 150 155 153 149 268 268 145 260 262 254 250 273 278 287 307 269 264 299 311 269 167 309 154 153 150 150 148 149 149 294 145 299 307 317 302 303 286 297 304 301 298 286 289 278

GFSSGP_2pvu_pres_111.txt.gz
Presure
85 83 85 90 82 78 105 136 127 146 85 130 77 144 142 103 141 119 147 106 157 174 89 182 144 142 172 179 143 145 178 142 145 99 102 97 96 97 98 159 170 90 94 158 89 143 143 143 109
118 83 87 76 84 82 91 82 115 89 137 84 77 127 112 145 135 83 114 125 118 94 131 165 144 145 119 96 97 195 124 153 135 147 121 131 97 152 97 140 106 123 167 147 163 146 161 147 154
119 154 125 93 132 82 78 94 79 144 120 128 123 85 131 85 87 81 108 86 111 91 89 160 114 181 150 126 193 122 90 159 164 180 102 174 93 110 159 155 101 143 92 147 148 150 155 154 154
128 130 125 119 76 77 91 76 79 133 121 90 142 140 92 87 79 89 94 82 172 78 94 90 118 101 172 146 157 108 133 199 157 91 176 96 131 170 176 91 89 120 158 125 154 154 162 84 133
142 140 135 126 140 118 116 82 80 146 84 97 90 83 140 89 74 79 124 90 97 91 92 97 103 149 159 122 133 147 127 178 166 146 142 107 181 132 189 163 163 151 120 171 138 143 176 171 150
145 153 121 152 131 142 140 141 72 85 80 83 92 100 101 137 87 90 148 87 95 83 122 120 103 150 165 161 144 167 110 92 168 124 124 114 174 186 141 144 114 122 131 107 88 125 191 99 171
147 153 135 128 178 154 133 134 110 118 67 66 127 116 97 146 100 90 91 88 133 95 98 138 100 158 146 137 144 176 101 121 124 121 134 132 131 180 138 203 170 112 125 163 130 126 160 131 135
162 145 190 145 142 125 129 130 144 161 120 137 147 139 73 123 135 109 104 146 104 102 146 101 148 124 148 137 140 114 141 87 84 85 124 134 151 126 133 128 148 133 119 135 127 143 178 137 138
146 143 145 138 164 142 135 132 126 124 129 133 124 86 144 134 77 77 118 98 105 102 102 102 129 88 125 125 133 127 78 135 132 155 78 145 125 140 132 118 138 134 123 147 133 138 130 131 149
163 146 149 128 156 131 166 141 130 124 120 124 139 137 113 67 128 128 132 150 132 118 132 131 143 145 132 127 147 122 103 115 143 136 165 135 95 130 117 134 126 141 103 139 123 126 134 117 124
143 168 147 169 152 174 135 164 169 142 137 121 142 144 144 117 124 137 147 147 135 145 168 112 122 133 155 139 119 151 119 136 122 141 146 132 132 135 135 138 114 124 136 128 116 144 130 131 125
177 149 154 152 162 168 160 164 136 139 143 143 130 142 141 152 134 136 145 138 149 165 162 129 134 111 134 150 141 131 114 115 127 146 126 142 132 143 121 117 122 140 145 121 137 137 111 115 123
156 151 154 151 153 160 163 169 162 174 138 166 170 135 140 142 142 115 131 126 143 138 144 132 155 126 128 155 129 160 130 141 143 129 129 130 135 136 143 132 136 129 152 142 125 136 107 117 98
173 195 157 156 155 155 156 155 170 176 170 128 127 165 133 140 141 142 140 141 131 149 142 164 126 130 123 152 137 124 134 115 129 146 161 159 123 124 169 153 131 119 134 155 119 107 95 122 105
192 188 176 173 158 140 174 120 183 167 164 161 169 132 130 135 143 147 148 127 141 139 136 149 141 133 134 119 174 133 172 165 144 132 133 108 117 143 150 183 189 152 202 126 133 137 119 139 177
222 194 186 149 181 171 160 158 134 160 167 162 165 149 133 137 177 121 114 118 122 124 143 123 141 133 154 154 162 140 111 170 166 170 180 153 165 164 200 119 206 153 146 116 113 113 114 104 107
225 228 225 216 214 218 239 207 187 187 171 204 182 179 199 223 169 136 136 159 137 137 142 142 140 144 151 123 131 136 149 169 141 169 155 171 155 153 138 115 117 138 154 133 172 125 145 169 152
203 211 218 224 231 229 236 232 236 256 251 251 258 260 261 267 248 268 134 121 138 119 138 130 133 136 139 146 136 155 98 153 159 123 174 129 151 145 149 126 126 154 154 104 191 150 124 145 184
207 207 213 217 223 236 233 221 227 231 236 235 237 255 262 256 259 111 208 275 276 133 280 141 140 127 138 137 139 156 142 125 136 158 163 134 146 147 165 145 149 154 137 134 153 133 143 126 181
232 229 225 210 215 215 213 216 229 226 246 233 242 253 251 211 267 266 124 125 103 242 262 417 127 137 135 99 121 135 154 126 126 139 143 139 146 133 169 140 145 149 150 154 136 135 193 160 117
257 242 239 237 236 244 234 244 250 246 243 253 257 165 264 268 261 273 294 249 237 258 140 137 427 146 131 129 137 133 132 122 126 123 146 142 132 125 178 131 147 140 116 144 141 110 119 145 140
259 250 250 250 241 241 254 253 253 259 266 268 268 270 272 280 296 323 372 381 418 238 354 417 129 257 158 143 125 133 136 145 182 130 153 147 128 139 127 143 158 125 140 137 135 144 130 148 115
283 276 259 259 260 267 265 239 240 284 284 294 101 229 318 314 356 379 392 340 304 118 333 416 479 404 410 175 161 145 147 144 141 141 142 134 131 143 134 127 138 135 140 143 126 123 144 133 133
231 232 235 244 251 256 256 260 282 305 314 318 307 298 299 313 241 327 316 323 351 357 351 350 449 250 137 150 433 148 167 146 143 149 140 126 149 120 125 116 134 127 145 130 113 135 122 126 182
262 265 273 276 299 302 300 330 340 319 303 299 294 286 291 310 81 237 274 265 144 204 307 346 449 483 268 305 448 161 183 161 186 259 215 138 141 129 134 129 126 128 129 143 130 148 197 151 133
273 300 303 305 312 342 326 317 302 296 290 281 281 271 277 299 314 275 304 335 355 361 357 360 421 379 190 349 351 275 337 321 293 199 171 270 149 160 141 119 135 127 143 220 144 143 125 128 128
334 372 362 344 318 307 298 296 288 282 277 275 260 266 268 273 145 146 259 276 336 355 360 357 328 357 343 163 156 155 298 298 147 129 131 137 129 140 125 123 141 135 135 134 130 138 133 139 138
338 333 330 308 299 295 290 229 141 158 284 271 260 201 152 152 152 208 157 222 280 318 173 276 279 264 231 347 145 145 135 209 211 133 132 133 136 133 136 136 127 128 135 131 131 128 140 137 182
260 260 259 269 293 279 223 144 202 270 277 267 263 233 266 261 276 281 284 296 271 237 207 322 152 152 341 350 169 170 148 249 140 140 138 135 134 149 160 160 144 146 147 149 211 147 144 146 146
228 227 133 169 145 141 182 152 145 210 210 220 274 233 271 256 272 142 271 283 290 274 265 274 295 314 153 150 214 326 319 150 149 324 335 324 154 159 162 145 144 151 161 145 141 141 143 145 144

GFSSGP_2pvu_pres_114.txt.gz
Presure
84 79 87 78 82 85 102 128 129 133 131 142 138 134 105 111 139 137 94 106 153 145 158 96 121 108 180 173 125 181 166 147 153 183 104 128 153 139 110 103 103 162 90 94 93 93 146 145 148
88 93 78 81 89 86 90 88 131 133 134 132 84 116 126 140 108 85 122 126 138 87 94 126 140 170 90 139 118 95 145 124 137 149 133 102 132 142 101 139 101 105 94 151 92 115 152 139 154
131 85 87 81 78 81 93 84 90 95 117 141 79 79 105 84 91 124 83 103 119 112 109 93 92 161 168 169 157 102 134 141 94 115 149 99 99 97 92 94 105 127 112 88 156 157 153 123 155
121 97 97 87 79 87 81 74 75 75 78 88 133 134 134 81 85 83 140 84 94 83 100 85 85 119 102 165 165 135 177 191 129 165 162 94 119 170 96 94 141 90 157 167 167 146 150 143 151
142 135 128 119 120 126 80 87 79 92 111 81 131 126 95 120 106 82 81 87 87 95 89 175 82 98 97 103 131 162 178 150 161 82 193 194 189 150 98 178 166 183 175 134 124 116 91 98 165
150 126 145 137 86 136 120 114 98 95 86 83 109 119 83 107 79 123 82 79 88 112 90 96 77 110 98 103 141 157 147 142 174 164 133 125 154 122 160 131 166 146 135 119 94 175 142 134 148
169 155 130 131 143 133 128 133 129 136 108 84 85 100 127 94 89 91 175 136 86 94 73 74 90 91 102 97 121 119 160 136 182 112 83 101 134 136 153 134 132 181 139 131 130 183 171 149 171
158 138 173 172 135 128 99 157 135 141 143 146 68 72 92 89 96 85 90 151 99 122 135 144 128 142 153 106 124 150 135 147 162 139 191 169 126 138 128 149 139 140 128 181 146 136 151 132 155
160 143 168 140 177 160 147 138 124 125 151 143 137 108 118 122 74 72 134 133 146 109 78 127 145 122 99 101 112 160 145 152 136 150 134 160 143 162 80 152 120 121 115 155 123 148 165 164 151
116 151 138 142 148 164 141 176 163 136 132 127 118 128 135 136 128 141 141 126 118 147 130 131 108 109 106 130 109 145 141 122 117 134 110 123 86 143 149 147 106 108 146 140 140 134 144 137 145
113 145 147 146 143 145 164 162 148 176 178 143 118 130 145 114 130 135 127 141 141 157 144 134 150 139 138 121 146 139 115 137 146 110 79 127 123 132 165 135 139 121 141 128 124 131 106 155 100
179 157 129 120 118 169 138 150 180 159 141 159 177 171 118 130 120 133 147 147 138 138 128 142 145 150 119 163 126 126 143 137 129 126 125 119 127 121 143 114 132 134 138 132 124 151 150 122 131
136 144 152 158 149 130 132 161 156 141 148 160 136 147 154 144 139 139 139 145 148 129 140 147 153 148 156 158 150 132 127 138 149 125 117 150 142 142 153 128 140 128 132 151 122 107 135 142 132
144 158 139 118 127 156 152 152 133 165 169 149 169 181 173 143 171 144 135 142 148 134 145 137 137 138 149 152 134 123 134 139 156 129 142 124 133 127 127 140 113 136 128 120 120 120 130 126 141
173 167 174 170 174 175 119 163 157 156 157 165 145 167 169 181 137 147 172 172 145 149 149 129 133 131 149 149 135 154 124 122 124 142 164 144 127 140 147 140 140 124 124 132 127 133 111 128 127
215 179 181 182 191 188 161 179 177 160 160 164 161 164 166 166 167 168 135 134 137 182 149 150 147 145 134 148 143 166 162 162 139 138 159 168 151 147 158 123 138 155 132 126 147 168 188 161 123
216 216 206 207 196 196 197 173 190 190 182 174 177 168 160 186 186 190 177 153 142 143 143 146 155 137 150 141 137 135 134 138 125 127 161 154 167 166 205 169 164 192 173 159 160 146 126 107 121
221 213 221 219 225 222 205 207 207 209 208 202 155 168 164 133 209 232 236 239 236 162 159 141 133 135 114 132 127 138 135 144 151 141 136 134 135 149 137 166 172 159 153 159 149 149 134 125 150
181 221 211 211 223 219 229 233 234 248 245 246 240 242 239 240 156 248 248 248 217 262 161 254 97 268 125 137 125 145 157 173 143 138 134 158 157 147 161 154 162 159 134 149 146 162 134 142 152
204 208 196 216 205 211 217 193 216 207 223 222 225 230 232 243 241 233 246 186 256 286 268 264 127 299 266 267 158 149 161 134 128 141 136 141 161 124 160 151 161 164 137 147 159 141 138 134 138
284 282 250 234 216 222 225 215 220 226 231 244 251 256 240 257 259 274 276 295 325 242 399 118 385 322 263 135 333 435 106 133 135 114 116 139 130 118 119 114 160 147 177 154 164 175 152 146 145
252 264 273 277 282 275 274 273 272 268 261 260 258 258 263 270 277 291 324 350 330 345 345 351 353 119 299 342 362 185 92 433 135 138 127 130 106 150 151 149 128 135 192 143 132 138 122 145 154
227 231 241 251 282 279 280 276 268 268 264 268 272 278 293 265 283 318 330 331 322 343 325 371 372 393 397 504 481 222 421 500 476 442 149 136 140 140 164 164 122 130 123 125 140 125 133 126 153
233 242 256 256 257 259 261 266 268 269 146 218 291 304 313 302 304 292 286 315 94 139 354 375 386 455 486 509 408 415 154 426 232 249 119 148 159 155 140 135 154 135 136 119 136 134 123 118 136
249 240 239 243 246 251 259 264 273 326 348 323 308 306 288 288 286 287 299 319 264 238 380 378 395 372 397 405 397 429 254 390 376 137 230 227 191 126 141 131 136 125 121 144 125 127 125 143 139
247 252 271 278 282 288 310 349 337 321 311 299 294 286 283 278 288 285 284 290 299 278 317 374 392 329 371 324 338 363 367 355 339 303 311 286 159 152 161 133 221 133 149 134 141 134 133 144 128
350 366 383 393 368 344 321 317 310 305 296 284 280 286 278 269 269 274 285 285 290 289 258 327 329 328 320 306 337 330 358 338 318 312 295 141 208 180 163 189 180 273 142 154 145 150 154 157 128
367 366 348 348 327 320 320 310 293 266 280 233 229 234 252 232 235 238 259 270 268 178 159 162 190 214 340 239 333 300 294 324 316 136 135 134 133 134 231 269 144 135 157 183 142 143 141 133 133
231 233 235 238 234 234 235 234 169 140 140 141 195 224 230 225 215 239 209 213 230 257 285 292 272 238 157 310 322 281 157 306 305 318 204 228 268 163 133 136 149 140 132 130 132 132 132 125 121
218 216 213 212 211 214 173 158 189 147 174 198 194 193 191 190 191 191 197 216 234 233 224 231 287 285 267 288 293 172 333 326 154 147 163 187 213 304 156 154 277 185 142 138 139 141 140 142 146

GFSSGP_2pvu_pres_117.txt.gz
Presure
78 85 84 89 84 141 105 135 138 136 139 139 145 140 144 136 140 138 78 147 147 146 145 155 161 158 100 100 139 161 174 101 135 165 116 165 94 114 153 118 164 101 103 87 93 108 104 156 151
80 80 82 78 88 81 116 121 136 137 78 129 129 132 143 140 115 130 82 140 112 134 106 125 154 122 162 171 169 144 202 118 116 139 104 144 158 100 123 98 96 93 96 93 90 87 152 154 155
86 79 82 80 78 85 97 107 84 89 123 130 135 131 78 141 134 133 100 82 147 124 104 131 90 92 102 110 154 172 135 186 129 131 142 112 141 144 145 93 91 93 92 91 119 150 177 160 132
86 89 89 86 90 87 78 82 88 89 89 123 130 139 83 80 145 88 91 139 129 111 88 85 98 84 83 98 95 143 108 119 180 190 97 143 191 98 94 145 163 96 163 147 121 167 159 162 162
89 84 86 82 79 88 76 77 77 72 74 78 82 84 83 88 134 83 86 81 86 90 88 76 92 94 86 93 104 101 138 149 135 143 183 173 147 164 84 176 163 177 158 163 173 186 108 135 138
184 99 100 122 94 111 88 78 85 88 85 85 87 91 79 104 121 125 101 130 84 89 94 94 91 95 83 92 103 100 100 126 160 170 129 126 174 144 161 148 139 132 130 119 187 140 123 147 133
132 142 143 152 141 109 101 104 128 93 77 84 71 85 83 103 88 119 84 89 102 129 113 96 77 80 142 83 100 100 100 106 152 138 152 164 106 80 88 156 185 156 128 146 173 163 145 126 187
125 132 104 100 169 146 126 150 133 81 124 127 131 110 121 93 86 119 134 143 97 82 84 133 134 150 114 164 98 131 95 100 151 171 153 80 180 127 182 127 148 131 164 189 143 140 119 124 159
169 160 166 139 178 179 135 135 126 135 151 132 139 134 76 137 146 107 114 128 85 88 137 152 80 74 125 135 172 139 122 93 149 148 163 146 161 173 175 130 140 110 126 133 135 150 153 153 121
142 152 172 119 63 100 173 161 159 145 127 127 128 128 119 132 120 139 141 116 96 142 122 114 144 164 111 95 120 109 101 100 133 153 154 137 137 158 103 162 146 140 133 119 141 138 133 155 135
140 130 133 155 157 129 131 146 144 143 187 183 180 149 136 133 133 130 110 121 139 87 87 148 130 131 153 143 127 117 170 144 124 144 143 151 134 115 140 116 114 145 148 149 143 136 139 116 117
145 143 143 138 146 132 145 149 137 162 166 171 169 139 176 153 143 139 130 131 136 130 126 129 138 150 152 149 142 157 140 141 129 123 139 161 133 126 138 125 132 129 144 140 130 135 111 142 137
132 149 153 157 128 147 130 130 137 121 138 127 161 168 155 142 162 167 135 145 139 132 134 128 143 143 146 130 140 138 148 149 153 153 146 131 153 144 126 120 117 125 146 134 126 138 131 125 123
168 168 167 155 166 153 136 129 133 117 123 125 151 146 153 182 163 150 146 143 175 169 140 143 142 143 139 141 138 142 142 141 154 150 140 135 144 142 131 144 154 129 134 128 130 120 126 135 121
161 180 175 134 121 177 158 157 139 159 140 151 130 133 143 141 147 143 173 172 151 165 178 182 182 144 155 145 126 148 148 147 134 152 130 127 124 121 102 132 128 135 131 145 133 111 143 129 130
177 203 197 181 183 155 174 159 131 172 127 131 117 172 144 136 133 168 168 152 184 182 178 147 174 155 181 156 142 124 128 127 141 139 142 131 136 129 129 144 140 105 143 133 149 148 135 137 126
193 179 188 186 189 190 185 175 167 154 176 181 183 184 163 129 173 170 134 155 152 158 173 172 186 173 137 145 166 162 140 141 136 144 151 138 158 172 136 135 156 164 156 150 139 150 140 147 162
211 204 212 187 209 216 200 191 218 194 193 196 196 195 200 202 201 182 111 182 144 158 217 221 218 226 178 164 142 158 150 152 146 133 148 140 139 143 138 130 157 161 162 164 157 170 166 163 208
229 201 206 211 238 210 214 224 225 227 231 242 230 232 238 240 231 222 238 143 137 251 252 250 250 253 93 113 266 217 107 249 142 147 139 143 143 141 151 125 157 137 136 133 124 169 143 162 148
199 223 223 211 203 201 207 195 206 225 229 225 229 241 232 237 235 243 247 232 187 233 227 238 243 176 217 379 262 285 409 394 259 156 142 135 141 136 137 140 142 153 154 158 144 151 189 158 148
258 225 247 235 234 205 221 217 227 222 225 236 233 231 230 226 230 234 232 265 296 294 298 345 360 343 347 247 392 392 361 126 182 404 410 128 90 137 131 139 132 116 147 133 128 117 146 163 160
275 290 285 282 279 252 239 233 277 273 275 281 290 299 298 291 285 286 293 298 283 329 307 343 323 321 391 394 399 273 123 398 191 117 136 345 162 116 133 113 133 138 154 114 154 132 156 138 175
234 238 239 248 253 257 259 263 257 259 269 297 299 294 290 286 279 269 299 308 312 315 318 304 291 295 396 354 415 439 507 437 139 443 172 407 448 116 176 465 121 138 132 151 138 139 118 124 198
222 229 240 237 247 253 245 255 264 265 254 253 253 256 269 297 315 307 307 307 304 300 301 302 284 344 257 355 339 373 385 384 417 437 263 491 451 452 384 253 382 192 137 134 231 208 141 152 137
234 240 248 251 250 255 255 253 254 256 271 288 326 323 313 172 303 305 293 301 302 291 230 87 300 313 350 252 362 328 310 363 371 397 432 399 411 424 132 323 182 142 250 143 169 132 151 138 132
247 247 253 255 257 263 273 341 353 365 357 335 321 310 309 293 286 254 270 246 248 251 259 267 311 304 317 339 347 339 308 353 364 282 334 353 351 314 150 311 291 145 132 162 151 136 133 147 239
400 409 407 416 414 400 370 357 349 332 294 300 254 246 243 238 233 238 236 229 235 245 237 244 254 267 299 287 324 324 309 343 305 314 317 322 316 305 293 298 284 266 250 138 199 162 123 124 136
265 256 252 270 274 266 262 268 264 246 241 237 233 226 228 225 229 220 219 226 221 257 225 196 202 210 172 159 156 161 275 302 318 296 312 265 279 301 234 288 261 135 272 265 189 134 208 162 191
213 210 207 207 201 210 204 204 196 201 200 198 198 162 178 189 181 236 245 212 247 250 196 202 221 240 238 242 253 264 282 330 221 260 314 274 301 277 243 148 294 283 141 139 137 136 142 294 138
185 183 182 185 182 182 186 232 292 288 276 276 270 170 267 265 262 262 263 154 264 262 181 177 137 134 163 253 227 241 253 262 277 269 318 319 274 298 260 243 296 272 276 251 159 266 279 235 281